[[{"header":{"parameterUnit":"m.s-1","parameterCategory":1,"la1":31.0,"la2":29.5877,"lo1":-88.7671,"lo2":-86.6584,"dy":0.0162,"dx":0.0185,"nx":115,"ny":88,"refTime":"2023-04-14T06:00:00:Z","depth":0,"parameterNumber":2,"parameterNumberName":"U-component_of_WINDS"},"data":[0.0,0.0,0.0,0.0,0.0,0.0,0.0,0.0,0.0,0.0,0.0,0.0,0.0,0.0,0.0,0.0,0.0,0.0,0.0,0.0,0.0,0.0,0.0,0.0,0.0,0.0,0.0,0.0,0.0,0.0,0.0,0.0,0.0,0.0,0.0,0.0,0.0,0.0,0.0,0.0,0.0,0.0,0.0,0.0,0.0,0.0,0.0,0.0,0.0,0.0,0.0,0.0,0.0,0.0,0.0,0.0,0.0,0.0,0.0,0.0,0.0,0.0,0.0,0.0,0.0,0.0,0.0,0.0,0.0,0.0,0.0,0.0,0.0,0.0,0.0,0.0,0.0,0.0,0.0,0.0,0.0,0.0,0.0,0.0,0.0,0.0,0.0,0.0,0.0,0.0,0.0,0.0,0.0,0.0,0.0,0.0,0.0,0.0,0.0,0.0,0.0,0.0,0.0,0.0,0.0,0.0,0.0,0.0,0.0,0.0,0.0,0.0,0.0,0.0,0.0,0.0,0.0,0.0,0.0,0.0,0.0,0.0,0.0,0.0,0.0,0.0,0.0,0.0,0.0,0.0,0.0,0.0,0.0,0.0,0.0,0.0,0.0,0.0,0.0,0.0,0.0,0.0,0.0,0.0,0.0,0.0,0.0,0.0,0.0,0.0,0.0,0.0,0.0,0.0,0.0,0.0,0.0,0.0,0.0,0.0,0.0,0.0,0.0,0.0,0.0,0.0,0.0,0.0,0.0,0.0,0.0,0.0,0.0,0.0,0.0,0.0,0.0,0.0,0.0,0.0,0.0,0.0,0.0,0.0,0.0,0.0,0.0,0.0,0.0,0.0,0.0,0.0,0.0,0.0,0.0,0.0,0.0,0.0,0.0,0.0,0.0,0.0,0.0,0.0,0.0,0.0,0.0,0.0,0.0,0.0,0.0,0.0,0.0,0.0,0.0,0.0,0.0,0.0,0.0,0.0,0.0,0.0,0.0,0.0,0.0,0.0,0.0,0.0,0.0,0.0,0.0,0.0,0.0,0.0,0.0,0.0,0.0,0.0,0.0,0.0,0.0,0.0,0.0,0.0,0.0,0.0,0.0,0.0,0.0,0.0,0.0,0.0,0.0,0.0,0.0,0.0,0.0,0.0,0.0,0.0,0.0,0.0,0.0,0.0,0.0,0.0,0.0,0.0,0.0,0.0,0.0,0.0,0.0,0.0,0.0,0.0,0.0,0.0,0.0,0.0,0.0,0.0,0.0,0.0,0.0,0.0,0.0,0.0,0.0,0.0,0.0,0.0,0.0,0.0,0.0,0.0,0.0,0.0,0.0,0.0,0.0,0.0,0.0,0.0,0.0,0.0,0.0,0.0,0.0,0.0,0.0,0.0,0.0,0.0,0.0,0.0,0.0,0.0,0.0,0.0,0.0,0.0,0.0,0.0,0.0,0.0,0.0,0.0,0.0,0.0,0.0,0.0,0.0,0.0,0.0,0.0,0.0,0.0,0.0,0.0,0.0,0.0,0.0,0.0,0.0,0.0,0.0,0.0,0.0,0.0,0.0,0.0,0.0,0.0,0.0,0.0,0.0,0.0,0.0,0.0,0.0,0.0,0.0,0.0,0.0,0.0,0.0,0.0,0.0,0.0,0.0,0.0,0.0,0.0,0.0,0.0,0.0,0.0,0.0,0.0,0.0,0.0,0.0,0.0,0.0,0.0,0.0,0.0,0.0,0.0,0.0,0.0,0.0,0.0,0.0,0.0,0.0,0.0,0.0,0.0,0.0,0.0,0.0,0.0,0.0,0.0,0.0,0.0,0.0,0.0,0.0,0.0,0.0,0.0,0.0,0.0,0.0,0.0,0.0,0.0,0.0,0.0,0.0,0.0,0.0,0.0,0.0,0.0,0.0,0.0,0.0,0.0,0.0,0.0,0.0,0.0,0.0,0.0,0.0,0.0,0.0,0.0,0.0,0.0,0.0,0.0,0.0,0.0,0.0,0.0,0.0,0.0,0.0,0.0,0.0,0.0,0.0,0.0,0.0,0.0,0.0,0.0,0.0,0.0,0.0,0.0,0.0,0.0,0.0,0.0,0.0,0.0,0.0,0.0,0.0,0.0,0.0,0.0,0.0,0.0,0.0,0.0,0.0,0.0,0.0,0.0,0.0,0.0,0.0,0.0,0.0,0.0,0.0,0.0,0.0,0.0,0.0,0.0,0.0,0.0,0.0,0.0,0.0,0.0,0.0,0.0,0.0,0.0,0.0,0.0,0.0,0.0,0.0,0.0,0.0,0.0,0.0,0.0,0.0,0.0,0.0,0.0,0.0,0.0,0.0,0.0,0.0,0.0,0.0,0.0,0.0,0.0,0.0,0.0,0.0,0.0,0.0,0.0,0.0,0.0,0.0,0.0,0.0,0.0,0.0,0.0,0.0,0.0,0.0,0.0,0.0,0.0,0.0,0.0,0.0,0.0,0.0,0.0,0.0,0.0,0.0,0.0,0.0,0.0,0.0,0.0,0.0,0.0,0.0,0.0,0.0,0.0,0.0,0.0,0.0,0.0,0.0,0.0,0.0,0.0,0.0,0.0,0.0,0.0,0.0,0.0,0.0,0.0,0.0,0.0,0.0,0.0,0.0,0.0,0.0,0.0,0.0,0.0,0.0,0.0,0.0,0.0,0.0,0.0,0.0,0.0,0.0,0.0,0.0,0.0,0.0,0.0,0.0,0.0,0.0,0.0,0.0,0.0,0.0,0.0,0.0,0.0,0.0,0.0,0.0,0.0,0.0,0.0,0.0,0.0,0.0,0.0,0.0,0.0,0.0,0.0,0.0,0.0,0.0,0.0,0.0,0.0,0.0,0.0,0.0,0.0,0.0,0.0,0.0,0.0,0.0,0.0,0.0,0.0,0.0,0.0,0.0,0.0,0.0,0.0,0.0,0.0,0.0,0.0,0.0,0.0,0.0,0.0,0.0,0.0,0.0,0.0,0.0,0.0,0.0,0.0,0.0,0.0,0.0,0.0,0.0,0.0,0.0,0.0,0.0,0.0,0.0,0.0,0.0,0.0,0.0,0.0,0.0,0.0,0.0,0.0,0.0,0.0,0.0,0.0,0.0,0.0,0.0,0.0,0.0,0.0,0.0,0.0,0.0,0.0,0.0,0.0,0.0,0.0,0.0,0.0,0.0,0.0,0.0,0.0,0.0,0.0,0.0,0.0,0.0,0.0,0.0,0.0,0.0,0.0,0.0,0.0,0.0,0.0,0.0,0.0,0.0,0.0,0.0,0.0,0.0,0.0,0.0,0.0,0.0,0.0,0.0,0.0,0.0,0.0,0.0,0.0,0.0,0.0,0.0,0.0,0.0,0.0,0.0,0.0,0.0,0.0,0.0,0.0,0.0,0.0,0.0,0.0,0.0,0.0,0.0,0.0,0.0,0.0,0.0,0.0,0.0,0.0,0.0,0.0,0.0,0.0,0.0,0.0,0.0,0.0,0.0,0.0,0.0,0.0,0.0,0.0,0.0,0.0,0.0,0.0,0.0,0.0,0.0,0.0,0.0,0.0,0.0,0.0,0.0,0.0,0.0,0.0,0.0,0.0,0.0,0.0,0.0,0.0,0.0,0.0,0.0,0.0,0.0,0.0,0.0,0.0,0.0,0.0,0.0,0.0,0.0,0.0,0.0,0.0,0.0,0.0,0.0,0.0,0.0,0.0,0.0,0.0,0.0,0.0,0.0,0.0,0.0,0.0,0.0,0.0,0.0,0.0,0.0,0.0,0.0,0.0,0.0,0.0,0.0,0.0,0.0,0.0,0.0,0.0,0.0,0.0,0.0,0.0,0.0,0.0,0.0,0.0,0.0,0.0,0.0,0.0,0.0,0.0,0.0,0.0,0.0,0.0,0.0,0.0,0.0,0.0,0.0,0.0,0.0,0.0,0.0,0.0,0.0,0.0,0.0,0.0,0.0,0.0,0.0,0.0,0.0,0.0,0.0,0.0,0.0,0.0,0.0,0.0,0.0,0.0,0.0,0.0,0.0,0.0,0.0,0.0,0.0,0.0,0.0,0.0,0.0,0.0,0.0,0.0,0.0,0.0,0.0,0.0,0.0,0.0,0.0,0.0,0.0,0.0,0.0,0.0,0.0,0.0,0.0,0.0,0.0,0.0,0.0,0.0,0.0,0.0,0.0,0.0,0.0,0.0,0.0,0.0,0.0,0.0,0.0,0.0,0.0,0.0,0.0,0.0,0.0,0.0,0.0,0.0,0.0,0.0,0.0,0.0,0.0,0.0,1.6337,0.0,0.0,0.0,0.0,0.0,0.0,0.0,0.0,0.0,0.0,0.0,0.0,0.0,0.0,0.0,0.0,0.0,0.0,0.0,0.0,0.0,0.0,0.0,0.0,0.0,0.0,0.0,0.0,0.0,0.0,0.0,0.0,0.0,0.0,0.0,0.0,0.0,0.0,0.0,0.0,0.0,0.0,0.0,0.0,0.0,0.0,0.0,0.0,0.0,0.0,0.0,0.0,0.0,0.0,0.0,0.0,0.0,0.0,0.0,0.0,0.0,0.0,0.0,0.0,0.0,0.0,0.0,0.0,0.0,0.0,0.0,0.0,0.0,0.0,0.0,0.0,0.0,0.0,0.0,0.0,0.0,0.0,0.0,0.0,0.0,0.0,0.0,0.0,0.0,0.0,0.0,0.0,0.0,0.0,0.0,0.0,0.0,0.0,0.0,0.0,0.0,0.0,0.0,0.0,0.0,0.0,0.0,0.0,0.0,0.0,1.6855,1.6796,1.6863,1.6854,1.6854,0.0,0.0,0.0,0.0,0.0,0.0,0.0,0.0,0.0,0.0,0.0,0.0,0.0,0.0,0.0,0.0,0.0,0.0,0.0,0.0,0.0,0.0,0.0,0.0,0.0,0.0,0.0,0.0,0.0,0.0,0.0,0.0,0.0,0.0,0.0,0.0,0.0,0.0,0.0,0.0,0.0,0.0,0.0,0.0,0.0,0.0,0.0,0.0,0.0,0.0,0.0,0.0,0.0,0.0,0.0,0.0,0.0,0.0,0.0,0.0,0.0,0.0,0.0,0.0,0.0,0.0,0.0,0.0,0.0,0.0,0.0,0.0,0.0,0.0,0.0,0.0,0.0,0.0,0.0,0.0,0.0,0.0,0.0,0.0,0.0,0.0,0.0,0.0,0.0,0.0,0.0,0.0,0.0,0.0,0.0,0.0,0.0,0.0,0.0,0.0,0.0,0.0,0.0,0.0,0.0,0.0,0.0,0.0,0.0,0.0,0.0,0.0,1.7331,1.7434,1.7268,0.0,0.0,0.0,0.0,0.0,0.0,0.0,0.0,0.0,0.0,0.0,0.0,0.0,0.0,0.0,0.0,0.0,0.0,0.0,0.0,0.0,0.0,0.0,0.0,0.0,0.0,0.0,0.0,0.0,0.0,0.0,0.0,0.0,0.0,0.0,0.0,0.0,0.0,0.0,0.0,0.0,0.0,0.0,0.0,0.0,0.0,0.0,0.0,0.0,0.0,0.0,0.0,0.0,0.0,0.0,0.0,0.0,0.0,0.0,0.0,0.0,0.0,0.0,0.0,0.0,0.0,0.0,0.0,0.0,0.0,0.0,0.0,0.0,0.0,0.0,0.0,0.0,0.0,0.0,0.0,0.0,0.0,0.0,0.0,0.0,0.0,0.0,0.0,0.0,0.0,0.0,0.0,0.0,0.0,0.0,0.0,0.0,0.0,0.0,0.0,0.0,0.0,0.0,0.0,0.0,0.0,0.0,0.0,0.0,0.0,1.8739,1.8041,1.8235,0.0,1.7423,0.0,0.0,0.0,0.0,0.0,0.0,0.0,0.0,0.0,0.0,0.0,0.0,0.0,0.0,0.0,0.0,0.0,0.0,0.0,0.0,0.0,0.0,0.0,0.0,0.0,0.0,0.0,0.0,0.0,0.0,0.0,0.0,0.0,0.0,0.0,0.0,0.0,0.0,0.0,0.0,0.0,0.0,0.0,0.0,0.0,0.0,0.0,0.0,0.0,0.0,0.0,0.0,0.0,0.0,0.0,0.0,0.0,0.0,0.0,0.0,0.0,0.0,0.0,0.0,0.0,0.0,0.0,0.0,0.0,0.0,0.0,0.0,0.0,0.0,0.0,0.0,0.0,0.0,0.0,0.0,0.0,0.0,0.0,0.0,0.0,0.0,0.0,0.0,0.0,0.0,0.0,0.0,0.0,0.0,0.0,0.0,0.0,0.0,0.0,0.0,0.0,0.0,0.0,0.0,0.0,0.0,0.0,0.0,0.0,0.0,1.9715,1.9368,1.9622,1.9528,0.0,0.0,0.0,0.0,0.0,0.0,0.0,0.0,0.0,0.0,0.0,0.0,0.0,0.0,0.0,0.0,0.0,0.0,0.0,0.0,0.0,0.0,0.0,0.0,0.0,0.0,0.0,0.0,0.0,0.0,0.0,0.0,0.0,0.0,0.0,0.0,0.0,0.0,0.0,0.0,0.0,0.0,0.0,0.0,0.0,0.0,0.0,0.0,0.0,0.0,0.0,0.0,0.0,0.0,0.0,0.0,0.0,0.0,0.0,0.0,0.0,0.0,0.0,0.0,0.0,0.0,0.0,0.0,0.0,0.0,0.0,0.0,0.0,0.0,0.0,0.0,0.0,0.0,0.0,0.0,0.0,0.0,0.0,0.0,0.0,0.0,0.0,0.0,0.0,0.0,0.0,0.0,0.0,0.0,0.0,0.0,0.0,0.0,0.0,0.0,0.0,0.0,0.0,0.0,0.0,0.0,0.0,0.0,0.0,0.0,2.0701,2.083,2.0686,2.074,2.0644,2.0471,0.0,0.0,0.0,0.0,0.0,0.0,0.0,0.0,0.0,0.0,0.0,0.0,0.0,0.0,0.0,0.0,0.0,0.0,0.0,0.0,0.0,0.0,0.0,0.0,0.0,0.0,0.0,0.0,0.0,0.0,0.0,0.0,0.0,0.0,0.0,0.0,0.0,0.0,0.0,0.0,0.0,0.0,0.0,0.0,0.0,0.0,0.0,0.0,0.0,0.0,0.0,0.0,0.0,0.0,0.0,0.0,0.0,0.0,0.0,0.0,0.0,0.0,0.0,0.0,0.0,0.0,0.0,0.0,0.0,0.0,0.0,0.0,0.0,0.0,0.0,0.0,0.0,0.0,0.0,0.0,0.0,0.0,0.0,0.0,0.0,0.0,0.0,0.0,0.0,0.0,0.0,0.0,0.0,0.0,0.0,0.0,0.0,0.0,0.0,0.0,0.0,0.0,0.0,0.0,0.0,0.0,0.0,0.0,2.2506,2.2506,2.2346,2.1854,2.1338,2.1067,0.0,0.0,0.0,0.0,0.0,0.0,0.0,0.0,0.0,0.0,0.0,0.0,0.0,0.0,0.0,0.0,0.0,0.0,0.0,0.0,0.0,0.0,0.0,0.0,0.0,0.0,0.0,0.0,0.0,0.0,0.0,0.0,0.0,0.0,0.0,0.0,0.0,0.0,0.0,0.0,0.0,0.0,0.0,0.0,0.0,0.0,0.0,0.0,0.0,0.0,0.0,0.0,0.0,0.0,0.0,0.0,0.0,0.0,0.0,0.0,0.0,0.0,0.0,0.0,0.0,0.0,0.0,0.0,0.0,0.0,0.0,0.0,0.0,0.0,0.0,0.0,0.0,0.0,0.0,0.0,0.0,0.0,0.0,0.0,0.0,0.0,0.0,0.0,0.0,0.0,0.0,0.0,0.0,0.0,0.0,0.0,0.0,0.0,0.0,0.0,0.0,0.0,0.0,0.0,0.0,0.0,0.0,0.0,0.0,2.2268,2.2328,2.2402,2.2551,2.2258,2.2159,0.0,0.0,0.0,0.0,0.0,0.0,0.0,0.0,0.0,0.0,0.0,0.0,0.0,0.0,0.0,0.0,0.0,0.0,0.0,0.0,0.0,0.0,0.0,0.0,0.0,0.0,0.0,0.0,0.0,0.0,0.0,0.0,0.0,0.0,0.0,0.0,0.0,0.0,0.0,0.0,0.0,0.0,0.0,0.0,0.0,0.0,0.0,0.0,0.0,0.0,0.0,0.0,0.0,0.0,0.0,0.0,0.0,0.0,0.0,0.0,0.0,0.0,0.0,0.0,0.0,0.0,0.0,0.0,0.0,0.0,0.0,0.0,0.0,0.0,0.0,0.0,0.0,0.0,0.0,0.0,0.0,0.0,0.0,0.0,0.0,0.0,0.0,0.0,0.0,0.0,0.0,0.0,0.0,0.0,0.0,0.0,0.0,0.0,0.0,0.0,0.0,0.0,0.0,0.0,0.0,0.0,0.0,0.0,0.0,2.2631,0.0,2.2984,2.316,2.3245,2.311,0.0,0.0,0.0,0.0,0.0,0.0,0.0,0.0,0.0,0.0,0.0,0.0,0.0,0.0,0.0,0.0,0.0,0.0,0.0,0.0,0.0,0.0,0.0,0.0,0.0,0.0,0.0,0.0,0.0,0.0,0.0,0.0,0.0,0.0,0.0,0.0,0.0,0.0,0.0,0.0,0.0,0.0,0.0,0.0,0.0,0.0,0.0,0.0,0.0,0.0,0.0,0.0,0.0,0.0,0.0,0.0,0.0,0.0,0.0,0.0,0.0,0.0,0.0,0.0,0.0,0.0,0.0,0.0,0.0,0.0,0.0,0.0,0.0,0.0,0.0,0.0,0.0,0.0,0.0,0.0,0.0,0.0,0.0,0.0,0.0,0.0,0.0,0.0,0.0,0.0,0.0,0.0,0.0,0.0,0.0,0.0,0.0,0.0,0.0,0.0,0.0,0.0,0.0,0.0,0.0,0.0,0.0,0.0,2.3365,2.3754,2.4195,2.4168,2.3787,2.4221,2.3785,0.0,0.0,0.0,0.0,0.0,0.0,0.0,0.0,0.0,0.0,0.0,0.0,0.0,0.0,0.0,0.0,0.0,0.0,0.0,0.0,0.0,0.0,0.0,0.0,0.0,0.0,0.0,0.0,0.0,0.0,0.0,0.0,0.0,0.0,0.0,0.0,0.0,0.0,0.0,0.0,0.0,0.0,0.0,0.0,0.0,0.0,0.0,0.0,0.0,0.0,0.0,0.0,0.0,0.0,0.0,0.0,0.0,0.0,0.0,0.0,0.0,0.0,0.0,0.0,0.0,0.0,0.0,0.0,0.0,0.0,0.0,0.0,0.0,0.0,0.0,0.0,0.0,0.0,0.0,0.0,0.0,0.0,0.0,0.0,0.0,0.0,0.0,0.0,0.0,0.0,0.0,0.0,0.0,0.0,0.0,0.0,0.0,0.0,0.0,0.0,0.0,0.0,0.0,0.0,0.0,0.0,0.0,0.0,0.0,2.3948,2.3948,2.394,2.3846,2.4279,2.4142,0.0,0.0,0.0,0.0,0.0,0.0,0.0,0.0,0.0,0.0,0.0,0.0,0.0,0.0,0.0,0.0,0.0,0.0,0.0,0.0,0.0,0.0,0.0,0.0,0.0,0.0,0.0,0.0,0.0,0.0,0.0,0.0,0.0,0.0,0.0,0.0,0.0,0.0,0.0,0.0,0.0,0.0,0.0,0.0,0.0,0.0,0.0,0.0,0.0,0.0,0.0,0.0,0.0,0.0,0.0,0.0,0.0,0.0,0.0,0.0,0.0,0.0,0.0,0.0,0.0,0.0,0.0,0.0,0.0,0.0,0.0,0.0,0.0,0.0,0.0,0.0,0.0,0.0,0.0,0.0,0.0,0.0,0.0,0.0,0.0,0.0,0.0,0.0,0.0,0.0,0.0,0.0,0.0,0.0,0.0,0.0,0.0,0.0,0.0,0.0,0.0,0.0,0.0,0.0,0.0,0.0,0.0,0.0,0.0,2.6138,2.5689,2.5349,2.5298,2.5731,2.5374,2.3989,0.0,0.0,0.0,0.0,0.0,0.0,0.0,0.0,0.0,0.0,0.0,0.0,0.0,0.0,0.0,0.0,0.0,0.0,0.0,0.0,0.0,0.0,0.0,0.0,0.0,0.0,0.0,0.0,0.0,0.0,0.0,0.0,0.0,0.0,0.0,0.0,0.0,0.0,0.0,0.0,0.0,0.0,0.0,0.0,0.0,0.0,0.0,0.0,0.0,0.0,0.0,0.0,0.0,0.0,0.0,0.0,0.0,0.0,0.0,0.0,0.0,0.0,0.0,0.0,0.0,0.0,0.0,0.0,0.0,0.0,0.0,0.0,0.0,0.0,0.0,0.0,0.0,0.0,0.0,0.0,0.0,0.0,0.0,0.0,0.0,0.0,0.0,0.0,0.0,0.0,0.0,0.0,0.0,0.0,0.0,0.0,0.0,0.0,0.0,0.0,0.0,0.0,0.0,0.0,0.0,0.0,0.0,0.0,2.9866,2.904,2.8454,2.802,2.8426,2.7315,0.0,0.0,0.0,0.0,0.0,0.0,0.0,0.0,0.0,0.0,0.0,0.0,0.0,0.0,0.0,0.0,0.0,0.0,0.0,0.0,0.0,0.0,0.0,0.0,0.0,0.0,0.0,0.0,0.0,0.0,0.0,0.0,0.0,0.0,0.0,0.0,0.0,0.0,0.0,0.0,0.0,0.0,0.0,0.0,0.0,0.0,0.0,0.0,0.0,0.0,0.0,0.0,0.0,0.0,0.0,0.0,0.0,0.0,0.0,0.0,0.0,0.0,0.0,0.0,0.0,0.0,0.0,0.0,0.0,0.0,0.0,0.0,0.0,0.0,0.0,0.0,0.0,0.0,0.0,0.0,0.0,0.0,0.0,0.0,0.0,0.0,0.0,0.0,0.0,0.0,0.0,0.0,0.0,0.0,0.0,0.0,0.0,0.0,0.0,0.0,0.0,0.0,0.0,0.0,0.0,0.0,0.0,0.0,0.0,3.2065,3.2489,3.2024,3.094,3.0758,2.9657,0.0,0.0,0.0,0.0,0.0,0.0,0.0,0.0,0.0,0.0,0.0,0.0,0.0,0.0,0.0,0.0,0.0,0.0,0.0,0.0,0.0,0.0,0.0,0.0,0.0,0.0,0.0,0.0,0.0,0.0,0.0,0.0,0.0,0.0,0.0,0.0,0.0,0.0,0.0,0.0,0.0,0.0,0.0,0.0,0.0,0.0,0.0,0.0,0.0,0.0,0.0,0.0,0.0,0.0,0.0,0.0,0.0,0.0,0.0,0.0,0.0,0.0,0.0,0.0,0.0,0.0,0.0,0.0,0.0,0.0,0.0,0.0,0.0,0.0,0.0,0.0,0.0,0.0,0.0,0.0,0.0,0.0,0.0,0.0,0.0,0.0,0.0,0.0,0.0,0.0,0.0,0.0,0.0,0.0,0.0,0.0,0.0,0.0,0.0,0.0,0.0,0.0,0.0,0.0,0.0,0.0,0.0,0.0,3.1625,3.4205,3.5917,3.6369,3.5575,3.355,3.1467,0.0,0.0,0.0,0.0,0.0,0.0,0.0,0.0,0.0,0.0,0.0,0.0,0.0,0.0,0.0,0.0,0.0,0.0,0.0,0.0,0.0,0.0,0.0,0.0,0.0,0.0,0.0,0.0,0.0,0.0,0.0,0.0,0.0,0.0,0.0,0.0,0.0,0.0,0.0,0.0,0.0,0.0,0.0,0.0,0.0,0.0,0.0,0.0,0.0,0.0,0.0,0.0,0.0,0.0,0.0,0.0,0.0,0.0,0.0,0.0,0.0,0.0,0.0,0.0,0.0,0.0,0.0,0.0,0.0,0.0,0.0,0.0,0.0,0.0,0.0,0.0,0.0,0.0,0.0,0.0,0.0,0.0,0.0,0.0,0.0,0.0,0.0,0.0,0.0,0.0,0.0,0.0,0.0,0.0,0.0,0.0,0.0,0.0,0.0,0.0,0.0,0.0,0.0,0.0,0.0,0.0,0.0,0.0,3.3955,3.6016,3.8805,4.0307,4.0307,3.6408,3.3044,0.0,0.0,0.0,0.0,0.0,0.0,0.0,0.0,0.0,0.0,0.0,0.0,0.0,0.0,0.0,0.0,0.0,0.0,0.0,0.0,0.0,0.0,0.0,0.0,0.0,0.0,0.0,0.0,0.0,0.0,0.0,0.0,0.0,0.0,0.0,0.0,0.0,0.0,0.0,0.0,0.0,0.0,0.0,0.0,0.0,0.0,0.0,0.0,0.0,0.0,0.0,0.0,0.0,0.0,0.0,0.0,0.0,0.0,0.0,0.0,0.0,0.0,0.0,0.0,0.0,0.0,0.0,0.0,0.0,0.0,0.0,0.0,0.0,0.0,0.0,0.0,0.0,0.0,0.0,0.0,0.0,0.0,0.0,0.0,0.0,0.0,0.0,0.0,0.0,0.0,0.0,0.0,0.0,0.0,0.0,0.0,0.0,0.0,0.0,0.0,0.0,0.0,0.0,0.0,0.0,0.0,0.0,0.0,3.442,3.7634,3.8907,3.9888,4.0367,3.7812,3.5385,0.0,0.0,0.0,0.0,0.0,0.0,0.0,0.0,0.0,0.0,0.0,0.0,0.0,0.0,0.0,0.0,0.0,0.0,0.0,0.0,0.0,0.0,0.0,0.0,0.0,0.0,0.0,0.0,0.0,0.0,0.0,0.0,0.0,0.0,0.0,0.0,0.0,0.0,0.0,0.0,0.0,0.0,0.0,0.0,0.0,0.0,0.0,0.0,2.8612,0.0,0.0,0.0,0.0,0.0,0.0,0.0,0.0,0.0,0.0,0.0,0.0,0.0,0.0,0.0,0.0,0.0,0.0,0.0,0.0,0.0,0.0,0.0,0.0,0.0,0.0,0.0,0.0,0.0,0.0,0.0,0.0,0.0,0.0,0.0,0.0,0.0,0.0,0.0,0.0,0.0,0.0,0.0,0.0,0.0,0.0,0.0,0.0,0.0,0.0,0.0,0.0,0.0,0.0,0.0,0.0,0.0,0.0,0.0,3.5533,3.815,3.9606,4.0367,4.0337,3.827,3.6132,0.0,0.0,0.0,0.0,0.0,0.0,0.0,0.0,0.0,0.0,0.0,0.0,0.0,0.0,0.0,0.0,0.0,0.0,0.0,0.0,0.0,0.0,0.0,0.0,0.0,0.0,0.0,0.0,0.0,0.0,0.0,0.0,0.0,0.0,0.0,0.0,0.0,0.0,0.0,0.0,0.0,0.0,0.0,0.0,0.0,0.0,0.0,0.0,0.0,0.0,0.0,0.0,0.0,0.0,0.0,0.0,0.0,0.0,0.0,0.0,0.0,0.0,0.0,0.0,0.0,0.0,0.0,0.0,0.0,0.0,0.0,0.0,0.0,0.0,0.0,0.0,0.0,0.0,0.0,0.0,0.0,0.0,0.0,0.0,0.0,0.0,0.0,0.0,0.0,0.0,0.0,0.0,0.0,0.0,0.0,0.0,0.0,0.0,0.0,0.0,0.0,0.0,0.0,0.0,0.0,0.0,0.0,3.4787,3.6882,3.8359,4.0442,4.1175,4.0397,3.843,3.6387,3.4262,0.0,0.0,0.0,0.0,0.0,0.0,0.0,0.0,0.0,0.0,0.0,0.0,0.0,0.0,0.0,0.0,0.0,0.0,0.0,0.0,0.0,0.0,0.0,0.0,0.0,0.0,0.0,0.0,0.0,0.0,0.0,0.0,0.0,0.0,0.0,0.0,0.0,0.0,2.5494,2.6658,0.0,0.0,0.0,0.0,0.0,0.0,0.0,0.0,3.1541,0.0,0.0,0.0,0.0,0.0,0.0,0.0,0.0,0.0,0.0,0.0,0.0,0.0,0.0,0.0,0.0,0.0,0.0,0.0,0.0,0.0,0.0,0.0,0.0,0.0,0.0,0.0,0.0,0.0,0.0,0.0,0.0,0.0,0.0,0.0,0.0,0.0,0.0,0.0,0.0,0.0,0.0,0.0,0.0,0.0,0.0,0.0,0.0,0.0,0.0,0.0,0.0,0.0,0.0,0.0,0.0,3.3638,3.5672,3.7564,3.9158,4.1175,4.1624,4.0427,3.899,3.7246,3.508,0.0,0.0,0.0,0.0,0.0,0.0,0.0,0.0,0.0,0.0,0.0,0.0,0.0,0.0,0.0,0.0,0.0,0.0,0.0,0.0,0.0,0.0,0.0,0.0,0.0,0.0,0.0,0.0,0.0,0.0,0.0,0.0,0.0,0.0,0.0,0.0,0.0,0.0,0.0,2.9049,2.9323,0.0,0.0,0.0,0.0,0.0,0.0,0.0,0.0,3.2733,0.0,0.0,0.0,0.0,0.0,0.0,0.0,0.0,0.0,0.0,0.0,0.0,0.0,0.0,0.0,0.0,0.0,0.0,0.0,0.0,0.0,0.0,0.0,0.0,0.0,0.0,0.0,0.0,0.0,0.0,0.0,0.0,0.0,0.0,0.0,0.0,0.0,0.0,0.0,0.0,0.0,0.0,0.0,0.0,0.0,0.0,0.0,0.0,0.0,0.0,0.0,0.0,0.0,0.0,0.0,3.4434,3.6191,3.7812,3.9409,4.0666,4.0696,3.9379,3.8392,3.6956,0.0,0.0,0.0,0.0,0.0,0.0,0.0,0.0,0.0,0.0,0.0,0.0,0.0,0.0,0.0,0.0,0.0,0.0,0.0,0.0,0.0,0.0,0.0,0.0,0.0,0.0,0.0,0.0,0.0,0.0,0.0,0.0,0.0,0.0,0.0,0.0,0.0,0.0,0.0,0.0,3.0298,3.058,3.184,0.0,0.0,0.0,0.0,0.0,0.0,3.3667,3.3797,0.0,0.0,0.0,0.0,0.0,0.0,0.0,0.0,0.0,0.0,0.0,0.0,0.0,0.0,0.0,0.0,0.0,0.0,0.0,0.0,0.0,0.0,0.0,0.0,0.0,0.0,0.0,0.0,0.0,0.0,0.0,0.0,0.0,0.0,0.0,0.0,0.0,0.0,0.0,0.0,0.0,0.0,0.0,0.0,0.0,0.0,0.0,0.0,0.0,0.0,0.0,0.0,0.0,0.0,0.0,3.4971,3.6556,3.8072,3.9379,4.0187,3.9948,3.8631,3.7853,3.6626,0.0,0.0,0.0,0.0,0.0,0.0,0.0,0.0,0.0,0.0,0.0,0.0,0.0,0.0,0.0,0.0,0.0,0.0,0.0,0.0,0.0,0.0,0.0,0.0,0.0,0.0,0.0,0.0,0.0,0.0,0.0,0.0,0.0,0.0,0.0,0.0,0.0,0.0,0.0,0.0,0.0,3.1898,3.3254,3.3157,0.0,0.0,0.0,0.0,3.4361,3.4949,0.0,0.0,0.0,0.0,0.0,0.0,0.0,0.0,0.0,0.0,0.0,0.0,0.0,0.0,0.0,0.0,0.0,0.0,0.0,0.0,0.0,0.0,0.0,0.0,0.0,0.0,0.0,0.0,0.0,0.0,0.0,0.0,0.0,0.0,0.0,0.0,0.0,0.0,0.0,0.0,0.0,0.0,0.0,0.0,0.0,0.0,0.0,0.0,0.0,0.0,0.0,0.0,0.0,0.0,0.0,0.0,3.5001,3.707,3.8519,3.9439,4.0636,4.0636,3.932,3.8063,3.7045,0.0,0.0,0.0,0.0,0.0,0.0,0.0,0.0,0.0,0.0,0.0,0.0,0.0,0.0,0.0,0.0,0.0,0.0,0.0,0.0,0.0,0.0,0.0,0.0,0.0,0.0,0.0,0.0,0.0,0.0,0.0,0.0,0.0,0.0,0.0,0.0,0.0,0.0,0.0,0.0,0.0,3.3284,3.4783,3.4198,3.3856,0.0,0.0,3.5296,3.6585,3.7367,0.0,0.0,0.0,0.0,0.0,0.0,0.0,0.0,0.0,0.0,0.0,0.0,0.0,0.0,0.0,0.0,0.0,0.0,0.0,0.0,0.0,0.0,0.0,0.0,0.0,0.0,0.0,0.0,0.0,0.0,0.0,0.0,0.0,0.0,0.0,0.0,0.0,0.0,0.0,0.0,0.0,0.0,0.0,0.0,0.0,0.0,0.0,0.0,0.0,0.0,0.0,0.0,0.0,0.0,0.0,3.4327,3.5666,3.702,3.8292,3.9379,3.9978,3.9798,3.8871,3.8272,3.7315,0.0,0.0,0.0,0.0,0.0,0.0,0.0,0.0,0.0,0.0,0.0,0.0,0.0,0.0,0.0,0.0,0.0,0.0,0.0,0.0,0.0,0.0,0.0,0.0,0.0,0.0,0.0,0.0,0.0,0.0,0.0,0.0,0.0,0.0,0.0,0.0,0.0,0.0,0.0,0.0,0.0,0.0,3.5109,3.5422,0.0,0.0,0.0,3.7416,3.7553,0.0,0.0,0.0,0.0,0.0,0.0,0.0,0.0,0.0,0.0,0.0,0.0,0.0,0.0,0.0,0.0,0.0,0.0,0.0,0.0,0.0,0.0,0.0,0.0,0.0,0.0,0.0,0.0,0.0,0.0,0.0,0.0,0.0,0.0,0.0,0.0,0.0,0.0,0.0,0.0,0.0,0.0,0.0,0.0,0.0,0.0,0.0,0.0,0.0,0.0,0.0,0.0,0.0,0.0,0.0,0.0,0.0,3.6179,3.7007,3.8063,3.9349,3.9439,3.917,3.8661,3.8662,0.0,0.0,0.0,0.0,0.0,0.0,0.0,0.0,0.0,0.0,0.0,0.0,0.0,0.0,0.0,0.0,0.0,0.0,0.0,0.0,0.0,0.0,0.0,0.0,0.0,0.0,0.0,2.9101,0.0,0.0,0.0,0.0,0.0,0.0,0.0,0.0,0.0,0.0,0.0,0.0,0.0,0.0,3.5561,3.571,3.6722,3.7526,0.0,0.0,3.906,3.8839,3.9832,4.0263,0.0,0.0,0.0,0.0,0.0,0.0,0.0,0.0,0.0,0.0,0.0,0.0,0.0,0.0,0.0,0.0,0.0,0.0,0.0,0.0,0.0,0.0,0.0,0.0,0.0,0.0,0.0,0.0,0.0,0.0,0.0,0.0,0.0,0.0,0.0,0.0,0.0,0.0,0.0,0.0,0.0,0.0,0.0,0.0,0.0,0.0,0.0,0.0,0.0,0.0,0.0,0.0,0.0,0.0,0.0,3.6149,3.7007,3.8093,3.9379,3.9439,3.9409,3.9349,3.9497,3.9266,0.0,0.0,0.0,0.0,0.0,0.0,0.0,0.0,0.0,0.0,0.0,0.0,0.0,0.0,0.0,0.0,0.0,0.0,0.0,0.0,0.0,0.0,0.0,0.0,0.0,0.0,0.0,0.0,0.0,0.0,0.0,0.0,0.0,0.0,0.0,0.0,0.0,0.0,0.0,0.0,0.0,3.6626,3.7195,3.7774,3.8359,0.0,0.0,3.9579,4.092,4.1773,4.1983,4.1294,0.0,0.0,0.0,0.0,0.0,0.0,0.0,0.0,0.0,0.0,0.0,0.0,0.0,0.0,0.0,0.0,0.0,0.0,0.0,0.0,0.0,0.0,0.0,0.0,0.0,0.0,0.0,0.0,0.0,0.0,0.0,0.0,0.0,0.0,0.0,0.0,0.0,0.0,0.0,0.0,0.0,0.0,0.0,0.0,0.0,0.0,0.0,0.0,0.0,0.0,0.0,0.0,0.0,3.6611,3.7575,3.8232,3.911,3.9978,4.0427,4.0902,4.1495,4.1573,4.1224,0.0,0.0,0.0,0.0,0.0,0.0,0.0,0.0,0.0,0.0,0.0,0.0,0.0,0.0,0.0,0.0,0.0,0.0,0.0,0.0,0.0,0.0,0.0,0.0,0.0,0.0,0.0,0.0,3.2229,3.2557,3.2348,0.0,0.0,0.0,0.0,0.0,0.0,0.0,0.0,0.0,0.0,3.7913,3.8542,3.9486,0.0,0.0,4.089,4.1308,4.1923,4.2551,4.2731,4.2102,4.1983,0.0,0.0,0.0,0.0,0.0,0.0,0.0,0.0,0.0,0.0,0.0,0.0,0.0,0.0,0.0,0.0,0.0,0.0,0.0,0.0,0.0,0.0,0.0,0.0,0.0,0.0,0.0,0.0,0.0,0.0,0.0,0.0,0.0,0.0,0.0,0.0,0.0,0.0,0.0,0.0,0.0,0.0,0.0,0.0,0.0,0.0,0.0,0.0,0.0,0.0,0.0,0.0,3.7823,3.8691,3.9425,4.0202,4.1079,4.19,4.252,4.32,4.3479,4.321,0.0,0.0,0.0,0.0,0.0,0.0,0.0,0.0,0.0,0.0,0.0,0.0,0.0,0.0,0.0,0.0,0.0,0.0,0.0,0.0,0.0,0.0,0.0,0.0,0.0,0.0,0.0,0.0,3.3275,3.3604,3.3155,0.0,0.0,0.0,0.0,0.0,0.0,0.0,0.0,0.0,0.0,3.896,3.9619,4.0666,4.1444,4.1654,4.2073,4.2432,4.2611,4.303,4.318,4.2731,0.0,0.0,0.0,0.0,0.0,0.0,0.0,0.0,0.0,0.0,0.0,0.0,0.0,0.0,0.0,0.0,0.0,0.0,0.0,0.0,0.0,0.0,0.0,0.0,0.0,0.0,0.0,0.0,0.0,0.0,2.9894,0.0,0.0,0.0,0.0,0.0,0.0,0.0,0.0,0.0,0.0,0.0,0.0,0.0,0.0,0.0,0.0,0.0,0.0,0.0,0.0,0.0,0.0,3.8093,3.9379,4.0339,4.1441,4.2745,4.3685,4.4193,4.4193,4.5016,4.5144,4.4429,0.0,0.0,0.0,0.0,0.0,0.0,0.0,0.0,0.0,0.0,0.0,0.0,0.0,0.0,0.0,0.0,0.0,0.0,0.0,0.0,0.0,0.0,0.0,0.0,0.0,0.0,3.2527,3.3694,3.4442,0.0,0.0,0.0,0.0,0.0,0.0,0.0,0.0,0.0,0.0,3.896,3.9649,4.0307,4.0965,4.1654,4.2252,4.2449,4.2581,4.318,4.3329,4.3329,0.0,0.0,0.0,0.0,0.0,0.0,0.0,0.0,0.0,0.0,0.0,0.0,0.0,0.0,0.0,0.0,0.0,0.0,0.0,0.0,0.0,0.0,0.0,0.0,0.0,0.0,0.0,3.2368,3.1823,0.0,0.0,0.0,0.0,0.0,0.0,0.0,0.0,0.0,0.0,0.0,3.6382,3.7431,0.0,0.0,0.0,0.0,0.0,0.0,0.0,0.0,0.0,0.0,0.0,0.0,3.9619,4.0141,4.1873,4.2993,4.349,4.4827,4.5814,4.6453,4.6717,4.6779,4.6444,0.0,0.0,0.0,0.0,0.0,0.0,0.0,0.0,0.0,0.0,0.0,0.0,0.0,0.0,0.0,0.0,0.0,0.0,0.0,0.0,0.0,0.0,0.0,0.0,0.0,3.3185,0.0,0.0,0.0,0.0,0.0,0.0,0.0,0.0,0.0,0.0,0.0,3.7734,3.9499,4.0307,4.0965,4.1594,4.2252,4.2761,0.0,0.0,0.0,0.0,0.0,0.0,0.0,0.0,0.0,0.0,0.0,0.0,0.0,0.0,4.378,4.1234,4.0726,4.0726,4.0726,0.0,0.0,0.0,0.0,0.0,0.0,0.0,0.0,0.0,0.0,0.0,0.0,0.0,0.0,3.4632,0.0,3.3963,0.0,0.0,0.0,0.0,0.0,0.0,0.0,0.0,3.7404,3.8351,3.8668,3.9358,4.0114,0.0,4.0593,3.9822,0.0,0.0,0.0,0.0,0.0,0.0,0.0,0.0,4.1279,4.1912,4.4086,4.5246,4.5532,4.7119,4.8064,4.8462,4.8229,4.8089,4.7967,4.6886,4.5868,0.0,0.0,0.0,0.0,0.0,0.0,0.0,0.0,0.0,0.0,0.0,0.0,0.0,0.0,0.0,0.0,0.0,0.0,0.0,0.0,0.0,0.0,0.0,3.4729,0.0,0.0,0.0,0.0,0.0,0.0,0.0,0.0,0.0,3.8153,3.8512,3.9349,4.0876,4.1444,4.1953,4.2611,0.0,0.0,0.0,0.0,0.0,0.0,0.0,4.6066,4.6009,4.7082,4.7985,4.8207,4.8496,4.8689,4.8464,0.0,0.0,4.3951,4.3267,4.2965,4.2622,4.2138,4.1806,4.203,4.1816,4.1709,0.0,0.0,0.0,0.0,0.0,0.0,0.0,0.0,3.7397,3.7203,0.0,3.6722,0.0,0.0,0.0,0.0,0.0,0.0,0.0,0.0,4.0816,4.2213,4.203,4.2043,4.278,4.4054,4.2499,4.1914,4.215,4.0929,0.0,0.0,0.0,0.0,0.0,0.0,4.2987,4.463,4.6678,4.8034,4.8627,5.029,5.0845,5.0135,4.9424,4.9052,4.9018,4.8001,4.7536,4.7625,4.5824,0.0,0.0,0.0,0.0,0.0,0.0,0.0,0.0,0.0,0.0,0.0,0.0,0.0,0.0,0.0,0.0,0.0,0.0,0.0,0.0,3.6562,0.0,0.0,0.0,0.0,0.0,0.0,0.0,0.0,0.0,0.0,3.9673,4.0591,4.1594,4.2252,0.0,0.0,0.0,0.0,4.4557,4.52,4.5866,4.6541,4.7276,4.7675,4.787,4.7913,0.0,0.0,5.0975,5.0156,4.9373,4.8698,4.8643,4.8312,4.7566,4.6717,4.5913,4.5067,4.4843,4.4496,4.3735,4.3858,4.4197,4.2557,0.0,0.0,0.0,0.0,4.0381,4.0715,4.0936,4.0735,4.0628,4.0654,3.9954,0.0,0.0,0.0,0.0,0.0,0.0,4.0095,4.0863,4.2177,4.3452,4.4609,4.4609,4.5115,4.5992,4.5529,4.5312,4.5421,4.5009,4.3399,4.0674,0.0,0.0,0.0,0.0,4.4351,4.5112,4.7235,4.8529,4.8693,5.0324,5.1116,5.0879,5.0168,4.9796,4.9763,4.9024,4.8259,4.772,4.7133,0.0,0.0,0.0,0.0,0.0,0.0,0.0,0.0,0.0,0.0,0.0,0.0,0.0,0.0,0.0,0.0,0.0,0.0,0.0,3.7038,3.8654,3.8994,0.0,0.0,0.0,0.0,0.0,0.0,0.0,0.0,0.0,4.3043,4.1705,4.1115,0.0,0.0,4.3275,4.3836,4.5139,4.6116,4.6335,0.0,0.0,0.0,4.9208,4.9588,4.9529,5.0648,5.1693,5.2227,5.2327,5.226,5.2027,5.156,5.1093,5.0792,4.9164,4.7782,4.7384,4.6818,4.6238,4.5957,4.5505,4.5251,4.6709,4.4663,4.3675,4.3015,4.2723,4.3138,4.3755,4.4373,4.3765,4.3698,4.3811,4.2551,4.1634,4.0983,4.0735,0.0,0.0,0.0,4.2345,4.3529,4.4192,4.5395,4.6921,4.6718,4.7259,4.8477,4.7631,4.7394,4.7665,4.6937,4.5424,4.3062,0.0,0.0,4.4134,4.5362,4.6345,4.7008,4.9027,5.0092,5.0126,5.1125,5.1657,5.1623,5.0913,5.0541,5.0541,4.983,4.9159,4.8658,4.8326,4.7698,0.0,0.0,0.0,0.0,0.0,0.0,0.0,0.0,0.0,0.0,0.0,3.8455,0.0,0.0,0.0,0.0,3.9325,3.9682,4.0079,4.0734,0.0,0.0,0.0,0.0,0.0,0.0,0.0,4.2094,4.3352,4.4527,4.5221,4.385,4.3303,4.4631,4.5042,4.5422,4.5797,0.0,4.7878,4.8166,4.931,5.0199,5.0462,5.0961,5.1338,5.1528,5.2,5.2572,5.3043,5.3348,5.3518,5.345,5.3112,5.2773,5.2773,5.1422,5.002,4.9109,4.8505,4.7988,4.7612,4.7169,4.7119,5.0067,4.9255,4.6824,4.5849,4.5799,4.5833,4.6701,4.797,4.665,4.6389,4.6709,4.4699,4.3575,4.325,4.2579,0.0,4.3541,4.4282,4.5115,4.6007,4.6718,4.78,4.912,4.8511,4.9255,5.115,4.9154,4.8511,4.9086,4.7497,4.6703,4.6642,4.6362,4.6314,4.6618,4.7637,4.8694,4.9689,5.1393,5.2334,5.2401,5.2401,5.2401,5.2401,5.1691,5.1319,5.1285,5.0574,5.0168,5.0168,4.9434,4.8697,4.8023,0.0,0.0,0.0,0.0,0.0,0.0,0.0,0.0,0.0,0.0,0.0,0.0,0.0,0.0,0.0,4.3171,0.0,4.4265,4.3053,0.0,0.0,0.0,4.1949,4.3427,4.4234,4.4879,4.5459,0.0,0.0,4.6754,0.0,4.72,4.8619,4.8578,4.8409,4.8473,4.9044,4.9758,5.0275,5.1069,5.1649,5.2184,5.2594,5.2905,5.3247,5.3518,5.3484,5.3484,5.3518,5.3518,5.3518,5.3518,5.3484,5.3518,5.3349,5.2775,5.0518,5.0047,4.9735,4.9014,4.9064,4.9329,5.3416,5.3112,5.1389,4.97,4.8213,4.8754,4.9221,4.9526,4.9187,4.9154,4.9125,4.7504,4.649,4.5857,4.5747,4.5747,4.5949,4.6693,4.747,4.824,4.8951,4.9796,5.0676,5.0507,5.071,5.115,5.0676,5.0541,5.0676,5.0274,4.9978,4.985,4.9785,4.9122,4.7932,4.9161,5.0092,5.0656,5.163,5.2505,5.3179,5.3213,5.3213,5.3213,5.2469,5.2029,5.2029,5.1352,5.0947,5.0947,5.0713,5.048,5.0183,4.8788,0.0,0.0,0.0,0.0,0.0,0.0,0.0,0.0,0.0,4.2095,4.1531,0.0,4.2336,0.0,4.4515,4.5798,4.5865,4.6109,0.0,0.0,4.5472,4.5562,4.6782,4.7408,4.7671,4.7441,4.7934,4.8627,4.9626,4.9389,4.9849,5.1929,4.9977,4.8497,4.9017,5.0344,5.1258,5.1525,5.23,5.301,5.3145,5.328,5.3348,5.3518,5.3518,5.3518,5.3518,5.3518,5.3518,5.3518,5.3518,5.3518,5.3518,5.3518,5.3315,5.2673,5.1955,5.1322,5.1106,5.0617,5.037,5.5378,5.504,5.416,5.3112,5.1961,5.1352,5.1285,5.1589,5.1217,5.1048,5.098,4.9526,4.8477,4.78,4.7767,4.7936,4.8274,4.868,4.9289,4.9999,5.0405,5.098,5.1691,5.1691,5.1894,5.2232,5.186,5.1691,5.1691,5.1386,5.1153,5.1121,5.1425,5.1058,5.0057,5.0593,5.096,5.1196,5.2068,5.2775,5.3484,5.3518,5.3416,5.3212,5.291,5.2606,5.2471,5.1832,5.1428,5.1428,5.1125,5.0957,5.0826,4.9858,4.906,0.0,0.0,0.0,0.0,0.0,0.0,0.0,0.0,0.0,0.0,0.0,4.4983,0.0,4.6965,4.7799,4.7373,4.7758,4.8127,4.8256,4.8068,4.8332,4.9356,4.9991,5.0292,4.999,5.0493,5.1196,5.19,5.1698,5.1967,5.3315,5.1832,5.0755,5.1121,5.2033,5.2573,5.2606,5.3079,5.3518,5.3518,5.3518,5.3518,5.3518,5.3518,5.3518,5.3518,5.3518,5.3518,5.3518,5.3518,5.3518,5.3518,5.3518,5.3518,5.3416,5.3041,5.2627,5.2627,5.217,5.1954,5.6731,5.6122,5.6055,5.5953,5.5683,5.3721,5.3179,5.3585,5.2807,5.2401,5.2232,5.0947,4.9965,4.9289,4.9289,4.9627,5.0236,5.0338,5.0744,5.1352,5.1454,5.1894,5.257,5.2604,5.301,5.3754,5.3078,5.2739,5.2706,5.2097,5.1792,5.1761,5.2335,5.2606,5.2438,5.2096,5.1891,5.1791,5.2566,5.3177,5.3551,5.3484,5.328,5.2903,5.3041,5.3041,5.2661,5.2198,5.1932,5.1932,5.1329,5.0995,5.0995,5.076,5.0326,0.0,4.946,0.0,0.0,0.0,0.0,0.0,0.0,0.0,0.0,4.7546,4.7847,4.8614,4.9413,4.9678,4.9016,4.8983,4.9349,5.0247,5.0349,5.0683,5.1389,5.2063,5.2469,5.2435,5.3078,5.3518,5.345,5.3518,5.3518,5.3518,5.3349,5.3146,5.3382,5.3382,5.3382,5.3518,5.3518,5.3518,5.3518,5.3518,5.3518,5.3518,5.3518,5.3551,5.3687,5.3687,5.3721,5.3822,5.389,5.3856,5.3788,5.3754,5.3653,5.3687,5.3551,5.345,5.3416,5.3348,5.3551,5.8524,5.8355,5.7746,5.7137,5.6562,5.6122,5.5344,5.4329,5.3585,5.2909,5.23,5.1995,5.1488,5.0811,5.0811,5.0879,5.1048,5.1623,5.1961,5.2131,5.2773,5.345,5.4126,5.4126,5.4566,5.5243,5.5141,5.5074,5.5074,5.4938,5.4801,5.4628,5.4763,5.476,5.4548,0.0,0.0,0.0,5.3276,5.3481,5.4123,5.3446,5.2972,5.2903,5.2903,0.0,5.2834,5.2769,5.2702,5.2702,5.2568,0.0,0.0,0.0,0.0,0.0,0.0,0.0,0.0,0.0,0.0,0.0,4.999,4.9387,4.8383,4.8283,4.8647,4.9513,4.9779,5.0349,5.1524,5.1592,5.193,5.2673,5.2808,5.2942,5.3078,5.3179,5.3281,5.3281,5.3416,5.3518,5.3518,5.3518,5.3518,5.3518,5.3518,5.3518,5.3518,5.3518,5.3518,5.3518,5.3585,5.3551,5.3518,5.3585,5.3653,5.3518,5.3518,5.3754,5.4262,5.4363,5.4634,5.5108,5.531,5.5277,5.5243,5.4803,5.4363,5.4397,5.3923,5.3518,5.3518,5.3518,5.3687,6.0486,0.0,5.9302,5.8558,0.0,5.7509,5.6697,5.5615,5.4905,5.4363,5.3957,5.3585,5.3416,5.3416,5.3044,5.3078,5.345,5.345,5.3653,5.3991,5.4397,5.4803,5.5141,5.5141,5.5344,5.5716,5.5716,5.5716,5.5716,5.5716,5.5646,5.5542,5.5576,5.5673,5.5938,5.6203,5.5761,5.4544,5.4246,5.4387,5.4968,5.4561,5.4018,5.3472,0.0,0.0,0.0,0.0,0.0,0.0,0.0,0.0,0.0,0.0,0.0,5.2471,5.2067,5.1832,5.19,5.19,5.1967,5.2068,5.2068,5.1597,5.0387,5.0722,5.1191,5.1594,5.1661,5.2031,5.2807,5.2909,5.3078,5.345,5.3518,5.3518,5.3518,5.3518,5.3518,5.3518,5.3518,5.3518,5.3518,5.3518,5.3518,5.3518,5.3822,5.4025,5.3991,5.3721,5.3619,5.3991,5.4397,5.46,5.46,5.46,5.4566,5.4566,5.4296,5.4363,5.5006,5.4837,5.4837,5.5513,5.5716,5.5716,5.5683,5.5378,5.504,5.4702,5.46,5.4431,5.416,5.3754,5.3585,6.2279,6.1467,6.0926,6.0114,5.9167,5.8693,5.8051,5.7306,0.0,0.0,0.0,5.5074,5.5108,5.5649,5.5074,5.5141,5.5649,5.5209,5.5243,5.5716,5.5852,5.5987,5.6089,5.6122,5.6258,5.6494,5.6494,5.6494,5.6494,5.6494,5.6494,5.6494,5.6494,5.6799,5.7374,5.7983,5.7533,5.6063,5.5688,5.5698,5.6018,5.6052,5.5471,5.4209,5.4451,5.4112,5.3094,5.3202,5.3305,5.3305,5.3271,5.3238,5.3174,5.3308,5.3241,5.3006,5.3107,5.3176,5.328,5.3247,5.3348,5.3518,5.3518,5.318,5.2371,5.3045,5.3518,5.3518,5.3518,5.3518,5.3518,5.3518,5.3518,5.3518,5.3518,5.3518,5.3518,5.3518,5.3518,5.3518,5.3518,5.3518,5.3518,5.3653,5.3687,5.3788,5.4329,5.4803,5.4735,5.4363,5.4194,5.4735,5.5209,5.5649,5.5683,5.5615,5.5716,5.5581,5.5141,5.5108,5.5615,5.5412,5.531,5.6089,5.6122,5.6156,5.6122,5.6021,5.5716,5.5108,5.5344,5.5547,5.4905,5.4329,5.3991,6.3497,6.2279,6.2821,6.1839,5.9979,6.0588,6.0351,5.9438,5.6867,5.5716,5.5716,5.5615,5.5615,5.5716,5.5615,5.5615,5.575,5.6258,5.6224,0.0,5.6359,5.6968,5.7577,5.7577,5.8254,5.9404,5.9471,5.9471,5.9471,5.9438,5.9505,5.9438,5.9505,5.9505,5.9641,5.9742,5.9674,5.9396,5.7999,5.7285,5.7358,5.7245,5.6426,5.5046,5.5621,5.5548,5.4812,5.4778,5.4778,5.4778,5.4778,5.4582,5.4152,5.4727,5.4525,5.3585,5.4024,5.4092,5.3484,5.3416,5.3484,5.3518,5.3518,5.345,5.3348,5.3416,5.3518,5.3518,5.3518,5.3518,5.3518,5.3518,5.3518,5.3518,5.3518,5.3518,5.3518,5.3551,5.3551,5.3585,5.3518,5.3551,5.3687,5.4093,5.4431,5.4532,5.5074,5.5547,5.5615,5.548,5.5446,5.5547,5.5649,5.5716,5.5886,5.575,5.5852,5.5716,5.5683,5.5784,5.6528,5.6461,5.6596,5.7408,5.7408,5.7442,5.7476,5.707,5.663,5.6359,5.6122,5.5784,5.5615,5.5412,5.5378,6.5155,6.4208,6.414,6.3294,6.1941,6.1501,6.0858,6.0013,5.8693,5.8084,5.8051,5.7679,5.7509,5.7509,5.7509,5.7509,5.7543,5.7848,5.8051,5.8118,5.8457,5.8761,5.9066,5.9099,5.9438,6.008,6.008,6.008,6.008,6.008,6.008,6.0114,6.052,6.096,6.1332,6.1738,6.2144,6.2482,6.0173,5.895,5.895,5.8875,5.8369,5.7217,5.752,5.715,5.6039,5.5972,5.5804,5.5434,5.54,5.5336,5.5103,5.5373,5.5342,5.4769,5.5006,5.4871,5.416,5.3721,5.3687,5.4059,5.3721,5.3687,5.4059,5.3721,5.3518,5.3518,5.3518,5.3518,5.3518,5.3518,5.3518,5.3518,5.3518,5.3518,5.3551,5.389,5.4093,5.4126,5.4465,5.4702,5.4702,5.5006,5.5209,5.5277,5.5852,5.6393,5.6799,5.6867,5.6731,5.6427,5.663,5.6867,5.6867,5.69,5.69,5.69,5.6562,5.663,5.7171,5.7137,5.7137,5.7712,5.7881,5.7881,5.7881,5.7645,5.7273,5.6867,5.6968,5.6765,5.6461,5.6292,5.6292,6.6508,6.5628,6.5087,6.4444,6.3666,6.255,6.1704,6.1129,6.1129,6.1095,6.096,5.9844,5.937,5.9539,5.9539,5.9607,5.9776,5.9945,6.025,6.0588,6.0791,6.0858,6.0892,6.0858,6.096,6.1095,6.1129,6.1129,6.1129,6.1129,6.1129,6.1197,6.1738,6.2313,6.2888,6.3463,6.4038,6.441,6.2279,6.1028,6.0892,6.1028,6.0622,5.9607,5.9674,5.9066,5.7679,5.7408,5.7036,5.6494,5.6292,5.6122,5.5987,5.6122,5.6055,5.5784,5.5886,5.5615,5.4905,5.4329,5.4262,5.4769,5.4329,5.4262,5.4702,5.4329,5.3856,5.3585,5.3518,5.3551,5.3754,5.3754,5.3822,5.3957,5.4025,5.4059,5.4093,5.4532,5.4837,5.4905,5.5378,5.5683,5.575,5.5852,5.6055,5.6292,5.6697,5.7273,5.7746,5.7881,5.7645,5.734,5.7543,5.778,5.7881,5.7814,5.7814,5.7881,5.7408,5.734,5.7611,5.7374,5.7273,5.778,5.7881,5.7881,5.7881,5.7848,5.7645,5.7239,5.7442,5.7611,5.7171,5.7036,5.6934,6.6981,6.5764,6.5696,6.5155,6.4512,6.4343,6.4174,6.4072,6.4174,6.4208,6.3768,6.1231,6.0486,6.1028,6.1095,6.1434,6.2042,6.2787,6.2719,6.2279,6.2888,6.3193,6.3125,6.3159,6.3531,6.4005,6.4038,6.3903,6.3903,6.4005,6.4106,6.4208,6.4275,6.4275,6.441,6.4478,6.458,6.4613,6.4343,6.3869,6.326,6.3869,6.3193,6.1163,6.1738,6.1366,5.981,5.9167,5.8795,5.866,5.8017,5.7374,5.6867,5.7306,5.7103,5.5919,5.6325,5.6359,5.5716,5.5547,5.548,5.5581,5.5513,5.548,5.5615,5.5547,5.4905,5.3957,5.3551,5.389,5.4397,5.4499,5.4735,5.5243,5.5344,5.5513,5.5446,5.5581,5.5615,5.5615,5.5784,5.5716,5.5919,5.6359,5.6968,5.7509,5.7679,5.7881,5.8084,5.8118,5.8118,5.7881,5.7915,5.7915,5.7915,5.7881,5.7881,5.7881,5.7848,5.778,5.7814,5.7814,5.7848,5.778,5.7881,5.7881,5.7881,5.7881,5.7848,5.7712,5.7746,5.7848,5.778,5.7712,5.7509,6.8639,6.7726,6.7692,6.7015,6.5933,6.5425,6.4986,6.4613,6.4613,6.4613,6.4546,6.3734,6.3125,6.2651,6.3057,6.3193,6.3125,6.3802,6.4005,6.3734,6.4005,6.414,6.4174,6.4174,6.4309,6.458,6.4613,6.4613,6.4613,6.4613,6.4613,6.4613,6.4613,6.5019,6.5831,6.5899,6.6339,6.7218,6.7252,6.7117,6.6677,6.5358,6.4174,6.3396,6.3531,6.299,6.1603,6.1163,6.0588,5.9708,5.8964,5.8423,5.8118,5.7983,5.7611,5.7036,5.6867,5.6664,5.6359,5.5953,5.5919,5.6325,5.5953,5.5886,5.6292,5.5987,5.5446,5.4972,5.4837,5.4972,5.5209,5.5277,5.5378,5.5649,5.5716,5.575,5.5716,5.6122,5.6359,5.6393,5.6731,5.6968,5.7036,5.7239,5.7746,5.8389,5.8558,5.866,5.9066,5.9201,5.9201,5.9201,5.9201,5.8761,5.8186,5.7881,5.7915,5.7881,5.7881,5.7881,5.7915,5.7881,5.7881,5.7881,5.7881,5.7881,5.7881,5.7881,5.7881,5.7881,5.7881,5.7881,5.7881,5.7881,5.7712,6.9755,6.9233,6.939,6.891,6.789,6.7422,6.6838,6.6357,6.6073,6.6176,6.6701,6.7044,6.6701,6.5901,6.5481,6.5019,6.4816,6.5256,6.5392,6.5256,6.5425,6.5392,6.5256,6.5425,6.5493,6.5493,6.5561,6.5527,6.5459,6.529,6.5392,6.573,6.5595,6.6136,6.7286,6.7455,6.7963,6.8944,6.9079,6.9079,6.8774,6.6948,6.5628,6.5256,6.5019,6.4309,6.3057,6.2618,6.1907,6.0791,5.9844,5.9302,5.9302,5.8795,5.849,5.8423,5.7814,5.7408,5.7408,5.6731,5.6528,5.7002,5.6596,5.6528,5.6867,5.663,5.6325,5.6325,5.6292,5.6258,5.6021,5.6021,5.6089,5.6258,5.6325,5.6325,5.6393,5.6833,5.7103,5.7137,5.7476,5.7983,5.8152,5.822,5.849,5.9133,5.9336,5.9438,5.9945,6.0047,6.0047,6.008,6.008,5.9674,5.8693,5.8626,5.849,5.849,5.8592,5.8558,5.8287,5.8186,5.7983,5.8051,5.7949,5.7881,5.7881,5.7881,5.7881,5.7881,5.7881,5.7881,5.7881,5.7881,5.7881,6.9755,6.932,7.0127,7.0644,7.0733,7.059,7.0554,7.0197,6.967,7.0236,7.1188,7.0872,7.1016,7.1149,6.8257,6.7133,6.759,6.7624,6.7286,6.6812,6.7387,6.7354,6.6812,6.7421,6.7692,6.7557,6.7557,6.759,6.7624,6.7049,6.7455,6.8707,6.7996,6.8098,6.8808,6.891,6.9011,6.9248,6.9248,6.918,6.9147,6.8977,6.8098,6.688,6.6034,6.5324,6.4478,6.3159,6.2381,6.2279,6.0926,6.0114,6.008,5.9979,5.9877,5.9844,5.9268,5.8896,5.8795,5.8186,5.7848,5.7848,5.7848,5.7814,5.7915,5.7848,5.7814,5.7814,5.778,5.7543,5.7002,5.6833,5.7002,5.7543,5.7679,5.7679,5.7712,5.7712,5.7814,5.7848,5.7983,5.8287,5.8863,5.8964,5.9302,5.9844,6.008,6.0148,6.0283,6.025,6.0283,6.0283,6.0283,6.0114,6.0013,5.9674,5.9742,5.9708,5.9471,5.9641,5.9268,5.8896,5.8524,5.822,5.8118,5.8051,5.7915,5.7881,5.7881,5.7881,5.7881,5.7881,5.7881,5.7915,5.8017,7.2694,7.238,7.2283,7.2352,7.233,7.1905,7.1657,7.1621,7.1373,7.155,7.2046,7.2295,7.2543,7.2717,7.1511,7.0461,6.9598,6.8948,6.8504,6.8301,6.8571,6.8538,6.8335,6.8571,6.8673,6.8673,6.8673,6.8673,6.8639,6.8402,6.8538,6.8944,6.8842,6.9045,6.9654,6.9789,7.0026,7.0466,7.05,7.05,7.0432,7.006,6.9519,6.8944,6.776,6.6745,6.6034,6.5019,6.4309,6.3835,6.2821,6.2076,6.1535,6.0622,6.008,6.008,5.9844,5.9708,5.9674,5.9471,5.9302,5.9302,5.9302,5.9235,5.9302,5.9302,5.9302,5.9268,5.9302,5.9133,5.8829,5.8084,5.7577,5.7814,5.7881,5.7949,5.7983,5.8287,5.8626,5.866,5.8964,5.9268,5.9167,5.9404,6.0013,6.0689,6.0858,6.1061,6.1467,6.1569,6.1467,6.1535,6.1569,6.1569,6.1569,6.0622,6.008,6.008,6.0013,5.9979,5.9742,5.9708,5.9471,5.8863,5.8626,5.8457,5.8423,5.822,5.8152,5.8118,5.8084,5.822,5.7881,5.8321,5.8558,7.446,7.4686,7.426,7.4119,7.4044,7.3647,7.3395,7.336,7.3144,7.3324,7.379,7.4077,7.4223,7.4474,7.419,7.347,7.2226,7.103,7.0285,7.0079,7.0285,7.0153,6.968,6.9851,6.9987,6.9987,6.9987,6.985,6.9383,6.9214,6.935,6.9823,6.962,6.9823,7.0432,7.0534,7.0838,7.1244,7.1312,7.1312,7.1244,7.0838,7.0534,7.0364,6.9316,6.8301,6.7557,6.6576,6.5865,6.5256,6.441,6.3632,6.3057,6.1907,6.1197,6.1197,6.0757,6.0486,6.0452,6.025,6.008,6.008,6.008,6.008,6.008,6.008,6.008,6.008,6.008,6.008,5.9911,5.9167,5.8592,5.8592,5.8592,5.8592,5.8626,5.9066,5.9336,5.9404,5.9708,5.9877,5.9877,6.0216,6.0825,6.1535,6.167,6.1907,6.2279,6.2415,6.2415,6.2415,6.2313,6.2245,6.2178,6.1467,6.1129,6.1061,6.0926,6.0757,6.0486,6.0486,6.0216,5.9641,5.9235,5.9066,5.8863,5.866,5.8558,5.8558,5.8795,5.9032,5.8964,5.9066,5.9268,7.4903,7.5718,7.5787,7.5858,7.5958,7.5848,7.6032,7.5764,7.5178,7.5592,7.6481,7.6338,7.6324,7.6773,7.6052,7.5715,7.5186,7.3867,7.2749,7.2105,7.2635,7.2142,7.0902,7.1411,7.1688,7.1688,7.1688,7.1179,7.0304,6.9742,6.9958,7.0872,7.0466,7.0534,7.1278,7.121,7.1244,7.1312,7.1312,7.1312,7.1312,7.1244,7.121,7.1176,7.05,6.9789,6.9113,6.7692,6.6914,6.6711,6.5493,6.4681,6.4478,6.3734,6.3396,6.3057,6.211,6.14,6.1231,6.0655,6.0351,6.0351,6.0216,6.0351,6.0419,6.0351,6.0351,6.0385,6.0351,6.025,6.0283,6.0182,6.0047,6.0047,5.9844,5.9844,5.9945,6.0047,6.0114,6.0148,6.0283,6.0486,6.1028,6.1264,6.1569,6.2042,6.2245,6.2279,6.2381,6.2415,6.2415,6.2415,6.2415,6.2415,6.2415,6.2381,6.2347,6.2279,6.2076,6.1873,6.1434,6.1264,6.0926,6.0385,5.9844,5.9641,5.9573,5.9404,5.9539,5.9573,5.9776,5.9776,5.9708,5.9742,6.0013,7.6563,7.6793,7.6856,7.6873,7.6937,7.6937,7.6937,7.69,7.6644,7.6864,7.7231,7.7047,7.7084,7.7206,7.6956,7.6793,7.6756,7.6207,7.5145,7.386,7.3889,7.3739,7.3294,7.3393,7.3533,7.3378,7.2777,7.2285,7.1866,7.1076,7.0939,7.1176,7.1075,7.1075,7.1278,7.1312,7.1312,7.1312,7.1312,7.1312,7.1312,7.1312,7.1312,7.1278,7.1075,7.0838,7.0567,6.918,6.8402,6.8335,6.7421,6.6406,6.5459,6.4647,6.4038,6.3565,6.3125,6.255,6.211,6.1839,6.1637,6.167,6.1637,6.167,6.167,6.167,6.167,6.167,6.167,6.167,6.167,6.167,6.1298,6.0216,6.008,6.0182,6.0283,6.0622,6.0892,6.0994,6.1366,6.1569,6.1467,6.167,6.211,6.2313,6.2415,6.2415,6.2415,6.2415,6.2415,6.2415,6.2415,6.2584,6.2753,6.2821,6.2753,6.2618,6.2482,6.2381,6.2042,6.1839,6.1501,6.1163,6.0622,6.0351,6.0283,6.0283,6.0385,6.0283,6.0216,6.0182,6.0182,6.0419,6.0757,7.7341,7.7341,7.7341,7.7341,7.7341,7.7341,7.7341,7.7341,7.7341,7.7341,7.7304,7.7304,7.7341,7.7341,7.7341,7.7341,7.7341,7.7341,7.6664,7.558,7.544,7.5227,7.4903,7.483,7.461,7.431,7.4005,7.3694,7.3332,7.2749,7.2448,7.2448,7.2448,7.2228,7.1917,7.183,7.183,7.183,7.1917,7.183,7.183,7.183,7.1688,7.1401,7.1312,7.1312,7.1244,7.0364,6.9789,6.9451,6.8774,6.776,6.6609,6.5831,6.5087,6.4444,6.4005,6.3565,6.2922,6.2787,6.2651,6.2516,6.2651,6.2787,6.2854,6.299,6.3125,6.2854,6.3057,6.3125,6.2888,6.3091,6.2618,6.1535,6.1163,6.096,6.1028,6.14,6.1839,6.2076,6.2279,6.2245,6.2313,6.211,6.2415,6.2415,6.2415,6.2415,6.2415,6.2415,6.2516,6.2685,6.2888,6.3091,6.326,6.3226,6.3159,6.2888,6.2618,6.2482,6.2245,6.2212,6.2009,6.1839,6.1434,6.14,6.1332,6.1231,6.1264,6.0994,6.0825,6.1129,6.1332,6.14,6.167,7.7341,7.7341,7.7341,7.7341,7.7341,7.7341,7.7341,7.7341,7.7341,7.7341,7.7341,7.7341,7.7341,7.7341,7.7451,7.7524,7.7414,7.7671,7.7646,7.7448,7.7348,7.6919,7.5995,7.5891,7.551,7.4903,7.5299,7.512,7.4385,7.4082,7.431,7.404,7.3963,7.3807,7.3044,7.288,7.288,7.288,7.288,7.288,7.288,7.288,7.2414,7.1512,7.16,7.16,7.1512,7.1518,7.1124,7.0284,6.9451,6.8741,6.7996,6.7286,6.6609,6.5764,6.5087,6.4377,6.3802,6.3565,6.3328,6.2854,6.326,6.3565,6.3632,6.4005,6.4106,6.3666,6.4072,6.4208,6.3835,6.4038,6.4038,6.3565,6.2719,6.2415,6.2482,6.255,6.2854,6.3226,6.299,6.2753,6.3396,6.3024,6.2787,6.2719,6.2753,6.2821,6.2821,6.299,6.299,6.3226,6.3531,6.37,6.3869,6.3903,6.3802,6.3632,6.3226,6.2922,6.255,6.2415,6.2381,6.2245,6.2178,6.2245,6.2212,6.1975,6.1941,6.1839,6.1975,6.2347,6.2313,6.2178,6.2347,7.7341,7.7341,7.7341,7.7341,7.7341,7.7341,7.7341,7.7341,7.7341,7.7451,7.7378,7.7341,7.7414,7.7414,7.8002,7.8259,7.8369,7.8809,7.914,7.914,7.914,7.8306,7.7139,7.6893,7.6765,7.6469,7.6099,7.5649,7.5369,7.4828,7.4421,7.4345,7.4496,7.427,7.3928,7.3998,7.3963,7.3928,7.3963,7.3998,7.3998,7.3963,7.3412,7.2582,7.3044,7.3044,7.2582,7.3125,7.2403,7.0405,7.0026,6.9553,6.8876,6.8538,6.7895,6.6779,6.6305,6.5628,6.4613,6.439,6.4288,6.4072,6.422,6.4309,6.4309,6.4478,6.4512,6.4343,6.4546,6.458,6.441,6.4512,6.4478,6.4309,6.3734,6.3463,6.3802,6.4038,6.414,6.4241,6.4106,6.4106,6.4174,6.4106,6.3903,6.3903,6.3869,6.3869,6.3734,6.3768,6.3869,6.4072,6.4343,6.441,6.4478,6.4512,6.4478,6.4377,6.4005,6.3565,6.3024,6.2482,6.2448,6.2347,6.2313,6.2313,6.2347,6.2245,6.2381,6.2415,6.2415,6.2415,6.2415,6.2347,6.2753,7.8038,7.8332,7.8002,7.7855,7.7855,7.7855,7.7855,7.7928,7.8222,7.8369,7.8332,7.8332,7.8369,7.8442,7.8883,7.9066,7.9176,7.958,7.9764,7.9764,7.9727,7.9213,7.8479,7.8112,7.7855,7.7793,7.7239,7.6825,7.6475,7.6148,7.594,7.5721,7.5616,7.5513,7.5512,7.5476,7.5581,7.594,7.5976,7.5976,7.5976,7.5619,7.4882,7.4194,7.4252,7.3928,7.3571,7.4005,7.3326,7.1694,7.1234,7.0754,6.9742,6.9553,6.8977,6.7827,6.7842,6.7386,6.6474,6.6161,6.586,6.5412,6.5436,6.5391,6.5284,6.529,6.5493,6.5121,6.5324,6.5358,6.5121,6.5053,6.5222,6.5425,6.4884,6.4512,6.4613,6.4546,6.4749,6.4884,6.4816,6.4749,6.4952,6.4816,6.4647,6.458,6.4444,6.4478,6.4478,6.4647,6.4783,6.4986,6.5155,6.5222,6.5459,6.5561,6.529,6.5155,6.4783,6.4309,6.3599,6.2888,6.2651,6.2584,6.2482,6.2415,6.2415,6.2415,6.2415,6.2415,6.2415,6.2584,6.2719,6.2854,6.3226,7.914,7.9727,7.9029,7.8736,7.8699,7.8736,7.8699,7.8846,7.936,7.9653,7.9617,7.9727,7.9543,7.98,7.9764,7.991,7.9947,8.0388,8.0388,8.0498,8.0461,8.0277,7.9984,7.9066,7.8736,7.8662,7.8662,7.8196,7.7778,7.8244,7.816,7.7641,7.7521,7.745,7.7289,7.733,7.7728,7.802,7.8056,7.8056,7.7948,7.7514,7.6733,7.5609,7.4855,7.4793,7.4684,7.4793,7.4199,7.3171,7.3009,7.2168,7.0874,7.0667,7.0345,6.9833,6.982,6.9524,6.8844,6.8779,6.8398,6.7387,6.7551,6.723,6.686,6.6991,6.6792,6.6102,6.6508,6.6305,6.5933,6.5797,6.6034,6.6339,6.6034,6.5527,6.5019,6.4816,6.5087,6.5662,6.5189,6.5256,6.5392,6.529,6.4884,6.5425,6.5324,6.5358,6.5358,6.5392,6.5561,6.5764,6.5933,6.6068,6.6373,6.6643,6.6271,6.5933,6.5527,6.5019,6.4309,6.3666,6.3159,6.2854,6.2651,6.2482,6.2415,6.2415,6.2516,6.2753,6.299,6.3226,6.3429,6.3565,6.3835,7.9653,7.9764,7.9617,7.9507,7.9543,7.9543,7.9543,7.9617,7.9764,8.0057,7.9837,7.9837,7.9874,7.991,8.0571,8.0755,8.1048,8.1893,8.2627,8.2627,8.2627,8.2223,8.1489,8.0241,7.958,7.9433,7.8883,7.8846,7.9066,7.8846,7.8846,7.9176,7.9029,7.9223,7.9141,7.9048,7.9251,7.9434,7.9507,7.9515,7.9515,7.9194,7.8353,7.691,7.6013,7.5963,7.6498,7.6664,7.6197,7.5263,7.4425,7.3822,7.3291,7.3177,7.2827,7.231,7.2226,7.196,7.1473,7.123,7.1231,7.0625,7.0479,7.0599,6.9589,6.9095,6.8473,6.7622,6.7083,6.6964,6.6711,6.6609,6.6677,6.6812,6.6711,6.6508,6.6373,6.6271,6.6339,6.6406,6.6373,6.6373,6.6508,6.6373,6.6203,6.6305,6.6271,6.6305,6.6237,6.6136,6.6203,6.6339,6.6373,6.6474,6.6576,6.6812,6.6643,6.6406,6.6102,6.5831,6.5121,6.4343,6.3802,6.326,6.2753,6.2618,6.2584,6.2922,6.3159,6.3396,6.3666,6.3971,6.4208,6.4309,6.458,8.0571,8.0865,8.0534,8.0571,8.0865,8.0901,8.1122,8.1525,8.1929,8.1819,8.1525,8.1489,8.1489,8.1525,8.1929,8.2296,8.2663,8.3104,8.3398,8.3251,8.303,8.259,8.226,8.1379,8.0755,8.0388,7.9984,7.9874,7.9727,7.9764,7.98,7.9764,7.9837,7.9984,8.0314,8.0351,8.0608,8.0901,8.0938,8.0938,8.0901,8.0498,7.9819,7.8559,7.7873,7.7879,7.784,7.7866,7.7385,7.6607,7.5959,7.5227,7.446,7.4345,7.4062,7.3854,7.3797,7.369,7.3332,7.332,7.3168,7.283,7.276,7.2227,7.1528,7.0874,7.0271,6.9404,6.8788,6.8466,6.7946,6.7455,6.7387,6.732,6.732,6.7184,6.6914,6.6812,6.6812,6.6812,6.6745,6.6745,6.6812,6.6812,6.6779,6.6542,6.6542,6.6576,6.6609,6.6542,6.6609,6.6677,6.6745,6.6779,6.6779,6.6812,6.6812,6.6711,6.6576,6.644,6.6102,6.5256,6.441,6.3802,6.3193,6.2922,6.2922,6.3328,6.3768,6.4038,6.4309,6.4715,6.4986,6.5087,6.5459,8.1782,8.2333,8.1782,8.1893,8.237,8.2517,8.281,8.3398,8.4242,8.3875,8.3691,8.3618,8.3361,8.3544,8.3471,8.4022,8.4389,8.4168,8.4058,8.3985,8.3544,8.3141,8.281,8.259,8.2296,8.1562,8.1012,8.0608,8.0534,8.0645,8.0608,8.0277,8.0204,8.0681,8.1085,8.1195,8.1415,8.1856,8.215,8.226,8.2223,8.1709,8.0947,8.003,7.949,7.916,7.8883,7.8699,7.8479,7.7745,7.7598,7.6548,7.5442,7.4793,7.4757,7.4795,7.5073,7.5092,7.508,7.5134,7.4895,7.4102,7.4138,7.3672,7.3048,7.2547,7.1964,7.1287,7.0714,7.0337,6.9594,6.9213,6.8788,6.8671,6.8588,6.8232,6.7789,6.7501,6.752,6.6812,6.6812,6.6812,6.6812,6.6812,6.6812,6.6846,6.6846,6.688,6.6914,6.7015,6.7117,6.7151,6.7218,6.6948,6.688,6.6812,6.6812,6.6812,6.6812,6.6779,6.6643,6.5831,6.4918,6.4241,6.3734,6.3497,6.3565,6.4072,6.4444,6.4681,6.5087,6.5561,6.5764,6.5831,6.6237,8.3104,8.3251,8.3801,8.3728,8.3361,8.3911,8.3911,8.3581,8.4425,8.4535,8.4425,8.4389,8.4389,8.4425,8.4389,8.4866,8.538,8.5233,8.5196,8.5196,8.4866,8.4535,8.3985,8.3875,8.3875,8.3471,8.237,8.1489,8.1525,8.1305,8.1305,8.1636,8.1746,8.1893,8.1929,8.2003,8.2186,8.2553,8.2957,8.3177,8.3141,8.2884,8.2223,8.1012,8.0388,7.991,7.969,7.958,7.9507,7.9323,7.8736,7.8217,7.764,7.7036,7.6672,7.6526,7.6546,7.6527,7.6554,7.6716,7.6803,7.6716,7.6408,7.6053,7.5241,7.4572,7.3832,7.2935,7.2211,7.1709,7.1638,7.1189,7.1347,7.1312,7.1125,7.102,7.0804,7.0201,6.906,6.792,6.735,6.6914,6.7049,6.7151,6.7218,6.7286,6.732,6.732,6.732,6.7523,6.776,6.776,6.776,6.732,6.6948,6.688,6.6812,6.6812,6.6812,6.6812,6.6576,6.6068,6.5425,6.5019,6.458,6.4275,6.4478,6.4816,6.5155,6.5425,6.5933,6.6406,6.6542,6.6609,6.6745,8.4022,8.4058,8.4462,8.4646,8.4719,8.5013,8.527,8.5343,8.5673,8.56,8.5306,8.5233,8.5196,8.5233,8.5233,8.5673,8.6151,8.593,8.582,8.5747,8.538,8.5013,8.4682,8.4646,8.4609,8.4315,8.3398,8.2737,8.2737,8.2003,8.1929,8.215,8.259,8.2847,8.2957,8.3251,8.3361,8.3508,8.3801,8.4022,8.3948,8.3728,8.2884,8.2296,8.1452,8.0865,8.0461,8.0424,8.0204,7.98,7.9433,7.925,7.8993,7.8479,7.7781,7.7488,7.7341,7.7341,7.7341,7.7341,7.7206,7.7304,7.7341,7.7118,7.6656,7.6134,7.5515,7.458,7.3328,7.2862,7.3138,7.2971,7.272,7.2684,7.2722,7.2545,7.215,7.1709,7.0721,6.9496,6.8905,6.8336,6.7557,6.7624,6.7726,6.776,6.7793,6.7879,6.7879,6.8166,6.8504,6.8436,6.8368,6.7929,6.7421,6.7117,6.7015,6.6981,6.6846,6.6846,6.6779,6.6406,6.6305,6.6136,6.5696,6.5155,6.5121,6.5392,6.5797,6.617,6.6474,6.6812,6.7184,6.7387,6.7523,8.4829,8.4866,8.5013,8.538,8.5783,8.5967,8.6261,8.6738,8.6885,8.6591,8.6077,8.604,8.604,8.604,8.6114,8.6371,8.6958,8.6297,8.6114,8.6004,8.56,8.5159,8.5123,8.5086,8.5233,8.5343,8.4792,8.4425,8.3691,8.3067,8.2774,8.2994,8.3471,8.3654,8.3765,8.4095,8.4535,8.4646,8.4829,8.4829,8.4682,8.4242,8.3765,8.3654,8.303,8.2406,8.2003,8.1672,8.1342,8.0791,8.0314,8.0021,7.991,7.9286,7.8552,7.7928,7.7561,7.7341,7.7341,7.7341,7.7341,7.7341,7.7341,7.7279,7.7243,7.7045,7.6783,7.5985,7.5112,7.4369,7.4798,7.444,7.419,7.419,7.4154,7.3869,7.3689,7.3404,7.3226,7.2056,7.0949,7.0127,6.9589,6.8925,6.9076,6.9111,6.9193,6.8913,6.9016,6.9098,6.9248,6.918,6.8977,6.8571,6.8064,6.7523,6.7387,6.732,6.7083,6.6914,6.6948,6.688,6.6964,6.7048,6.6542,6.6068,6.6,6.6083,6.6406,6.6745,6.6914,6.732,6.7895,6.8166,6.8267,8.5673,8.571,8.6407,8.6371,8.5967,8.6554,8.6481,8.6114,8.6738,8.6958,8.6775,8.6848,8.6811,8.6775,8.6811,8.6885,8.6921,8.6885,8.6738,8.6664,8.6554,8.6444,8.6628,8.6738,8.6444,8.6297,8.5857,8.5233,8.4609,8.4315,8.4205,8.4205,8.4242,8.4462,8.4499,8.4829,8.4572,8.4756,8.5343,8.5637,8.56,8.549,8.5013,8.4609,8.4242,8.4022,8.3654,8.3251,8.2884,8.2737,8.1562,8.0975,8.0755,8.0094,7.969,7.9103,7.8295,7.7341,7.7414,7.7341,7.7341,7.7341,7.7341,7.7341,7.7341,7.7341,7.7243,7.7181,7.671,7.6546,7.6526,7.6683,7.671,7.6473,7.617,7.6336,7.6154,7.5055,7.4889,7.4755,7.3574,7.2784,7.2109,7.1287,7.0635,7.0555,7.051,7.036,7.032,7.0549,7.0738,7.072,7.0462,7.005,6.9722,6.8974,6.8583,6.8232,6.7993,6.7721,6.8104,6.8404,6.7842,6.7857,6.7536,6.7516,6.7659,6.7646,6.7403,6.7472,6.7912,6.837,6.8808,6.903,6.9374,8.6481,8.6518,8.6885,8.6811,8.6554,8.6885,8.6811,8.6591,8.6848,8.7031,8.7031,8.7031,8.7031,8.7031,8.7031,8.7031,8.7031,8.7031,8.7031,8.7031,8.7031,8.7031,8.6958,8.6995,8.7031,8.6921,8.6664,8.6444,8.582,8.5049,8.4609,8.4719,8.5086,8.527,8.5453,8.5747,8.593,8.6114,8.6297,8.6481,8.6371,8.604,8.5637,8.527,8.4866,8.4719,8.4572,8.4352,8.4095,8.3985,8.3251,8.281,8.2333,8.1636,8.1012,8.0314,7.8956,7.8148,7.8002,7.7598,7.7378,7.7341,7.7341,7.7341,7.7341,7.7341,7.7341,7.7243,7.7304,7.7341,7.7341,7.7341,7.7341,7.7341,7.7341,7.7341,7.7243,7.7082,7.6482,7.6359,7.6191,7.5205,7.429,7.3509,7.2705,7.2453,7.2437,7.2442,7.2503,7.2862,7.2844,7.2764,7.2345,7.1936,7.1595,7.114,7.0791,7.0461,7.0427,7.0217,7.0287,7.0244,6.9634,6.9827,7.0217,7.0035,6.9584,6.9014,6.8607,6.8777,6.9066,6.9712,7.0408,7.1215,7.1673,8.7031,8.7031,8.7031,8.7031,8.7031,8.7031,8.6995,8.6995,8.6995,8.7031,8.7031,8.7031,8.7031,8.7031,8.7031,8.7031,8.7031,8.7031,8.7031,8.7031,8.7031,8.7031,8.7031,8.7031,8.7031,8.7031,8.6958,8.6848,8.6628,8.6151,8.5637,8.527,8.6187,8.6407,8.6628,8.7142,8.7545,8.7215,8.7252,8.7178,8.6921,8.6407,8.6187,8.593,8.5563,8.5196,8.5196,8.4939,8.4903,8.4866,8.4535,8.4022,8.3581,8.281,8.2223,8.1489,8.0204,7.936,7.8883,7.8259,7.7524,7.7341,7.7341,7.7341,7.7341,7.7341,7.7341,7.7341,7.7341,7.7341,7.7341,7.7341,7.7341,7.7341,7.7341,7.7341,7.7243,7.7181,7.7082,7.6956,7.6856,7.7019,7.6207,7.5574,7.4976,7.4405,7.4367,7.439,7.4385,7.4425,7.4163,7.3828,7.3652,7.3229,7.3058,7.282,7.2613,7.2476,7.244,7.2295,7.2074,7.1858,7.1422,7.1862,7.2476,7.2074,7.1371,7.058,6.9982,7.051,7.1097,7.1559,7.2224,7.3058,7.346,8.7031,8.7031,8.7031,8.7031,8.7031,8.7031,8.7031,8.7031,8.7031,8.7031,8.7031,8.7031,8.7031,8.7031,8.7105,8.7142,8.7068,8.7031,8.7105,8.7105,8.7031,8.7031,8.7031,8.7031,8.7031,8.7031,8.7142,8.7178,8.7215,8.7655,8.7215,8.7068,8.7509,8.7876,8.8133,8.8463,8.8536,8.8243,8.8133,8.7802,8.7399,8.7031,8.6921,8.6921,8.6848,8.6848,8.6811,8.6114,8.571,8.5673,8.527,8.4829,8.4462,8.3911,8.3398,8.259,8.1489,8.0681,8.0131,7.8699,7.7561,7.7341,7.7341,7.7341,7.7341,7.7341,7.7341,7.7341,7.7341,7.7341,7.7341,7.7341,7.7341,7.7341,7.7341,7.7341,7.7341,7.7304,7.7243,7.7243,7.7341,7.7341,7.7304,7.6498,7.633,7.5768,7.522,7.5227,7.5084,7.4976,7.4757,7.4574,7.45,7.4283,7.4248,7.4114,7.4117,7.3936,7.3828,7.3583,7.3367,7.3189,7.3439,7.3511,7.3974,7.3511,7.3257,7.2894,7.271,7.2851,7.3138,7.346,7.3896,7.4512,7.4655,8.7031,8.7031,8.7031,8.7031,8.7031,8.7031,8.7031,8.7031,8.7031,8.7031,8.7031,8.7031,8.7031,8.7142,8.7582,8.7729,8.7729,8.7729,8.7729,8.7545,8.7325,8.7068,8.7031,8.7031,8.7031,8.7142,8.7435,8.7729,8.7876,8.8573,8.8757,8.8683,8.8867,8.8867,8.9124,8.9344,8.9234,8.9087,8.894,8.872,8.8536,8.7949,8.7729,8.7729,8.7142,8.7068,8.6921,8.6701,8.6554,8.6444,8.6151,8.5783,8.538,8.4939,8.4352,8.3581,8.2406,8.1709,8.0901,7.9286,7.7965,7.7378,7.7341,7.7378,7.7524,7.7378,7.7341,7.7341,7.7341,7.7341,7.7341,7.7341,7.7341,7.7341,7.7341,7.7341,7.7341,7.7341,7.7341,7.7341,7.7341,7.7341,7.7341,7.7243,7.7181,7.7045,7.6563,7.6027,7.5891,7.5754,7.5649,7.558,7.558,7.5754,7.5682,7.5638,7.5623,7.5375,7.5128,7.5029,7.4965,7.569,7.5851,7.5726,7.552,7.5381,7.5375,7.5436,7.5133,7.444,7.4654,7.515,7.561,7.5891,7.5823,8.7031,8.7031,8.7031,8.7031,8.7031,8.7031,8.7031,8.7031,8.7031,8.7031,8.7031,8.7215,8.7362,8.7582,8.8169,8.8536,8.8463,8.8316,8.8206,8.7876,8.7435,8.7105,8.7105,8.7252,8.7509,8.7545,8.8096,8.8573,8.861,8.9381,8.9638,8.9784,9.0005,9.0041,8.9821,9.0005,9.0005,8.9821,8.9748,8.9564,8.9344,8.8867,8.8573,8.8426,8.7839,8.7472,8.7362,8.7142,8.6921,8.6921,8.6848,8.6664,8.6261,8.5783,8.5196,8.4278,8.3361,8.2553,8.1525,8.0021,7.8772,7.8369,7.8222,7.8185,7.8038,7.7855,7.7818,7.7745,7.7561,7.7341,7.7341,7.7341,7.7341,7.7341,7.7341,7.7341,7.7341,7.7341,7.7341,7.7341,7.7341,7.7341,7.7341,7.7341,7.7341,7.7341,7.7019,7.6728,7.6728,7.6728,7.6793,7.6793,7.6856,7.7019,7.7181,7.6773,7.6373,7.6473,7.6327,7.6601,7.681,7.7341,7.7341,7.671,7.6674,7.7144,7.6972,7.6428,7.601,7.5508,7.5923,7.6323,7.649,7.6664,7.6856,8.7031,8.7031,8.7031,8.7031,8.7031,8.7031,8.7031,8.7031,8.7031,8.7068,8.7215,8.7729,8.8096,8.8316,8.894,8.9234,8.9271,8.8757,8.8426,8.8243,8.7839,8.7288,8.7399,8.7729,8.8206,8.839,8.894,8.9381,8.9417,9.0188,9.0519,9.0739,9.0996,9.1143,9.0702,9.1326,9.1289,9.0702,9.0592,9.0225,8.9821,8.9564,8.9417,8.9197,8.8426,8.7949,8.7839,8.7288,8.7068,8.7031,8.7031,8.6921,8.6811,8.6224,8.5783,8.5453,8.4829,8.4095,8.3214,8.1048,7.991,7.9433,7.9176,7.9286,7.9396,7.9066,7.8442,7.8295,7.7892,7.7488,7.7378,7.7341,7.7341,7.7341,7.7341,7.7341,7.7341,7.7341,7.7341,7.7341,7.7341,7.7341,7.7341,7.7341,7.7341,7.7341,7.7341,7.7341,7.7341,7.7341,7.7341,7.7341,7.7341,7.7341,7.7341,7.7341,7.7206,7.7341,7.7341,7.7341,7.7341,7.7341,7.7341,7.7341,7.7341,7.7341,7.7341,7.7206,7.6728,7.6366,7.6728,7.7082,7.7243,7.7341,7.7341,8.7031,8.7031,8.7031,8.7031,8.7031,8.7031,8.7031,8.7031,8.7068,8.7288,8.7655,8.7655,8.8133,8.8793,8.9344,8.9784,9.0078,9.0078,8.9674,8.8977,8.861,8.8243,8.8206,8.8536,8.8977,8.9234,8.9748,9.0188,9.0225,9.0922,9.1289,9.151,9.1583,9.162,9.1473,9.173,9.1583,9.1436,9.14,9.1253,9.0922,9.0482,9.0188,9.0115,8.8977,8.8316,8.8206,8.7509,8.7068,8.7031,8.7031,8.7031,8.7031,8.6554,8.6334,8.5967,8.538,8.4756,8.3618,8.2003,8.0865,8.0277,7.9947,7.9947,7.9727,7.958,7.9176,7.8736,7.8369,7.7892,7.7488,7.7341,7.7341,7.7341,7.7341,7.7341,7.7341,7.7341,7.7341,7.7341,7.7341,7.7341,7.7341,7.7341,7.7341,7.7341,7.7341,7.7341,7.7341,7.7341,7.7341,7.7341,7.7341,7.7341,7.7341,7.7341,7.7341,7.7341,7.7341,7.7341,7.7341,7.7341,7.7341,7.7341,7.7341,7.7341,7.7341,7.7341,7.7341,7.7243,7.7341,7.7341,7.7341,7.7341,7.7341,8.7031,8.7031,8.7031,8.7031,8.7031,8.7031,8.7031,8.7031,8.7031,8.7325,8.7692,8.7766,8.839,8.9344,9.0041,9.0408,9.0959,9.0665,9.0482,8.9784,8.9454,8.905,8.8977,8.9381,8.9748,9.0041,9.0555,9.1033,9.1033,9.151,9.1693,9.173,9.1803,9.1767,9.173,9.1767,9.1767,9.1693,9.1657,9.1693,9.151,9.1289,9.1033,9.0592,8.9711,8.8647,8.8353,8.7766,8.7031,8.7031,8.7031,8.7031,8.7031,8.6921,8.6738,8.6334,8.5783,8.5123,8.4022,8.3104,8.1966,8.0938,8.0645,8.0608,8.0498,8.0424,8.0057,7.958,7.9029,7.8405,7.7855,7.7708,7.7451,7.7451,7.7414,7.7414,7.7378,7.7378,7.7341,7.7341,7.7341,7.7341,7.7341,7.7341,7.7341,7.7341,7.7341,7.7341,7.7341,7.7341,7.7341,7.7341,7.7341,7.7341,7.7341,7.7341,7.7341,7.7341,7.7341,7.7341,7.7341,7.7341,7.7341,7.7341,7.7341,7.7341,7.7341,7.7341,7.7341,7.7341,7.7341,7.7341,7.7341,7.7341,7.7341,8.7031,8.7031,8.7031,8.7105,8.7068,8.7068,8.7031,8.7031,8.7068,8.7142,8.7252,8.8793,8.9454,8.9858,9.1033,9.1546,9.1546,9.0996,9.0702,9.0445,9.0078,8.9674,8.9784,9.0225,9.0555,9.0886,9.1253,9.1546,9.173,9.1767,9.1767,9.1803,9.1803,9.1803,9.1803,9.1803,9.1803,9.1803,9.1803,9.1803,9.1693,9.1693,9.1473,9.0959,9.0041,8.9234,8.8647,8.7839,8.7215,8.7031,8.7031,8.7031,8.7031,8.7031,8.6995,8.6775,8.6224,8.5343,8.4499,8.3691,8.2884,8.1893,8.1893,8.2076,8.1856,8.1305,8.0865,8.0351,7.9764,7.9103,7.8516,7.8075,7.7671,7.7635,7.7561,7.7524,7.7488,7.7451,7.7341,7.7341,7.7341,7.7341,7.7341,7.7341,7.7341,7.7341,7.7341,7.7341,7.7341,7.7341,7.7341,7.7341,7.7341,7.7341,7.7341,7.7341,7.7341,7.7341,7.7341,7.7341,7.7341,7.7341,7.7341,7.7341,7.7341,7.7341,7.7341,7.7341,7.7341,7.7341,7.7341,7.7341,7.7341,7.7341,7.7341,8.7876,8.7876,8.7876,8.7876,8.7766,8.7252,8.7031,8.7068,8.7582,8.8133,8.8757,8.9197,8.9968,9.1106,9.1033,9.1363,9.1546,9.151,9.1069,9.0849,9.0812,9.0629,9.0702,9.0996,9.1326,9.1473,9.1657,9.1803,9.1767,9.1803,9.1803,9.1803,9.1803,9.1803,9.1803,9.1803,9.1803,9.1803,9.1803,9.1803,9.1803,9.1803,9.1546,9.0849,9.0041,8.9271,8.8463,8.7655,8.7068,8.7031,8.7031,8.7031,8.7031,8.7031,8.6995,8.6921,8.6224,8.5416,8.4646,8.3875,8.3141,8.2553,8.226,8.2186,8.2113,8.1966,8.1562,8.1012,8.0498,7.9874,7.9286,7.8809,7.8442,7.8295,7.8148,7.7965,7.7892,7.7524,7.7451,7.7341,7.7341,7.7341,7.7341,7.7341,7.7341,7.7341,7.7341,7.7378,7.7341,7.7341,7.7341,7.7341,7.7341,7.7341,7.7341,7.7341,7.7341,7.7341,7.7341,7.7341,7.7341,7.7341,7.7341,7.7341,7.7341,7.7341,7.7341,7.7341,7.7341,7.7341,7.7341,7.7341,7.7341,7.7341,7.7341,8.7729,8.7729,8.7729,8.7729,8.7655,8.7215,8.7031,8.7178,8.7839,8.85,8.9014,8.9638,9.0408,9.1106,9.1179,9.14,9.1767,9.173,9.1473,9.1436,9.1546,9.14,9.14,9.151,9.1657,9.1803,9.1803,9.1803,9.1803,9.1803,9.1803,9.1803,9.1803,9.1803,9.1803,9.1803,9.1803,9.1803,9.1803,9.1803,9.1803,9.1767,9.1289,9.0629,8.9821,8.9087,8.828,8.7472,8.7142,8.7031,8.7031,8.7031,8.7031,8.7031,8.7031,8.6921,8.6664,8.593,8.5233,8.4389,8.3728,8.3104,8.259,8.2443,8.2443,8.237,8.1966,8.1525,8.1122,8.0681,8.0131,7.9617,7.936,7.9103,7.8846,7.8589,7.8185,7.7745,7.7524,7.7378,7.7341,7.7341,7.7341,7.7341,7.7378,7.7451,7.7561,7.7671,7.7524,7.7341,7.7341,7.7341,7.7341,7.7341,7.7341,7.7341,7.7341,7.7341,7.7341,7.7341,7.7341,7.7341,7.7341,7.7341,7.7341,7.7341,7.7341,7.7341,7.7341,7.7341,7.7341,7.7341,7.7341,7.7341,7.7341,8.7142,8.7178,8.7105,8.7142,8.7031,8.7105,8.7178,8.7215,8.8133,8.839,8.872,9.0041,9.0776,9.1143,9.14,9.162,9.1803,9.1767,9.1767,9.1767,9.173,9.1657,9.1693,9.1803,9.1803,9.1803,9.1803,9.1803,9.1803,9.1803,9.1803,9.1803,9.1803,9.1803,9.1803,9.1803,9.1803,9.1803,9.1803,9.1803,9.1803,9.1693,9.1436,9.0665,8.9931,8.9197,8.8426,8.7729,8.7178,8.7215,8.7288,8.7362,8.7215,8.7031,8.7031,8.6995,8.6885,8.6371,8.571,8.5013,8.4682,8.4022,8.3287,8.3177,8.3177,8.259,8.2113,8.1929,8.1562,8.1122,8.0608,8.0534,8.0351,7.9984,7.9653,7.9286,7.8846,7.8185,7.7451,7.7341,7.7341,7.7378,7.7745,7.7818,7.8075,7.7892,7.8038,7.8259,7.8148,7.7855,7.7561,7.7524,7.7341,7.7341,7.7341,7.7341,7.7341,7.7341,7.7378,7.7341,7.7341,7.7341,7.7341,7.7341,7.7341,7.7341,7.7341,7.7341,7.7341,7.7341,7.7341,7.7341,7.7341,7.7378,7.7341,8.7912,8.7912,8.7912,8.7582,8.7142,8.7655,8.7912,8.8059,8.9454,8.9638,8.9491,9.0665,9.1473,9.1473,9.162,9.1803,9.1803,9.1803,9.1803,9.1803,9.1803,9.1803,9.1803,9.1803,9.1803,9.1803,9.1803,9.1803,9.1803,9.1803,9.1803,9.1803,9.1803,9.1803,9.1803,9.1803,9.1803,9.1803,9.1803,9.1803,9.1803,9.1693,9.1436,9.0812,9.0188,8.9821,8.9234,8.8904,8.8793,8.8867,8.8867,8.8536,8.7986,8.7362,8.7068,8.7031,8.6995,8.6554,8.6077,8.56,8.527,8.4829,8.4242,8.4242,8.3838,8.2847,8.2296,8.2223,8.2003,8.1599,8.1342,8.1379,8.1305,8.0865,8.0424,7.9984,7.9543,7.8552,7.7561,7.7451,7.7451,7.7708,7.8148,7.8405,7.8662,7.8919,7.9213,7.9396,7.9286,7.9029,7.8295,7.8075,7.7488,7.7378,7.7414,7.7378,7.7414,7.7488,7.7561,7.7451,7.7378,7.7488,7.7598,7.7414,7.7341,7.7341,7.7341,7.7378,7.7378,7.7488,7.7671,7.7855,7.7598,7.7524,7.7414,8.7876,8.8243,8.8573,8.85,8.8243,8.8573,8.8757,8.8977,9.0078,9.0372,9.0152,9.1179,9.1803,9.1803,9.1803,9.1803,9.1803,9.1803,9.1803,9.1803,9.1803,9.1803,9.1803,9.1803,9.1803,9.1803,9.1803,9.1803,9.1803,9.1803,9.1803,9.1803,9.1803,9.1803,9.1803,9.1803,9.1803,9.1803,9.1803,9.1803,9.1803,9.173,9.14,9.0849,9.0519,9.0188,8.9711,8.9417,8.9417,8.9234,8.8977,8.8647,8.8023,8.7435,8.7068,8.7031,8.6958,8.6811,8.6371,8.6004,8.582,8.5527,8.4792,8.4609,8.4939,8.4058,8.3581,8.3434,8.2957,8.2517,8.2296,8.226,8.1929,8.1562,8.0975,8.0424,7.991,7.9213,7.8736,7.8736,7.8736,7.8809,7.9103,7.9103,7.936,7.9507,7.9874,8.0021,8.0021,8.0204,7.947,7.8846,7.8369,7.7965,7.8002,7.7818,7.7524,7.7635,7.7855,7.7965,7.8075,7.7965,7.7892,7.7745,7.7524,7.7341,7.7341,7.7671,7.7855,7.8075,7.8259,7.8479,7.8148,7.7855,7.7781,8.7509,8.828,8.894,8.9307,8.9454,8.9528,8.9564,8.9711,9.0408,9.0776,9.0849,9.1473,9.1767,9.1803,9.1803,9.1803,9.1803,9.1803,9.1803,9.1803,9.1803,9.1803,9.1803,9.1803,9.1803,9.1803,9.1803,9.1803,9.1803,9.1803,9.1803,9.1803,9.1803,9.1803,9.1803,9.1803,9.1803,9.1803,9.1803,9.1803,9.1803,9.1803,9.14,9.0996,9.0702,9.0372,8.9931,8.9748,8.9748,8.9417,8.916,8.872,8.8206,8.7619,8.7178,8.7031,8.7031,8.6958,8.6811,8.6407,8.6518,8.6371,8.5416,8.5196,8.56,8.5453,8.4939,8.4572,8.4058,8.3471,8.3214,8.2884,8.2517,8.2003,8.1379,8.0865,8.0351,7.9837,7.9764,7.9727,7.9727,7.9764,7.991,7.9947,8.0057,8.0204,8.0314,8.0351,8.0534,8.0865,8.0718,8.0131,7.9653,7.9286,7.8846,7.8516,7.8185,7.8442,7.8736,7.8736,7.8736,7.8736,7.8516,7.8112,7.7892,7.8002,7.8112,7.8442,7.8626,7.8736,7.8883,7.9066,7.8919,7.8662,7.8405,8.7472,8.8206,8.839,8.8793,8.9454,9.0078,9.0372,9.0519,9.1179,9.1583,9.1546,9.162,9.1803,9.1803,9.1803,9.1803,9.1803,9.1803,9.1803,9.1803,9.1803,9.1803,9.1803,9.1803,9.1803,9.1803,9.1803,9.1803,9.1803,9.1803,9.1803,9.1803,9.1803,9.1803,9.1803,9.1803,9.1803,9.1803,9.1803,9.1803,9.1803,9.1803,9.1767,9.162,9.1583,9.1473,9.1363,9.1326,9.1363,9.0959,8.9968,8.9307,8.861,8.7839,8.7178,8.7031,8.7031,8.7031,8.6848,8.6738,8.6885,8.6885,8.6224,8.6297,8.6518,8.6554,8.6187,8.6004,8.538,8.4278,8.3838,8.3398,8.2994,8.2223,8.1525,8.1232,8.0865,8.0388,8.0057,8.0057,8.0057,8.0351,8.0755,8.0865,8.1122,8.1305,8.1636,8.1672,8.1672,8.1782,8.1929,8.1452,8.0938,8.0277,7.9727,7.9433,7.9213,7.9433,7.9617,7.969,7.969,7.958,7.9286,7.8846,7.8993,7.9176,7.9323,7.9213,7.9433,7.9543,7.958,7.9617,7.958,7.947,7.925]},{"header":{"parameterUnit":"m.s-1","parameterCategory":1,"la1":31.0,"la2":29.5877,"lo1":-88.7671,"lo2":-86.6584,"dy":0.0162,"dx":0.0185,"nx":115,"ny":88,"refTime":"2023-04-14T06:00:00:Z","depth":0,"parameterNumber":3,"parameterNumberName":"V-component_of_WINDS"},"data":[0.0,0.0,0.0,0.0,0.0,0.0,0.0,0.0,0.0,0.0,0.0,0.0,0.0,0.0,0.0,0.0,0.0,0.0,0.0,0.0,0.0,0.0,0.0,0.0,0.0,0.0,0.0,0.0,0.0,0.0,0.0,0.0,0.0,0.0,0.0,0.0,0.0,0.0,0.0,0.0,0.0,0.0,0.0,0.0,0.0,0.0,0.0,0.0,0.0,0.0,0.0,0.0,0.0,0.0,0.0,0.0,0.0,0.0,0.0,0.0,0.0,0.0,0.0,0.0,0.0,0.0,0.0,0.0,0.0,0.0,0.0,0.0,0.0,0.0,0.0,0.0,0.0,0.0,0.0,0.0,0.0,0.0,0.0,0.0,0.0,0.0,0.0,0.0,0.0,0.0,0.0,0.0,0.0,0.0,0.0,0.0,0.0,0.0,0.0,0.0,0.0,0.0,0.0,0.0,0.0,0.0,0.0,0.0,0.0,0.0,0.0,0.0,0.0,0.0,0.0,0.0,0.0,0.0,0.0,0.0,0.0,0.0,0.0,0.0,0.0,0.0,0.0,0.0,0.0,0.0,0.0,0.0,0.0,0.0,0.0,0.0,0.0,0.0,0.0,0.0,0.0,0.0,0.0,0.0,0.0,0.0,0.0,0.0,0.0,0.0,0.0,0.0,0.0,0.0,0.0,0.0,0.0,0.0,0.0,0.0,0.0,0.0,0.0,0.0,0.0,0.0,0.0,0.0,0.0,0.0,0.0,0.0,0.0,0.0,0.0,0.0,0.0,0.0,0.0,0.0,0.0,0.0,0.0,0.0,0.0,0.0,0.0,0.0,0.0,0.0,0.0,0.0,0.0,0.0,0.0,0.0,0.0,0.0,0.0,0.0,0.0,0.0,0.0,0.0,0.0,0.0,0.0,0.0,0.0,0.0,0.0,0.0,0.0,0.0,0.0,0.0,0.0,0.0,0.0,0.0,0.0,0.0,0.0,0.0,0.0,0.0,0.0,0.0,0.0,0.0,0.0,0.0,0.0,0.0,0.0,0.0,0.0,0.0,0.0,0.0,0.0,0.0,0.0,0.0,0.0,0.0,0.0,0.0,0.0,0.0,0.0,0.0,0.0,0.0,0.0,0.0,0.0,0.0,0.0,0.0,0.0,0.0,0.0,0.0,0.0,0.0,0.0,0.0,0.0,0.0,0.0,0.0,0.0,0.0,0.0,0.0,0.0,0.0,0.0,0.0,0.0,0.0,0.0,0.0,0.0,0.0,0.0,0.0,0.0,0.0,0.0,0.0,0.0,0.0,0.0,0.0,0.0,0.0,0.0,0.0,0.0,0.0,0.0,0.0,0.0,0.0,0.0,0.0,0.0,0.0,0.0,0.0,0.0,0.0,0.0,0.0,0.0,0.0,0.0,0.0,0.0,0.0,0.0,0.0,0.0,0.0,0.0,0.0,0.0,0.0,0.0,0.0,0.0,0.0,0.0,0.0,0.0,0.0,0.0,0.0,0.0,0.0,0.0,0.0,0.0,0.0,0.0,0.0,0.0,0.0,0.0,0.0,0.0,0.0,0.0,0.0,0.0,0.0,0.0,0.0,0.0,0.0,0.0,0.0,0.0,0.0,0.0,0.0,0.0,0.0,0.0,0.0,0.0,0.0,0.0,0.0,0.0,0.0,0.0,0.0,0.0,0.0,0.0,0.0,0.0,0.0,0.0,0.0,0.0,0.0,0.0,0.0,0.0,0.0,0.0,0.0,0.0,0.0,0.0,0.0,0.0,0.0,0.0,0.0,0.0,0.0,0.0,0.0,0.0,0.0,0.0,0.0,0.0,0.0,0.0,0.0,0.0,0.0,0.0,0.0,0.0,0.0,0.0,0.0,0.0,0.0,0.0,0.0,0.0,0.0,0.0,0.0,0.0,0.0,0.0,0.0,0.0,0.0,0.0,0.0,0.0,0.0,0.0,0.0,0.0,0.0,0.0,0.0,0.0,0.0,0.0,0.0,0.0,0.0,0.0,0.0,0.0,0.0,0.0,0.0,0.0,0.0,0.0,0.0,0.0,0.0,0.0,0.0,0.0,0.0,0.0,0.0,0.0,0.0,0.0,0.0,0.0,0.0,0.0,0.0,0.0,0.0,0.0,0.0,0.0,0.0,0.0,0.0,0.0,0.0,0.0,0.0,0.0,0.0,0.0,0.0,0.0,0.0,0.0,0.0,0.0,0.0,0.0,0.0,0.0,0.0,0.0,0.0,0.0,0.0,0.0,0.0,0.0,0.0,0.0,0.0,0.0,0.0,0.0,0.0,0.0,0.0,0.0,0.0,0.0,0.0,0.0,0.0,0.0,0.0,0.0,0.0,0.0,0.0,0.0,0.0,0.0,0.0,0.0,0.0,0.0,0.0,0.0,0.0,0.0,0.0,0.0,0.0,0.0,0.0,0.0,0.0,0.0,0.0,0.0,0.0,0.0,0.0,0.0,0.0,0.0,0.0,0.0,0.0,0.0,0.0,0.0,0.0,0.0,0.0,0.0,0.0,0.0,0.0,0.0,0.0,0.0,0.0,0.0,0.0,0.0,0.0,0.0,0.0,0.0,0.0,0.0,0.0,0.0,0.0,0.0,0.0,0.0,0.0,0.0,0.0,0.0,0.0,0.0,0.0,0.0,0.0,0.0,0.0,0.0,0.0,0.0,0.0,0.0,0.0,0.0,0.0,0.0,0.0,0.0,0.0,0.0,0.0,0.0,0.0,0.0,0.0,0.0,0.0,0.0,0.0,0.0,0.0,0.0,0.0,0.0,0.0,0.0,0.0,0.0,0.0,0.0,0.0,0.0,0.0,0.0,0.0,0.0,0.0,0.0,0.0,0.0,0.0,0.0,0.0,0.0,0.0,0.0,0.0,0.0,0.0,0.0,0.0,0.0,0.0,0.0,0.0,0.0,0.0,0.0,0.0,0.0,0.0,0.0,0.0,0.0,0.0,0.0,0.0,0.0,0.0,0.0,0.0,0.0,0.0,0.0,0.0,0.0,0.0,0.0,0.0,0.0,0.0,0.0,0.0,0.0,0.0,0.0,0.0,0.0,0.0,0.0,0.0,0.0,0.0,0.0,0.0,0.0,0.0,0.0,0.0,0.0,0.0,0.0,0.0,0.0,0.0,0.0,0.0,0.0,0.0,0.0,0.0,0.0,0.0,0.0,0.0,0.0,0.0,0.0,0.0,0.0,0.0,0.0,0.0,0.0,0.0,0.0,0.0,0.0,0.0,0.0,0.0,0.0,0.0,0.0,0.0,0.0,0.0,0.0,0.0,0.0,0.0,0.0,0.0,0.0,0.0,0.0,0.0,0.0,0.0,0.0,0.0,0.0,0.0,0.0,0.0,0.0,0.0,0.0,0.0,0.0,0.0,0.0,0.0,0.0,0.0,0.0,0.0,0.0,0.0,0.0,0.0,0.0,0.0,0.0,0.0,0.0,0.0,0.0,0.0,0.0,0.0,0.0,0.0,0.0,0.0,0.0,0.0,0.0,0.0,0.0,0.0,0.0,0.0,0.0,0.0,0.0,0.0,0.0,0.0,0.0,0.0,0.0,0.0,0.0,0.0,0.0,0.0,0.0,0.0,0.0,0.0,0.0,0.0,0.0,0.0,0.0,0.0,0.0,0.0,0.0,0.0,0.0,0.0,0.0,0.0,0.0,0.0,0.0,0.0,0.0,0.0,0.0,0.0,0.0,0.0,0.0,0.0,0.0,0.0,0.0,0.0,0.0,0.0,0.0,0.0,0.0,0.0,0.0,0.0,0.0,0.0,0.0,0.0,0.0,0.0,0.0,0.0,0.0,0.0,0.0,0.0,0.0,0.0,0.0,0.0,0.0,0.0,0.0,0.0,0.0,0.0,0.0,0.0,0.0,0.0,0.0,0.0,0.0,0.0,0.0,0.0,0.0,0.0,0.0,0.0,0.0,0.0,0.0,0.0,0.0,0.0,0.0,0.0,0.0,0.0,0.0,0.0,0.0,0.0,0.0,0.0,0.0,0.0,0.0,0.0,0.0,0.0,0.0,0.0,0.0,0.0,0.0,0.0,0.0,0.0,0.0,0.0,0.0,0.0,0.0,0.0,0.0,0.0,0.0,0.0,0.0,0.0,0.0,0.0,0.0,0.0,0.0,0.0,0.0,0.0,0.0,0.0,0.0,0.0,0.0,0.0,0.0,0.0,0.0,0.0,0.0,0.0,0.0,0.0,0.0,0.0,0.0,0.0,0.0,0.0,0.0,0.0,0.0,0.0,-2.7461,0.0,0.0,0.0,0.0,0.0,0.0,0.0,0.0,0.0,0.0,0.0,0.0,0.0,0.0,0.0,0.0,0.0,0.0,0.0,0.0,0.0,0.0,0.0,0.0,0.0,0.0,0.0,0.0,0.0,0.0,0.0,0.0,0.0,0.0,0.0,0.0,0.0,0.0,0.0,0.0,0.0,0.0,0.0,0.0,0.0,0.0,0.0,0.0,0.0,0.0,0.0,0.0,0.0,0.0,0.0,0.0,0.0,0.0,0.0,0.0,0.0,0.0,0.0,0.0,0.0,0.0,0.0,0.0,0.0,0.0,0.0,0.0,0.0,0.0,0.0,0.0,0.0,0.0,0.0,0.0,0.0,0.0,0.0,0.0,0.0,0.0,0.0,0.0,0.0,0.0,0.0,0.0,0.0,0.0,0.0,0.0,0.0,0.0,0.0,0.0,0.0,0.0,0.0,0.0,0.0,0.0,0.0,0.0,0.0,0.0,-2.7238,-2.7274,-2.6726,-2.6455,-2.6455,0.0,0.0,0.0,0.0,0.0,0.0,0.0,0.0,0.0,0.0,0.0,0.0,0.0,0.0,0.0,0.0,0.0,0.0,0.0,0.0,0.0,0.0,0.0,0.0,0.0,0.0,0.0,0.0,0.0,0.0,0.0,0.0,0.0,0.0,0.0,0.0,0.0,0.0,0.0,0.0,0.0,0.0,0.0,0.0,0.0,0.0,0.0,0.0,0.0,0.0,0.0,0.0,0.0,0.0,0.0,0.0,0.0,0.0,0.0,0.0,0.0,0.0,0.0,0.0,0.0,0.0,0.0,0.0,0.0,0.0,0.0,0.0,0.0,0.0,0.0,0.0,0.0,0.0,0.0,0.0,0.0,0.0,0.0,0.0,0.0,0.0,0.0,0.0,0.0,0.0,0.0,0.0,0.0,0.0,0.0,0.0,0.0,0.0,0.0,0.0,0.0,0.0,0.0,0.0,0.0,0.0,0.0,0.0,0.0,0.0,0.0,0.0,-2.5816,-2.5605,-2.5481,0.0,0.0,0.0,0.0,0.0,0.0,0.0,0.0,0.0,0.0,0.0,0.0,0.0,0.0,0.0,0.0,0.0,0.0,0.0,0.0,0.0,0.0,0.0,0.0,0.0,0.0,0.0,0.0,0.0,0.0,0.0,0.0,0.0,0.0,0.0,0.0,0.0,0.0,0.0,0.0,0.0,0.0,0.0,0.0,0.0,0.0,0.0,0.0,0.0,0.0,0.0,0.0,0.0,0.0,0.0,0.0,0.0,0.0,0.0,0.0,0.0,0.0,0.0,0.0,0.0,0.0,0.0,0.0,0.0,0.0,0.0,0.0,0.0,0.0,0.0,0.0,0.0,0.0,0.0,0.0,0.0,0.0,0.0,0.0,0.0,0.0,0.0,0.0,0.0,0.0,0.0,0.0,0.0,0.0,0.0,0.0,0.0,0.0,0.0,0.0,0.0,0.0,0.0,0.0,0.0,0.0,0.0,0.0,0.0,0.0,-2.6887,-2.6373,-2.6286,0.0,-2.547,0.0,0.0,0.0,0.0,0.0,0.0,0.0,0.0,0.0,0.0,0.0,0.0,0.0,0.0,0.0,0.0,0.0,0.0,0.0,0.0,0.0,0.0,0.0,0.0,0.0,0.0,0.0,0.0,0.0,0.0,0.0,0.0,0.0,0.0,0.0,0.0,0.0,0.0,0.0,0.0,0.0,0.0,0.0,0.0,0.0,0.0,0.0,0.0,0.0,0.0,0.0,0.0,0.0,0.0,0.0,0.0,0.0,0.0,0.0,0.0,0.0,0.0,0.0,0.0,0.0,0.0,0.0,0.0,0.0,0.0,0.0,0.0,0.0,0.0,0.0,0.0,0.0,0.0,0.0,0.0,0.0,0.0,0.0,0.0,0.0,0.0,0.0,0.0,0.0,0.0,0.0,0.0,0.0,0.0,0.0,0.0,0.0,0.0,0.0,0.0,0.0,0.0,0.0,0.0,0.0,0.0,0.0,0.0,0.0,0.0,-2.6765,-2.6535,-2.6397,-2.6271,0.0,0.0,0.0,0.0,0.0,0.0,0.0,0.0,0.0,0.0,0.0,0.0,0.0,0.0,0.0,0.0,0.0,0.0,0.0,0.0,0.0,0.0,0.0,0.0,0.0,0.0,0.0,0.0,0.0,0.0,0.0,0.0,0.0,0.0,0.0,0.0,0.0,0.0,0.0,0.0,0.0,0.0,0.0,0.0,0.0,0.0,0.0,0.0,0.0,0.0,0.0,0.0,0.0,0.0,0.0,0.0,0.0,0.0,0.0,0.0,0.0,0.0,0.0,0.0,0.0,0.0,0.0,0.0,0.0,0.0,0.0,0.0,0.0,0.0,0.0,0.0,0.0,0.0,0.0,0.0,0.0,0.0,0.0,0.0,0.0,0.0,0.0,0.0,0.0,0.0,0.0,0.0,0.0,0.0,0.0,0.0,0.0,0.0,0.0,0.0,0.0,0.0,0.0,0.0,0.0,0.0,0.0,0.0,0.0,0.0,-2.71,-2.6902,-2.6717,-2.6427,-2.6304,-2.6439,0.0,0.0,0.0,0.0,0.0,0.0,0.0,0.0,0.0,0.0,0.0,0.0,0.0,0.0,0.0,0.0,0.0,0.0,0.0,0.0,0.0,0.0,0.0,0.0,0.0,0.0,0.0,0.0,0.0,0.0,0.0,0.0,0.0,0.0,0.0,0.0,0.0,0.0,0.0,0.0,0.0,0.0,0.0,0.0,0.0,0.0,0.0,0.0,0.0,0.0,0.0,0.0,0.0,0.0,0.0,0.0,0.0,0.0,0.0,0.0,0.0,0.0,0.0,0.0,0.0,0.0,0.0,0.0,0.0,0.0,0.0,0.0,0.0,0.0,0.0,0.0,0.0,0.0,0.0,0.0,0.0,0.0,0.0,0.0,0.0,0.0,0.0,0.0,0.0,0.0,0.0,0.0,0.0,0.0,0.0,0.0,0.0,0.0,0.0,0.0,0.0,0.0,0.0,0.0,0.0,0.0,0.0,0.0,-2.7917,-2.7917,-2.7595,-2.6988,-2.635,-2.6016,0.0,0.0,0.0,0.0,0.0,0.0,0.0,0.0,0.0,0.0,0.0,0.0,0.0,0.0,0.0,0.0,0.0,0.0,0.0,0.0,0.0,0.0,0.0,0.0,0.0,0.0,0.0,0.0,0.0,0.0,0.0,0.0,0.0,0.0,0.0,0.0,0.0,0.0,0.0,0.0,0.0,0.0,0.0,0.0,0.0,0.0,0.0,0.0,0.0,0.0,0.0,0.0,0.0,0.0,0.0,0.0,0.0,0.0,0.0,0.0,0.0,0.0,0.0,0.0,0.0,0.0,0.0,0.0,0.0,0.0,0.0,0.0,0.0,0.0,0.0,0.0,0.0,0.0,0.0,0.0,0.0,0.0,0.0,0.0,0.0,0.0,0.0,0.0,0.0,0.0,0.0,0.0,0.0,0.0,0.0,0.0,0.0,0.0,0.0,0.0,0.0,0.0,0.0,0.0,0.0,0.0,0.0,0.0,0.0,-2.7255,-2.7206,-2.7297,-2.7478,-2.7364,-2.7243,0.0,0.0,0.0,0.0,0.0,0.0,0.0,0.0,0.0,0.0,0.0,0.0,0.0,0.0,0.0,0.0,0.0,0.0,0.0,0.0,0.0,0.0,0.0,0.0,0.0,0.0,0.0,0.0,0.0,0.0,0.0,0.0,0.0,0.0,0.0,0.0,0.0,0.0,0.0,0.0,0.0,0.0,0.0,0.0,0.0,0.0,0.0,0.0,0.0,0.0,0.0,0.0,0.0,0.0,0.0,0.0,0.0,0.0,0.0,0.0,0.0,0.0,0.0,0.0,0.0,0.0,0.0,0.0,0.0,0.0,0.0,0.0,0.0,0.0,0.0,0.0,0.0,0.0,0.0,0.0,0.0,0.0,0.0,0.0,0.0,0.0,0.0,0.0,0.0,0.0,0.0,0.0,0.0,0.0,0.0,0.0,0.0,0.0,0.0,0.0,0.0,0.0,0.0,0.0,0.0,0.0,0.0,0.0,0.0,-2.6852,0.0,-2.6911,-2.7479,-2.7458,-2.7419,0.0,0.0,0.0,0.0,0.0,0.0,0.0,0.0,0.0,0.0,0.0,0.0,0.0,0.0,0.0,0.0,0.0,0.0,0.0,0.0,0.0,0.0,0.0,0.0,0.0,0.0,0.0,0.0,0.0,0.0,0.0,0.0,0.0,0.0,0.0,0.0,0.0,0.0,0.0,0.0,0.0,0.0,0.0,0.0,0.0,0.0,0.0,0.0,0.0,0.0,0.0,0.0,0.0,0.0,0.0,0.0,0.0,0.0,0.0,0.0,0.0,0.0,0.0,0.0,0.0,0.0,0.0,0.0,0.0,0.0,0.0,0.0,0.0,0.0,0.0,0.0,0.0,0.0,0.0,0.0,0.0,0.0,0.0,0.0,0.0,0.0,0.0,0.0,0.0,0.0,0.0,0.0,0.0,0.0,0.0,0.0,0.0,0.0,0.0,0.0,0.0,0.0,0.0,0.0,0.0,0.0,0.0,0.0,-2.7357,-2.6967,-2.652,-2.6491,-2.6886,-2.6549,-2.6416,0.0,0.0,0.0,0.0,0.0,0.0,0.0,0.0,0.0,0.0,0.0,0.0,0.0,0.0,0.0,0.0,0.0,0.0,0.0,0.0,0.0,0.0,0.0,0.0,0.0,0.0,0.0,0.0,0.0,0.0,0.0,0.0,0.0,0.0,0.0,0.0,0.0,0.0,0.0,0.0,0.0,0.0,0.0,0.0,0.0,0.0,0.0,0.0,0.0,0.0,0.0,0.0,0.0,0.0,0.0,0.0,0.0,0.0,0.0,0.0,0.0,0.0,0.0,0.0,0.0,0.0,0.0,0.0,0.0,0.0,0.0,0.0,0.0,0.0,0.0,0.0,0.0,0.0,0.0,0.0,0.0,0.0,0.0,0.0,0.0,0.0,0.0,0.0,0.0,0.0,0.0,0.0,0.0,0.0,0.0,0.0,0.0,0.0,0.0,0.0,0.0,0.0,0.0,0.0,0.0,0.0,0.0,0.0,0.0,-2.804,-2.648,-2.6012,-2.6834,-2.6496,-2.6462,0.0,0.0,0.0,0.0,0.0,0.0,0.0,0.0,0.0,0.0,0.0,0.0,0.0,0.0,0.0,0.0,0.0,0.0,0.0,0.0,0.0,0.0,0.0,0.0,0.0,0.0,0.0,0.0,0.0,0.0,0.0,0.0,0.0,0.0,0.0,0.0,0.0,0.0,0.0,0.0,0.0,0.0,0.0,0.0,0.0,0.0,0.0,0.0,0.0,0.0,0.0,0.0,0.0,0.0,0.0,0.0,0.0,0.0,0.0,0.0,0.0,0.0,0.0,0.0,0.0,0.0,0.0,0.0,0.0,0.0,0.0,0.0,0.0,0.0,0.0,0.0,0.0,0.0,0.0,0.0,0.0,0.0,0.0,0.0,0.0,0.0,0.0,0.0,0.0,0.0,0.0,0.0,0.0,0.0,0.0,0.0,0.0,0.0,0.0,0.0,0.0,0.0,0.0,0.0,0.0,0.0,0.0,0.0,0.0,-2.9029,-2.6835,-2.6022,-2.6775,-2.6414,-2.6161,-2.6179,0.0,0.0,0.0,0.0,0.0,0.0,0.0,0.0,0.0,0.0,0.0,0.0,0.0,0.0,0.0,0.0,0.0,0.0,0.0,0.0,0.0,0.0,0.0,0.0,0.0,0.0,0.0,0.0,0.0,0.0,0.0,0.0,0.0,0.0,0.0,0.0,0.0,0.0,0.0,0.0,0.0,0.0,0.0,0.0,0.0,0.0,0.0,0.0,0.0,0.0,0.0,0.0,0.0,0.0,0.0,0.0,0.0,0.0,0.0,0.0,0.0,0.0,0.0,0.0,0.0,0.0,0.0,0.0,0.0,0.0,0.0,0.0,0.0,0.0,0.0,0.0,0.0,0.0,0.0,0.0,0.0,0.0,0.0,0.0,0.0,0.0,0.0,0.0,0.0,0.0,0.0,0.0,0.0,0.0,0.0,0.0,0.0,0.0,0.0,0.0,0.0,0.0,0.0,0.0,0.0,0.0,0.0,0.0,-3.0127,-2.7678,-2.6534,-2.6823,-2.6392,-2.5807,0.0,0.0,0.0,0.0,0.0,0.0,0.0,0.0,0.0,0.0,0.0,0.0,0.0,0.0,0.0,0.0,0.0,0.0,0.0,0.0,0.0,0.0,0.0,0.0,0.0,0.0,0.0,0.0,0.0,0.0,0.0,0.0,0.0,0.0,0.0,0.0,0.0,0.0,0.0,0.0,0.0,0.0,0.0,0.0,0.0,0.0,0.0,0.0,0.0,0.0,0.0,0.0,0.0,0.0,0.0,0.0,0.0,0.0,0.0,0.0,0.0,0.0,0.0,0.0,0.0,0.0,0.0,0.0,0.0,0.0,0.0,0.0,0.0,0.0,0.0,0.0,0.0,0.0,0.0,0.0,0.0,0.0,0.0,0.0,0.0,0.0,0.0,0.0,0.0,0.0,0.0,0.0,0.0,0.0,0.0,0.0,0.0,0.0,0.0,0.0,0.0,0.0,0.0,0.0,0.0,0.0,0.0,0.0,0.0,-3.0164,-2.9125,-2.8708,-2.8852,-2.8185,-2.7535,0.0,0.0,0.0,0.0,0.0,0.0,0.0,0.0,0.0,0.0,0.0,0.0,0.0,0.0,0.0,0.0,0.0,0.0,0.0,0.0,0.0,0.0,0.0,0.0,0.0,0.0,0.0,0.0,0.0,0.0,0.0,0.0,0.0,0.0,0.0,0.0,0.0,0.0,0.0,0.0,0.0,0.0,0.0,0.0,0.0,0.0,0.0,0.0,0.0,0.0,0.0,0.0,0.0,0.0,0.0,0.0,0.0,0.0,0.0,0.0,0.0,0.0,0.0,0.0,0.0,0.0,0.0,0.0,0.0,0.0,0.0,0.0,0.0,0.0,0.0,0.0,0.0,0.0,0.0,0.0,0.0,0.0,0.0,0.0,0.0,0.0,0.0,0.0,0.0,0.0,0.0,0.0,0.0,0.0,0.0,0.0,0.0,0.0,0.0,0.0,0.0,0.0,0.0,0.0,0.0,0.0,0.0,0.0,-2.9491,-3.0664,-3.1084,-3.1337,-3.1474,-2.9813,-2.8333,0.0,0.0,0.0,0.0,0.0,0.0,0.0,0.0,0.0,0.0,0.0,0.0,0.0,0.0,0.0,0.0,0.0,0.0,0.0,0.0,0.0,0.0,0.0,0.0,0.0,0.0,0.0,0.0,0.0,0.0,0.0,0.0,0.0,0.0,0.0,0.0,0.0,0.0,0.0,0.0,0.0,0.0,0.0,0.0,0.0,0.0,0.0,0.0,0.0,0.0,0.0,0.0,0.0,0.0,0.0,0.0,0.0,0.0,0.0,0.0,0.0,0.0,0.0,0.0,0.0,0.0,0.0,0.0,0.0,0.0,0.0,0.0,0.0,0.0,0.0,0.0,0.0,0.0,0.0,0.0,0.0,0.0,0.0,0.0,0.0,0.0,0.0,0.0,0.0,0.0,0.0,0.0,0.0,0.0,0.0,0.0,0.0,0.0,0.0,0.0,0.0,0.0,0.0,0.0,0.0,0.0,0.0,0.0,-3.0708,-3.1446,-3.2997,-3.3822,-3.3822,-3.1233,-2.8852,0.0,0.0,0.0,0.0,0.0,0.0,0.0,0.0,0.0,0.0,0.0,0.0,0.0,0.0,0.0,0.0,0.0,0.0,0.0,0.0,0.0,0.0,0.0,0.0,0.0,0.0,0.0,0.0,0.0,0.0,0.0,0.0,0.0,0.0,0.0,0.0,0.0,0.0,0.0,0.0,0.0,0.0,0.0,0.0,0.0,0.0,0.0,0.0,0.0,0.0,0.0,0.0,0.0,0.0,0.0,0.0,0.0,0.0,0.0,0.0,0.0,0.0,0.0,0.0,0.0,0.0,0.0,0.0,0.0,0.0,0.0,0.0,0.0,0.0,0.0,0.0,0.0,0.0,0.0,0.0,0.0,0.0,0.0,0.0,0.0,0.0,0.0,0.0,0.0,0.0,0.0,0.0,0.0,0.0,0.0,0.0,0.0,0.0,0.0,0.0,0.0,0.0,0.0,0.0,0.0,0.0,0.0,0.0,-3.0186,-3.2143,-3.2937,-3.347,-3.3872,-3.2295,-3.0624,0.0,0.0,0.0,0.0,0.0,0.0,0.0,0.0,0.0,0.0,0.0,0.0,0.0,0.0,0.0,0.0,0.0,0.0,0.0,0.0,0.0,0.0,0.0,0.0,0.0,0.0,0.0,0.0,0.0,0.0,0.0,0.0,0.0,0.0,0.0,0.0,0.0,0.0,0.0,0.0,0.0,0.0,0.0,0.0,0.0,0.0,0.0,0.0,-3.0683,0.0,0.0,0.0,0.0,0.0,0.0,0.0,0.0,0.0,0.0,0.0,0.0,0.0,0.0,0.0,0.0,0.0,0.0,0.0,0.0,0.0,0.0,0.0,0.0,0.0,0.0,0.0,0.0,0.0,0.0,0.0,0.0,0.0,0.0,0.0,0.0,0.0,0.0,0.0,0.0,0.0,0.0,0.0,0.0,0.0,0.0,0.0,0.0,0.0,0.0,0.0,0.0,0.0,0.0,0.0,0.0,0.0,0.0,0.0,-3.0752,-3.244,-3.3381,-3.3872,-3.3847,-3.2541,-3.1134,0.0,0.0,0.0,0.0,0.0,0.0,0.0,0.0,0.0,0.0,0.0,0.0,0.0,0.0,0.0,0.0,0.0,0.0,0.0,0.0,0.0,0.0,0.0,0.0,0.0,0.0,0.0,0.0,0.0,0.0,0.0,0.0,0.0,0.0,0.0,0.0,0.0,0.0,0.0,0.0,0.0,0.0,0.0,0.0,0.0,0.0,0.0,0.0,0.0,0.0,0.0,0.0,0.0,0.0,0.0,0.0,0.0,0.0,0.0,0.0,0.0,0.0,0.0,0.0,0.0,0.0,0.0,0.0,0.0,0.0,0.0,0.0,0.0,0.0,0.0,0.0,0.0,0.0,0.0,0.0,0.0,0.0,0.0,0.0,0.0,0.0,0.0,0.0,0.0,0.0,0.0,0.0,0.0,0.0,0.0,0.0,0.0,0.0,0.0,0.0,0.0,0.0,0.0,0.0,0.0,0.0,0.0,-3.024,-3.164,-3.2617,-3.4086,-3.455,-3.3897,-3.2533,-3.1077,-2.9653,0.0,0.0,0.0,0.0,0.0,0.0,0.0,0.0,0.0,0.0,0.0,0.0,0.0,0.0,0.0,0.0,0.0,0.0,0.0,0.0,0.0,0.0,0.0,0.0,0.0,0.0,0.0,0.0,0.0,0.0,0.0,0.0,0.0,0.0,0.0,0.0,0.0,0.0,-2.819,-2.8712,0.0,0.0,0.0,0.0,0.0,0.0,0.0,0.0,-2.8776,0.0,0.0,0.0,0.0,0.0,0.0,0.0,0.0,0.0,0.0,0.0,0.0,0.0,0.0,0.0,0.0,0.0,0.0,0.0,0.0,0.0,0.0,0.0,0.0,0.0,0.0,0.0,0.0,0.0,0.0,0.0,0.0,0.0,0.0,0.0,0.0,0.0,0.0,0.0,0.0,0.0,0.0,0.0,0.0,0.0,0.0,0.0,0.0,0.0,0.0,0.0,0.0,0.0,0.0,0.0,0.0,-2.9241,-3.1009,-3.2225,-3.3003,-3.455,-3.4926,-3.3922,-3.2717,-3.1392,-2.9961,0.0,0.0,0.0,0.0,0.0,0.0,0.0,0.0,0.0,0.0,0.0,0.0,0.0,0.0,0.0,0.0,0.0,0.0,0.0,0.0,0.0,0.0,0.0,0.0,0.0,0.0,0.0,0.0,0.0,0.0,0.0,0.0,0.0,0.0,0.0,0.0,0.0,0.0,0.0,-2.9176,-2.9068,0.0,0.0,0.0,0.0,0.0,0.0,0.0,0.0,-2.9087,0.0,0.0,0.0,0.0,0.0,0.0,0.0,0.0,0.0,0.0,0.0,0.0,0.0,0.0,0.0,0.0,0.0,0.0,0.0,0.0,0.0,0.0,0.0,0.0,0.0,0.0,0.0,0.0,0.0,0.0,0.0,0.0,0.0,0.0,0.0,0.0,0.0,0.0,0.0,0.0,0.0,0.0,0.0,0.0,0.0,0.0,0.0,0.0,0.0,0.0,0.0,0.0,0.0,0.0,0.0,-2.9933,-3.1185,-3.2295,-3.3068,-3.4123,-3.4148,-3.3043,-3.2215,-3.1009,0.0,0.0,0.0,0.0,0.0,0.0,0.0,0.0,0.0,0.0,0.0,0.0,0.0,0.0,0.0,0.0,0.0,0.0,0.0,0.0,0.0,0.0,0.0,0.0,0.0,0.0,0.0,0.0,0.0,0.0,0.0,0.0,0.0,0.0,0.0,0.0,0.0,0.0,0.0,0.0,-2.9131,-2.8893,-2.8795,0.0,0.0,0.0,0.0,0.0,0.0,-2.9917,-2.977,0.0,0.0,0.0,0.0,0.0,0.0,0.0,0.0,0.0,0.0,0.0,0.0,0.0,0.0,0.0,0.0,0.0,0.0,0.0,0.0,0.0,0.0,0.0,0.0,0.0,0.0,0.0,0.0,0.0,0.0,0.0,0.0,0.0,0.0,0.0,0.0,0.0,0.0,0.0,0.0,0.0,0.0,0.0,0.0,0.0,0.0,0.0,0.0,0.0,0.0,0.0,0.0,0.0,0.0,0.0,-3.0266,-3.136,-3.223,-3.3043,-3.3721,-3.352,-3.2416,-3.1763,-3.0733,0.0,0.0,0.0,0.0,0.0,0.0,0.0,0.0,0.0,0.0,0.0,0.0,0.0,0.0,0.0,0.0,0.0,0.0,0.0,0.0,0.0,0.0,0.0,0.0,0.0,0.0,0.0,0.0,0.0,0.0,0.0,0.0,0.0,0.0,0.0,0.0,0.0,0.0,0.0,0.0,0.0,-2.8847,-2.8908,-2.9078,0.0,0.0,0.0,0.0,-3.0134,-3.0649,0.0,0.0,0.0,0.0,0.0,0.0,0.0,0.0,0.0,0.0,0.0,0.0,0.0,0.0,0.0,0.0,0.0,0.0,0.0,0.0,0.0,0.0,0.0,0.0,0.0,0.0,0.0,0.0,0.0,0.0,0.0,0.0,0.0,0.0,0.0,0.0,0.0,0.0,0.0,0.0,0.0,0.0,0.0,0.0,0.0,0.0,0.0,0.0,0.0,0.0,0.0,0.0,0.0,0.0,0.0,0.0,-3.0292,-3.1661,-3.2609,-3.3093,-3.4098,-3.4098,-3.2993,-3.1938,-3.1085,0.0,0.0,0.0,0.0,0.0,0.0,0.0,0.0,0.0,0.0,0.0,0.0,0.0,0.0,0.0,0.0,0.0,0.0,0.0,0.0,0.0,0.0,0.0,0.0,0.0,0.0,0.0,0.0,0.0,0.0,0.0,0.0,0.0,0.0,0.0,0.0,0.0,0.0,0.0,0.0,0.0,-2.8933,-2.9707,-2.9728,-2.9822,0.0,0.0,-3.0548,-3.1385,-3.1914,0.0,0.0,0.0,0.0,0.0,0.0,0.0,0.0,0.0,0.0,0.0,0.0,0.0,0.0,0.0,0.0,0.0,0.0,0.0,0.0,0.0,0.0,0.0,0.0,0.0,0.0,0.0,0.0,0.0,0.0,0.0,0.0,0.0,0.0,0.0,0.0,0.0,0.0,0.0,0.0,0.0,0.0,0.0,0.0,0.0,0.0,0.0,0.0,0.0,0.0,0.0,0.0,0.0,0.0,0.0,-2.9578,-3.0597,-3.1478,-3.2273,-3.3043,-3.3545,-3.3395,-3.2616,-3.2114,-3.1311,0.0,0.0,0.0,0.0,0.0,0.0,0.0,0.0,0.0,0.0,0.0,0.0,0.0,0.0,0.0,0.0,0.0,0.0,0.0,0.0,0.0,0.0,0.0,0.0,0.0,0.0,0.0,0.0,0.0,0.0,0.0,0.0,0.0,0.0,0.0,0.0,0.0,0.0,0.0,0.0,0.0,0.0,-2.9986,-3.0522,0.0,0.0,0.0,-3.2097,-3.2357,0.0,0.0,0.0,0.0,0.0,0.0,0.0,0.0,0.0,0.0,0.0,0.0,0.0,0.0,0.0,0.0,0.0,0.0,0.0,0.0,0.0,0.0,0.0,0.0,0.0,0.0,0.0,0.0,0.0,0.0,0.0,0.0,0.0,0.0,0.0,0.0,0.0,0.0,0.0,0.0,0.0,0.0,0.0,0.0,0.0,0.0,0.0,0.0,0.0,0.0,0.0,0.0,0.0,0.0,0.0,0.0,0.0,-3.0899,-3.1191,-3.1938,-3.3018,-3.3093,-3.2867,-3.2441,-3.2012,0.0,0.0,0.0,0.0,0.0,0.0,0.0,0.0,0.0,0.0,0.0,0.0,0.0,0.0,0.0,0.0,0.0,0.0,0.0,0.0,0.0,0.0,0.0,0.0,0.0,0.0,0.0,-2.5409,0.0,0.0,0.0,0.0,0.0,0.0,0.0,0.0,0.0,0.0,0.0,0.0,0.0,0.0,-3.0238,-3.0365,-3.1225,-3.1909,0.0,0.0,-3.336,-3.3318,-3.402,-3.4237,0.0,0.0,0.0,0.0,0.0,0.0,0.0,0.0,0.0,0.0,0.0,0.0,0.0,0.0,0.0,0.0,0.0,0.0,0.0,0.0,0.0,0.0,0.0,0.0,0.0,0.0,0.0,0.0,0.0,0.0,0.0,0.0,0.0,0.0,0.0,0.0,0.0,0.0,0.0,0.0,0.0,0.0,0.0,0.0,0.0,0.0,0.0,0.0,0.0,0.0,0.0,0.0,0.0,0.0,0.0,-3.0874,-3.1191,-3.1964,-3.3043,-3.3093,-3.3068,-3.3018,-3.1417,-3.0955,0.0,0.0,0.0,0.0,0.0,0.0,0.0,0.0,0.0,0.0,0.0,0.0,0.0,0.0,0.0,0.0,0.0,0.0,0.0,0.0,0.0,0.0,0.0,0.0,0.0,0.0,0.0,0.0,0.0,0.0,0.0,0.0,0.0,0.0,0.0,0.0,0.0,0.0,0.0,0.0,0.0,-3.0733,-3.121,-3.1978,-3.2617,0.0,0.0,-3.3655,-3.4488,-3.5052,-3.5228,-3.465,0.0,0.0,0.0,0.0,0.0,0.0,0.0,0.0,0.0,0.0,0.0,0.0,0.0,0.0,0.0,0.0,0.0,0.0,0.0,0.0,0.0,0.0,0.0,0.0,0.0,0.0,0.0,0.0,0.0,0.0,0.0,0.0,0.0,0.0,0.0,0.0,0.0,0.0,0.0,0.0,0.0,0.0,0.0,0.0,0.0,0.0,0.0,0.0,0.0,0.0,0.0,0.0,0.0,-3.0994,-3.1669,-3.2223,-3.2817,-3.3545,-3.3922,-3.3717,-3.2859,-3.2189,-3.149,0.0,0.0,0.0,0.0,0.0,0.0,0.0,0.0,0.0,0.0,0.0,0.0,0.0,0.0,0.0,0.0,0.0,0.0,0.0,0.0,0.0,0.0,0.0,0.0,0.0,0.0,0.0,0.0,-2.7284,-2.7561,-2.7506,0.0,0.0,0.0,0.0,0.0,0.0,0.0,0.0,0.0,0.0,-3.1813,-3.234,-3.328,0.0,0.0,-3.4463,-3.4816,-3.5177,-3.5705,-3.5855,-3.5328,-3.5228,0.0,0.0,0.0,0.0,0.0,0.0,0.0,0.0,0.0,0.0,0.0,0.0,0.0,0.0,0.0,0.0,0.0,0.0,0.0,0.0,0.0,0.0,0.0,0.0,0.0,0.0,0.0,0.0,0.0,0.0,0.0,0.0,0.0,0.0,0.0,0.0,0.0,0.0,0.0,0.0,0.0,0.0,0.0,0.0,0.0,0.0,0.0,0.0,0.0,0.0,0.0,0.0,-3.1738,-3.2466,-3.25,-3.2846,-3.3563,-3.3479,-3.3071,-3.2112,-3.1734,-3.1107,0.0,0.0,0.0,0.0,0.0,0.0,0.0,0.0,0.0,0.0,0.0,0.0,0.0,0.0,0.0,0.0,0.0,0.0,0.0,0.0,0.0,0.0,0.0,0.0,0.0,0.0,0.0,0.0,-2.7921,-2.8197,-2.7821,0.0,0.0,0.0,0.0,0.0,0.0,0.0,0.0,0.0,0.0,-3.2692,-3.3244,-3.4123,-3.4776,-3.4951,-3.5303,-3.5604,-3.5755,-3.6107,-3.6232,-3.5855,0.0,0.0,0.0,0.0,0.0,0.0,0.0,0.0,0.0,0.0,0.0,0.0,0.0,0.0,0.0,0.0,0.0,0.0,0.0,0.0,0.0,0.0,0.0,0.0,0.0,0.0,0.0,0.0,0.0,0.0,-2.41,0.0,0.0,0.0,0.0,0.0,0.0,0.0,0.0,0.0,0.0,0.0,0.0,0.0,0.0,0.0,0.0,0.0,0.0,0.0,0.0,0.0,0.0,-3.1964,-3.3043,-3.1801,-3.1656,-3.2651,-3.1449,-3.0801,-3.0801,-2.9514,-2.9317,-3.0251,0.0,0.0,0.0,0.0,0.0,0.0,0.0,0.0,0.0,0.0,0.0,0.0,0.0,0.0,0.0,0.0,0.0,0.0,0.0,0.0,0.0,0.0,0.0,0.0,0.0,0.0,-2.7293,-2.8273,-2.89,0.0,0.0,0.0,0.0,0.0,0.0,0.0,0.0,0.0,0.0,-3.2692,-3.3269,-3.3822,-3.4374,-3.4951,-3.5454,-3.5462,-3.573,-3.6232,-3.6358,-3.6358,0.0,0.0,0.0,0.0,0.0,0.0,0.0,0.0,0.0,0.0,0.0,0.0,0.0,0.0,0.0,0.0,0.0,0.0,0.0,0.0,0.0,0.0,0.0,0.0,0.0,0.0,0.0,-2.3301,-2.3121,0.0,0.0,0.0,0.0,0.0,0.0,0.0,0.0,0.0,0.0,0.0,-2.5475,-2.5606,0.0,0.0,0.0,0.0,0.0,0.0,0.0,0.0,0.0,0.0,0.0,0.0,-3.3244,-3.3533,-3.301,-3.2841,-3.3221,-3.2271,-3.134,-3.0456,-3.0049,-2.9515,-2.9021,0.0,0.0,0.0,0.0,0.0,0.0,0.0,0.0,0.0,0.0,0.0,0.0,0.0,0.0,0.0,0.0,0.0,0.0,0.0,0.0,0.0,0.0,0.0,0.0,0.0,-2.7846,0.0,0.0,0.0,0.0,0.0,0.0,0.0,0.0,0.0,0.0,0.0,-3.1662,-3.3144,-3.3822,-3.4374,-3.4901,-3.5454,-3.5881,0.0,0.0,0.0,0.0,0.0,0.0,0.0,0.0,0.0,0.0,0.0,0.0,0.0,0.0,-3.3291,-3.399,-3.4173,-3.4173,-3.4173,0.0,0.0,0.0,0.0,0.0,0.0,0.0,0.0,0.0,0.0,0.0,0.0,0.0,0.0,-2.347,0.0,-2.3342,0.0,0.0,0.0,0.0,0.0,0.0,0.0,0.0,-2.4523,-2.4787,-2.5231,-2.5316,-2.5802,0.0,-2.6995,-2.7369,0.0,0.0,0.0,0.0,0.0,0.0,0.0,0.0,-3.313,-3.3339,-3.2622,-3.2423,-3.2628,-3.1782,-3.0916,-2.9843,-2.97,-2.9181,-2.8396,-2.8451,-2.8246,0.0,0.0,0.0,0.0,0.0,0.0,0.0,0.0,0.0,0.0,0.0,0.0,0.0,0.0,0.0,0.0,0.0,0.0,0.0,0.0,0.0,0.0,0.0,-2.8123,0.0,0.0,0.0,0.0,0.0,0.0,0.0,0.0,0.0,-3.2014,-3.2315,-3.3018,-3.4299,-3.4776,-3.5203,-3.5755,0.0,0.0,0.0,0.0,0.0,0.0,0.0,-3.5189,-3.4357,-3.468,-3.4703,-3.3443,-3.3643,-3.3777,-3.3621,0.0,0.0,-3.4031,-3.3956,-3.4023,-3.4514,-3.4428,-3.4462,-3.5111,-3.5244,-3.531,0.0,0.0,0.0,0.0,0.0,0.0,0.0,0.0,-2.3596,-2.4045,0.0,-2.4421,0.0,0.0,0.0,0.0,0.0,0.0,0.0,0.0,-2.4525,-2.4618,-2.5005,-2.5137,-2.5578,-2.634,-2.6043,-2.6318,-2.7112,-2.7477,0.0,0.0,0.0,0.0,0.0,0.0,-3.1809,-3.2277,-3.0895,-3.0454,-3.0979,-3.0068,-2.9355,-2.8945,-2.8535,-2.832,-2.8301,-2.8416,-2.8281,-2.8053,-2.7944,0.0,0.0,0.0,0.0,0.0,0.0,0.0,0.0,0.0,0.0,0.0,0.0,0.0,0.0,0.0,0.0,0.0,0.0,0.0,0.0,-2.7552,0.0,0.0,0.0,0.0,0.0,0.0,0.0,0.0,0.0,0.0,-3.2996,-3.3909,-3.4901,-3.5454,0.0,0.0,0.0,0.0,-3.5284,-3.5793,-3.5194,-3.4754,-3.5142,-3.4797,-3.4462,-3.4334,0.0,0.0,-3.2163,-3.3355,-3.4092,-3.3626,-3.3431,-3.336,-3.2997,-3.2712,-3.2901,-3.4115,-3.4409,-3.492,-3.6053,-3.6639,-3.7086,-2.5571,0.0,0.0,0.0,0.0,-2.4263,-2.4464,-2.4476,-2.4355,-2.4533,-2.4791,-2.4364,0.0,0.0,0.0,0.0,0.0,0.0,-2.5176,-2.4674,-2.5217,-2.5595,-2.6015,-2.6015,-2.631,-2.6822,-2.6685,-2.6824,-2.7023,-2.7178,-2.7915,-2.9281,0.0,0.0,0.0,0.0,-3.1928,-3.1735,-3.1116,-3.0768,-3.1021,-3.0088,-2.9512,-2.9375,-2.8965,-2.875,-2.873,-2.8447,-2.8285,-2.7969,-2.8041,0.0,0.0,0.0,0.0,0.0,0.0,0.0,0.0,0.0,0.0,0.0,0.0,0.0,0.0,0.0,0.0,0.0,0.0,0.0,-2.6909,-2.8864,-2.9518,0.0,0.0,0.0,0.0,0.0,0.0,0.0,0.0,0.0,-3.2583,-3.3472,-3.45,0.0,0.0,-3.4887,-3.5498,-3.4793,-3.428,-3.4443,0.0,0.0,0.0,-3.3504,-3.329,-3.2318,-3.1802,-3.1523,-3.1848,-3.1909,-3.1869,-3.1726,-3.1442,-3.1157,-3.1125,-3.2234,-3.3302,-3.3799,-3.4644,-3.5479,-3.5905,-3.685,-3.7468,-2.7377,-2.6309,-2.5984,-2.5718,-2.5292,-2.5664,-2.5773,-2.5877,-2.5523,-2.5484,-2.5678,-2.4815,-2.4524,-2.4625,-2.4355,0.0,0.0,0.0,-2.5695,-2.5385,-2.6031,-2.6606,-2.709,-2.6973,-2.7285,-2.7988,-2.75,-2.7363,-2.7519,-2.7373,-2.7699,-2.8502,0.0,0.0,-3.0474,-3.1031,-3.1113,-3.082,-3.0784,-3.0697,-3.0717,-3.0115,-2.9824,-2.9805,-2.9394,-2.918,-2.918,-2.8769,-2.8525,-2.8377,-2.8325,-2.8237,0.0,0.0,0.0,0.0,0.0,0.0,0.0,0.0,0.0,0.0,0.0,-2.5695,0.0,0.0,0.0,0.0,-2.6152,-2.639,-2.678,-2.8522,0.0,0.0,0.0,0.0,0.0,0.0,0.0,-3.0583,-3.1642,-3.2351,-3.2256,-3.2744,-3.3528,-3.4557,-3.4406,-3.4228,-3.451,0.0,-3.3369,-3.357,-3.2793,-3.2289,-3.2458,-3.2622,-3.2392,-3.1268,-3.1091,-3.1122,-3.1401,-3.1112,-3.0898,-3.0859,-3.0664,-3.0469,-3.0469,-3.1666,-3.2639,-3.2813,-3.3493,-3.423,-3.4751,-3.5868,-3.6319,-2.8906,-2.8437,-2.7719,-2.7142,-2.6843,-2.6863,-2.7235,-2.7695,-2.6934,-2.6918,-2.7377,-2.5937,-2.554,-2.5859,-2.5458,0.0,-2.552,-2.5954,-2.631,-2.6562,-2.6973,-2.7598,-2.8359,-2.8008,-2.8437,-2.9531,-2.8379,-2.8008,-2.834,-2.8117,-2.7923,-2.8025,-2.8411,-2.9081,-2.9842,-2.9912,-2.9839,-2.9856,-3.0122,-3.0215,-3.0254,-3.0254,-3.0254,-3.0254,-2.9844,-2.9629,-2.9609,-2.9199,-2.8965,-2.8965,-2.8829,-2.8542,-2.8147,0.0,0.0,0.0,0.0,0.0,0.0,0.0,0.0,0.0,0.0,0.0,0.0,0.0,0.0,0.0,-2.7108,0.0,-2.6597,-2.7296,0.0,0.0,0.0,-2.9237,-2.9847,-3.0259,-3.07,-3.1097,0.0,0.0,-3.1834,0.0,-3.2288,-3.3259,-3.3387,-3.3426,-3.3471,-3.277,-3.2468,-3.2962,-3.2378,-3.2117,-3.2292,-3.2072,-3.1632,-3.1053,-3.0898,-3.0879,-3.0879,-3.0898,-3.0898,-3.0898,-3.0898,-3.0879,-3.0898,-3.0956,-3.1087,-3.1567,-3.173,-3.2144,-3.3372,-3.4196,-3.4701,-3.084,-3.0664,-2.9819,-2.8839,-2.7976,-2.829,-2.8418,-2.8594,-2.8398,-2.8379,-2.8506,-2.7565,-2.6976,-2.6743,-2.6545,-2.6545,-2.6663,-2.7094,-2.7545,-2.7851,-2.8262,-2.875,-2.9258,-2.916,-2.9277,-2.9531,-2.9258,-2.918,-2.9258,-2.9172,-2.9293,-2.951,-2.9619,-2.9662,-2.9661,-3.0273,-3.0397,-2.9988,-3.0413,-3.062,-3.0703,-3.0723,-3.0723,-3.0723,-3.0293,-3.0039,-3.0039,-2.9648,-2.9414,-2.9414,-2.9427,-2.9439,-2.956,-2.946,0.0,0.0,0.0,0.0,0.0,0.0,0.0,0.0,0.0,-2.6176,-2.5826,0.0,-2.6455,0.0,-2.7013,-2.7382,-2.7422,-2.8672,0.0,0.0,-3.024,-3.0877,-2.9947,-3.0348,-3.0516,-3.0223,-3.0684,-3.0979,-3.0709,-3.1162,-3.1605,-3.1511,-3.1839,-3.2252,-3.2598,-3.1918,-3.1411,-3.1574,-3.1425,-3.1225,-3.1305,-3.1228,-3.1112,-3.0898,-3.0898,-3.0898,-3.0898,-3.0898,-3.0898,-3.0898,-3.0898,-3.0898,-3.0898,-3.0898,-3.0937,-3.1182,-3.1994,-3.2854,-3.3189,-3.4141,-3.478,-3.1973,-3.1777,-3.1269,-3.0664,-3.0,-2.9648,-2.9609,-2.9785,-2.957,-2.9473,-2.9434,-2.8594,-2.7988,-2.7598,-2.7578,-2.7676,-2.7871,-2.8105,-2.8457,-2.8867,-2.9101,-2.9434,-2.9844,-2.9844,-2.9961,-3.0156,-2.9941,-2.9844,-2.9844,-2.9668,-2.9682,-2.9813,-2.999,-3.0076,-3.0077,-3.0852,-3.1075,-3.0761,-3.0977,-3.1087,-3.0879,-3.0898,-3.0995,-3.1344,-3.0856,-3.0833,-3.1062,-3.0532,-3.0294,-3.0294,-3.0115,-3.0016,-3.0238,-3.0106,-3.0064,0.0,0.0,0.0,0.0,0.0,0.0,0.0,0.0,0.0,0.0,0.0,-2.7296,0.0,-2.7941,-2.8296,-2.8324,-2.9123,-2.9493,-2.9282,-3.0182,-3.0495,-2.9803,-3.0186,-3.0368,-3.0037,-3.0489,-3.0761,-3.0571,-3.091,-3.1071,-3.0937,-3.1144,-3.1408,-3.1634,-3.1264,-3.0968,-3.0988,-3.0954,-3.0898,-3.0898,-3.0898,-3.0898,-3.0898,-3.0898,-3.0898,-3.0898,-3.0898,-3.0898,-3.0898,-3.0898,-3.0898,-3.0898,-3.0898,-3.0898,-3.0995,-3.1556,-3.2092,-3.2092,-3.2758,-3.3098,-3.2754,-3.2402,-3.2363,-3.2305,-3.2148,-3.1016,-3.0703,-3.0937,-3.0488,-3.0254,-3.0156,-2.9414,-2.8848,-2.8457,-2.8457,-2.8652,-2.9004,-2.9062,-2.9297,-2.9648,-2.9707,-2.9961,-3.0351,-3.0371,-3.0605,-3.1035,-3.0644,-3.0449,-3.043,-3.0078,-2.9902,-3.0035,-3.0368,-3.0679,-3.1043,-3.1613,-3.1799,-3.1738,-3.1741,-3.148,-3.1074,-3.1035,-3.1228,-3.1787,-3.1556,-3.1556,-3.2113,-3.1519,-3.1204,-3.1204,-3.0842,-3.0641,-3.0641,-3.0802,-3.0689,0.0,-3.0458,0.0,0.0,0.0,0.0,0.0,0.0,0.0,0.0,-2.8568,-2.875,-2.9066,-2.9252,-2.9263,-2.9307,-2.9287,-2.9359,-2.9451,-2.951,-2.9557,-2.9819,-3.0059,-3.0293,-3.0273,-3.0644,-3.0898,-3.0859,-3.0898,-3.0898,-3.0898,-3.0956,-3.0994,-3.0976,-3.0976,-3.0976,-3.0898,-3.0898,-3.0898,-3.0898,-3.0898,-3.0898,-3.0898,-3.0898,-3.0918,-3.0996,-3.0996,-3.1016,-3.1074,-3.1113,-3.1094,-3.1055,-3.1035,-3.0976,-3.0996,-3.1074,-3.1015,-3.0995,-3.1112,-3.0918,-3.3789,-3.3691,-3.334,-3.2988,-3.2656,-3.2402,-3.1953,-3.1367,-3.0937,-3.0547,-3.0195,-3.0019,-2.9726,-2.9336,-2.9336,-2.9375,-2.9473,-2.9805,-3.0,-3.0098,-3.0469,-3.0859,-3.125,-3.125,-3.1504,-3.1894,-3.1836,-3.1797,-3.1797,-3.1719,-3.1799,-3.2018,-3.2097,-3.2256,-3.2614,0.0,0.0,0.0,-3.1696,-3.1503,-3.1722,-3.1639,-3.1672,-3.1787,-3.1787,0.0,-3.1903,-3.1707,-3.1667,-3.1667,-3.1586,0.0,0.0,0.0,0.0,0.0,0.0,0.0,0.0,0.0,0.0,0.0,-3.0037,-2.9675,-2.9071,-2.9011,-2.9086,-2.9311,-2.9322,-2.951,-2.9898,-2.9937,-3.0133,-3.0564,-3.0643,-3.0566,-3.0644,-3.0703,-3.0762,-3.0762,-3.084,-3.0898,-3.0898,-3.0898,-3.0898,-3.0898,-3.0898,-3.0898,-3.0898,-3.0898,-3.0898,-3.0898,-3.0937,-3.0918,-3.0898,-3.0937,-3.0976,-3.0898,-3.0898,-3.1035,-3.1328,-3.1387,-3.1543,-3.1816,-3.1934,-3.1914,-3.1894,-3.1641,-3.1387,-3.1406,-3.1133,-3.0898,-3.0898,-3.0898,-3.0996,-3.4922,0.0,-3.4238,-3.3809,0.0,-3.3203,-3.2734,-3.2109,-3.1699,-3.1387,-3.1152,-3.0937,-3.084,-3.084,-3.0625,-3.0644,-3.0859,-3.0859,-3.0976,-3.1172,-3.1406,-3.1641,-3.1836,-3.1836,-3.1953,-3.2168,-3.2168,-3.2168,-3.2168,-3.2168,-3.2289,-3.2391,-3.2411,-3.2631,-3.295,-3.3271,-3.3174,-3.2773,-3.2434,-3.2197,-3.2056,-3.1979,-3.1978,-3.2129,0.0,0.0,0.0,0.0,0.0,0.0,0.0,0.0,0.0,0.0,0.0,-3.1217,-3.1131,-3.099,-3.0877,-3.0877,-3.0764,-3.067,-3.067,-3.0393,-2.9829,-2.9877,-3.0004,-3.0089,-3.0128,-3.0192,-3.0488,-3.0547,-3.0644,-3.0859,-3.0898,-3.0898,-3.0898,-3.0898,-3.0898,-3.0898,-3.0898,-3.0898,-3.0898,-3.0898,-3.0898,-3.0898,-3.1074,-3.1191,-3.1172,-3.1016,-3.0957,-3.1172,-3.1406,-3.1523,-3.1523,-3.1523,-3.1504,-3.1504,-3.1348,-3.1387,-3.1758,-3.166,-3.166,-3.2051,-3.2168,-3.2168,-3.2148,-3.1973,-3.1777,-3.1582,-3.1523,-3.1426,-3.1269,-3.1035,-3.0937,-3.5957,-3.5488,-3.5176,-3.4707,-3.416,-3.3887,-3.3516,-3.3086,0.0,0.0,0.0,-3.1797,-3.1816,-3.2129,-3.1797,-3.1836,-3.2129,-3.1875,-3.1894,-3.2168,-3.2246,-3.2324,-3.2383,-3.2402,-3.248,-3.2617,-3.2617,-3.2617,-3.2617,-3.2617,-3.2617,-3.2617,-3.2617,-3.2793,-3.3125,-3.3476,-3.3552,-3.3354,-3.3296,-3.2973,-3.2505,-3.2525,-3.2512,-3.2572,-3.2395,-3.2353,-3.2377,-3.2125,-3.2029,-3.2029,-3.2009,-3.1989,-3.1792,-3.1872,-3.1832,-3.1692,-3.1752,-3.1636,-3.1228,-3.1208,-3.1112,-3.0898,-3.0898,-3.0858,-3.0695,-3.078,-3.0898,-3.0898,-3.0898,-3.0898,-3.0898,-3.0898,-3.0898,-3.0898,-3.0898,-3.0898,-3.0898,-3.0898,-3.0898,-3.0898,-3.0898,-3.0898,-3.0898,-3.0976,-3.0996,-3.1055,-3.1367,-3.1641,-3.1601,-3.1387,-3.1289,-3.1601,-3.1875,-3.2129,-3.2148,-3.2109,-3.2168,-3.209,-3.1836,-3.1816,-3.2109,-3.1992,-3.1934,-3.2383,-3.2402,-3.2422,-3.2402,-3.2344,-3.2168,-3.1816,-3.1953,-3.207,-3.1699,-3.1367,-3.1172,-3.666,-3.5957,-3.6269,-3.5703,-3.4629,-3.498,-3.4844,-3.4316,-3.2832,-3.2168,-3.2168,-3.2109,-3.2109,-3.2168,-3.2109,-3.2109,-3.2187,-3.248,-3.2461,0.0,-3.2539,-3.2891,-3.3242,-3.3242,-3.3633,-3.4297,-3.4336,-3.4336,-3.4336,-3.4316,-3.4355,-3.4316,-3.4355,-3.4355,-3.4434,-3.4492,-3.4453,-3.4466,-3.3994,-3.3743,-3.3618,-3.3888,-3.3737,-3.3075,-3.3256,-3.3377,-3.2934,-3.2914,-3.2914,-3.2914,-3.2914,-3.2634,-3.2057,-3.2237,-3.2118,-3.1093,-3.1348,-3.1388,-3.1035,-3.0995,-3.0879,-3.0898,-3.0898,-3.0859,-3.0801,-3.084,-3.0898,-3.0898,-3.0898,-3.0898,-3.0898,-3.0898,-3.0898,-3.0898,-3.0898,-3.0898,-3.0898,-3.0918,-3.0918,-3.0937,-3.0898,-3.0918,-3.0996,-3.123,-3.1426,-3.1484,-3.1797,-3.207,-3.2109,-3.2031,-3.2012,-3.207,-3.2129,-3.2168,-3.2266,-3.2187,-3.2246,-3.2168,-3.2148,-3.2207,-3.2637,-3.2598,-3.2676,-3.3144,-3.3144,-3.3164,-3.3184,-3.2949,-3.2695,-3.2539,-3.2402,-3.2207,-3.2109,-3.1992,-3.1973,-3.7617,-3.707,-3.7031,-3.6543,-3.5762,-3.5508,-3.5137,-3.4648,-3.3887,-3.3535,-3.3516,-3.3301,-3.3203,-3.3203,-3.3203,-3.3203,-3.3223,-3.3398,-3.3516,-3.3555,-3.375,-3.3926,-3.4101,-3.4121,-3.4316,-3.4687,-3.4687,-3.4687,-3.4687,-3.4687,-3.4687,-3.4707,-3.4941,-3.5195,-3.541,-3.5644,-3.5879,-3.6074,-3.4916,-3.4379,-3.4379,-3.4507,-3.4211,-3.3704,-3.3882,-3.3664,-3.301,-3.297,-3.2871,-3.2653,-3.2633,-3.2433,-3.2135,-3.2293,-3.2113,-3.1621,-3.1758,-3.168,-3.1269,-3.1016,-3.0996,-3.1211,-3.1016,-3.0996,-3.1211,-3.1016,-3.0898,-3.0898,-3.0898,-3.0898,-3.0898,-3.0898,-3.0898,-3.0898,-3.0898,-3.0898,-3.0918,-3.1113,-3.123,-3.125,-3.1445,-3.1582,-3.1582,-3.1758,-3.1875,-3.1914,-3.2246,-3.2559,-3.2793,-3.2832,-3.2754,-3.2578,-3.2695,-3.2832,-3.2832,-3.2851,-3.2851,-3.2851,-3.2656,-3.2695,-3.3008,-3.2988,-3.2988,-3.332,-3.3418,-3.3418,-3.3418,-3.3281,-3.3066,-3.2832,-3.2891,-3.2773,-3.2598,-3.25,-3.25,-3.8398,-3.7891,-3.7578,-3.7207,-3.6758,-3.6113,-3.5625,-3.5293,-3.5293,-3.5273,-3.5195,-3.4551,-3.4277,-3.4375,-3.4375,-3.4414,-3.4512,-3.4609,-3.4785,-3.498,-3.5098,-3.5137,-3.5156,-3.5137,-3.5195,-3.5273,-3.5293,-3.5293,-3.5293,-3.5293,-3.5293,-3.5332,-3.5644,-3.5976,-3.6309,-3.6641,-3.6973,-3.7187,-3.5957,-3.5234,-3.5156,-3.5234,-3.5,-3.4414,-3.4453,-3.4101,-3.3301,-3.3144,-3.293,-3.2617,-3.25,-3.2402,-3.2324,-3.2402,-3.2363,-3.2207,-3.2266,-3.2109,-3.1699,-3.1367,-3.1328,-3.1621,-3.1367,-3.1328,-3.1582,-3.1367,-3.1094,-3.0937,-3.0898,-3.0918,-3.1035,-3.1035,-3.1074,-3.1152,-3.1191,-3.1211,-3.123,-3.1484,-3.166,-3.1699,-3.1973,-3.2148,-3.2187,-3.2246,-3.2363,-3.25,-3.2734,-3.3066,-3.334,-3.3418,-3.3281,-3.3105,-3.3223,-3.3359,-3.3418,-3.3379,-3.3379,-3.3418,-3.3144,-3.3105,-3.3262,-3.3125,-3.3066,-3.3359,-3.3418,-3.3418,-3.3418,-3.3398,-3.3281,-3.3047,-3.3164,-3.3262,-3.3008,-3.293,-3.2871,-3.8672,-3.7969,-3.793,-3.7617,-3.7246,-3.7148,-3.7051,-3.6992,-3.7051,-3.707,-3.6816,-3.5351,-3.4922,-3.5234,-3.5273,-3.5469,-3.582,-3.625,-3.6211,-3.5957,-3.6309,-3.6484,-3.6445,-3.6465,-3.668,-3.6953,-3.6973,-3.6894,-3.6894,-3.6953,-3.7012,-3.707,-3.7109,-3.7109,-3.7187,-3.7226,-3.7285,-3.7305,-3.7148,-3.6875,-3.6523,-3.6875,-3.6484,-3.5312,-3.5644,-3.543,-3.4531,-3.416,-3.3945,-3.3867,-3.3496,-3.3125,-3.2832,-3.3086,-3.2969,-3.2285,-3.2519,-3.2539,-3.2168,-3.207,-3.2031,-3.209,-3.2051,-3.2031,-3.2109,-3.207,-3.1699,-3.1152,-3.0918,-3.1113,-3.1406,-3.1465,-3.1601,-3.1894,-3.1953,-3.2051,-3.2012,-3.209,-3.2109,-3.2109,-3.2207,-3.2168,-3.2285,-3.2539,-3.2891,-3.3203,-3.3301,-3.3418,-3.3535,-3.3555,-3.3555,-3.3418,-3.3437,-3.3437,-3.3437,-3.3418,-3.3418,-3.3418,-3.3398,-3.3359,-3.3379,-3.3379,-3.3398,-3.3359,-3.3418,-3.3418,-3.3418,-3.3418,-3.3398,-3.332,-3.334,-3.3398,-3.3359,-3.332,-3.3203,-3.9629,-3.9101,-3.9082,-3.8691,-3.8066,-3.7773,-3.7519,-3.7305,-3.7305,-3.7305,-3.7266,-3.6797,-3.6445,-3.6172,-3.6406,-3.6484,-3.6445,-3.6836,-3.6953,-3.6797,-3.6953,-3.7031,-3.7051,-3.7051,-3.7129,-3.7285,-3.7305,-3.7305,-3.7305,-3.7305,-3.7305,-3.7305,-3.7305,-3.7539,-3.8008,-3.8047,-3.8301,-3.8809,-3.8828,-3.875,-3.8496,-3.7734,-3.7051,-3.6601,-3.668,-3.6367,-3.5566,-3.5312,-3.498,-3.4473,-3.4043,-3.373,-3.3555,-3.3476,-3.3262,-3.293,-3.2832,-3.2715,-3.2539,-3.2305,-3.2285,-3.2519,-3.2305,-3.2266,-3.25,-3.2324,-3.2012,-3.1738,-3.166,-3.1738,-3.1875,-3.1914,-3.1973,-3.2129,-3.2168,-3.2187,-3.2168,-3.2402,-3.2539,-3.2559,-3.2754,-3.2891,-3.293,-3.3047,-3.334,-3.3711,-3.3809,-3.3867,-3.4101,-3.418,-3.418,-3.418,-3.418,-3.3926,-3.3594,-3.3418,-3.3437,-3.3418,-3.3418,-3.3418,-3.3437,-3.3418,-3.3418,-3.3418,-3.3418,-3.3418,-3.3418,-3.3418,-3.3418,-3.3418,-3.3418,-3.3418,-3.3418,-3.3418,-3.332,-4.0273,-3.9771,-3.9259,-3.8198,-3.7053,-3.6607,-3.629,-3.6029,-3.6062,-3.6118,-3.6216,-3.6402,-3.6216,-3.5968,-3.7047,-3.7539,-3.7422,-3.7676,-3.7754,-3.7676,-3.7773,-3.7754,-3.7676,-3.7773,-3.7812,-3.7812,-3.7851,-3.7832,-3.7793,-3.7695,-3.7754,-3.7949,-3.7871,-3.8184,-3.8848,-3.8945,-3.9238,-3.9805,-3.9883,-3.9883,-3.9707,-3.8652,-3.7891,-3.7676,-3.7539,-3.7129,-3.6406,-3.6152,-3.5742,-3.5098,-3.4551,-3.4238,-3.4238,-3.3945,-3.3769,-3.373,-3.3379,-3.3144,-3.3144,-3.2754,-3.2637,-3.291,-3.2676,-3.2637,-3.2832,-3.2695,-3.2519,-3.2519,-3.25,-3.248,-3.2344,-3.2344,-3.2383,-3.248,-3.2519,-3.2519,-3.2559,-3.2812,-3.2969,-3.2988,-3.3184,-3.3476,-3.3574,-3.3613,-3.3769,-3.4141,-3.4258,-3.4316,-3.4609,-3.4668,-3.4668,-3.4687,-3.4687,-3.4453,-3.3887,-3.3848,-3.3769,-3.3769,-3.3828,-3.3809,-3.3652,-3.3594,-3.3476,-3.3516,-3.3457,-3.3418,-3.3418,-3.3418,-3.3418,-3.3418,-3.3418,-3.3418,-3.3418,-3.3418,-3.3418,-4.0273,-3.962,-3.7681,-3.5414,-3.3171,-3.3292,-3.3276,-3.3482,-3.3044,-3.3126,-3.3764,-3.3426,-3.3304,-3.3936,-3.6868,-3.8564,-3.9023,-3.9043,-3.8848,-3.8574,-3.8906,-3.8887,-3.8574,-3.8926,-3.9082,-3.9004,-3.9004,-3.9023,-3.9043,-3.8711,-3.8945,-3.9668,-3.9258,-3.9316,-3.9726,-3.9785,-3.9844,-3.998,-3.998,-3.9941,-3.9922,-3.9824,-3.9316,-3.8613,-3.8125,-3.7715,-3.7226,-3.6465,-3.6016,-3.5957,-3.5176,-3.4707,-3.4687,-3.4629,-3.457,-3.4551,-3.4219,-3.4004,-3.3945,-3.3594,-3.3398,-3.3398,-3.3398,-3.3379,-3.3437,-3.3398,-3.3379,-3.3379,-3.3359,-3.3223,-3.291,-3.2812,-3.291,-3.3223,-3.3301,-3.3301,-3.332,-3.332,-3.3379,-3.3398,-3.3476,-3.3652,-3.3984,-3.4043,-3.4238,-3.4551,-3.4687,-3.4726,-3.4805,-3.4785,-3.4805,-3.4805,-3.4805,-3.4707,-3.4648,-3.4453,-3.4492,-3.4473,-3.4336,-3.4434,-3.4219,-3.4004,-3.3789,-3.3613,-3.3555,-3.3516,-3.3437,-3.3418,-3.3418,-3.3418,-3.3418,-3.3418,-3.3418,-3.3437,-3.3496,-3.6641,-3.6483,-3.545,-3.4317,-3.3536,-3.3339,-3.3224,-3.3207,-3.3092,-3.3175,-3.3405,-3.352,-3.3635,-3.3908,-3.5072,-3.629,-3.7592,-3.9009,-3.9551,-3.9434,-3.959,-3.957,-3.9453,-3.959,-3.9648,-3.9648,-3.9648,-3.9648,-3.9629,-3.9492,-3.957,-3.9805,-3.9746,-3.9863,-4.0215,-4.0293,-4.043,-4.0684,-4.0703,-4.0703,-4.0664,-4.0449,-4.0137,-3.9805,-3.9121,-3.8535,-3.8125,-3.7539,-3.7129,-3.6855,-3.6269,-3.584,-3.5527,-3.5,-3.4687,-3.4687,-3.4551,-3.4473,-3.4453,-3.4336,-3.4238,-3.4238,-3.4238,-3.4199,-3.4238,-3.4238,-3.4238,-3.4219,-3.4238,-3.4141,-3.3965,-3.3535,-3.3242,-3.3379,-3.3418,-3.3457,-3.3476,-3.3652,-3.3848,-3.3867,-3.4043,-3.4219,-3.416,-3.4297,-3.4648,-3.5039,-3.5137,-3.5254,-3.5488,-3.5547,-3.5488,-3.5527,-3.5547,-3.5547,-3.5547,-3.5,-3.4687,-3.4687,-3.4648,-3.4629,-3.4492,-3.4473,-3.4336,-3.3984,-3.3848,-3.375,-3.373,-3.3613,-3.3574,-3.3555,-3.3535,-3.3613,-3.3418,-3.3672,-3.3809,-3.4327,-3.3644,-3.3257,-3.2613,-3.2003,-3.1641,-3.1533,-3.1518,-3.1425,-3.1502,-3.1703,-3.1826,-3.2081,-3.2189,-3.2838,-3.3676,-3.5032,-3.6976,-3.7963,-3.7852,-3.7963,-3.8288,-3.8823,-3.8918,-3.8994,-3.8994,-3.8994,-3.9318,-4.0059,-3.9961,-4.0039,-4.0312,-4.0195,-4.0312,-4.0664,-4.0723,-4.0898,-4.1133,-4.1172,-4.1172,-4.1133,-4.0898,-4.0723,-4.0625,-4.0019,-3.9434,-3.9004,-3.8437,-3.8027,-3.7676,-3.7187,-3.6738,-3.6406,-3.5742,-3.5332,-3.5332,-3.5078,-3.4922,-3.4902,-3.4785,-3.4687,-3.4687,-3.4687,-3.4687,-3.4687,-3.4687,-3.4687,-3.4687,-3.4687,-3.4687,-3.459,-3.416,-3.3828,-3.3828,-3.3828,-3.3828,-3.3848,-3.4101,-3.4258,-3.4297,-3.4473,-3.457,-3.457,-3.4766,-3.5117,-3.5527,-3.5605,-3.5742,-3.5957,-3.6035,-3.6035,-3.6035,-3.5976,-3.5937,-3.5898,-3.5488,-3.5293,-3.5254,-3.5176,-3.5078,-3.4922,-3.4922,-3.4766,-3.4434,-3.4199,-3.4101,-3.3984,-3.3867,-3.3809,-3.3809,-3.3945,-3.4082,-3.4043,-3.4101,-3.4219,-3.3349,-3.1557,-3.1392,-3.0073,-2.84,-2.8359,-2.7861,-2.8139,-2.7921,-2.8263,-2.8785,-2.8163,-2.8536,-2.8895,-3.0534,-3.1362,-3.1915,-3.3275,-3.4117,-3.4199,-3.4451,-3.5381,-3.6713,-3.7174,-3.7319,-3.7319,-3.7319,-3.8446,-4.0182,-4.0063,-4.0391,-4.0918,-4.0684,-4.0723,-4.1152,-4.1113,-4.1133,-4.1172,-4.1172,-4.1172,-4.1172,-4.1133,-4.1113,-4.1094,-4.0703,-4.0293,-3.9902,-3.9082,-3.8633,-3.8516,-3.7812,-3.7344,-3.7226,-3.6797,-3.6601,-3.6406,-3.5859,-3.5449,-3.5351,-3.5019,-3.4844,-3.4844,-3.4766,-3.4844,-3.4883,-3.4844,-3.4844,-3.4863,-3.4844,-3.4785,-3.4805,-3.4746,-3.4668,-3.4668,-3.4551,-3.4551,-3.4609,-3.4668,-3.4707,-3.4726,-3.4805,-3.4922,-3.5234,-3.5371,-3.5547,-3.582,-3.5937,-3.5957,-3.6016,-3.6035,-3.6035,-3.6035,-3.6035,-3.6035,-3.6035,-3.6016,-3.5996,-3.5957,-3.584,-3.5723,-3.5469,-3.5371,-3.5176,-3.4863,-3.4551,-3.4434,-3.4394,-3.4297,-3.4375,-3.4394,-3.4512,-3.4512,-3.4473,-3.4492,-3.4648,-2.9774,-2.9286,-2.9118,-2.8742,-2.8003,-2.8003,-2.8003,-2.7989,-2.7896,-2.7976,-2.811,-2.8043,-2.8056,-2.8292,-2.8964,-2.9286,-2.9272,-2.9827,-3.1511,-3.3855,-3.4259,-3.4581,-3.5156,-3.54,-3.5468,-3.5789,-3.7082,-3.8031,-3.8817,-4.0008,-4.0957,-4.1094,-4.1035,-4.1035,-4.1152,-4.1172,-4.1172,-4.1172,-4.1172,-4.1172,-4.1172,-4.1172,-4.1172,-4.1152,-4.1035,-4.0898,-4.0742,-3.9941,-3.9492,-3.9453,-3.8926,-3.834,-3.7793,-3.7324,-3.6973,-3.6699,-3.6445,-3.6113,-3.5859,-3.5703,-3.5586,-3.5605,-3.5586,-3.5605,-3.5605,-3.5605,-3.5605,-3.5605,-3.5605,-3.5605,-3.5605,-3.5605,-3.5391,-3.4766,-3.4687,-3.4746,-3.4805,-3.5,-3.5156,-3.5215,-3.543,-3.5547,-3.5488,-3.5605,-3.5859,-3.5976,-3.6035,-3.6035,-3.6035,-3.6035,-3.6035,-3.6035,-3.6035,-3.6133,-3.623,-3.6269,-3.623,-3.6152,-3.6074,-3.6016,-3.582,-3.5703,-3.5508,-3.5312,-3.5,-3.4844,-3.4805,-3.4805,-3.4863,-3.4805,-3.4766,-3.4746,-3.4746,-3.4883,-3.5078,-2.815,-2.815,-2.815,-2.815,-2.815,-2.815,-2.815,-2.815,-2.815,-2.815,-2.8136,-2.8136,-2.815,-2.815,-2.815,-2.815,-2.815,-2.815,-2.9621,-3.1887,-3.2217,-3.271,-3.3349,-3.3512,-3.4002,-3.4651,-3.5298,-3.5943,-3.6762,-3.8073,-3.8724,-3.8724,-3.8724,-3.9216,-3.9864,-4.0021,-4.0021,-4.0021,-3.9864,-4.0021,-4.0021,-4.0021,-4.0353,-4.1016,-4.1172,-4.1172,-4.1133,-4.0625,-4.0293,-4.0098,-3.9707,-3.9121,-3.8457,-3.8008,-3.7578,-3.7207,-3.6953,-3.6699,-3.6328,-3.625,-3.6172,-3.6094,-3.6172,-3.625,-3.6289,-3.6367,-3.6445,-3.6289,-3.6406,-3.6445,-3.6309,-3.6426,-3.6152,-3.5527,-3.5312,-3.5195,-3.5234,-3.5449,-3.5703,-3.584,-3.5957,-3.5937,-3.5976,-3.5859,-3.6035,-3.6035,-3.6035,-3.6035,-3.6035,-3.6035,-3.6094,-3.6191,-3.6309,-3.6426,-3.6523,-3.6504,-3.6465,-3.6309,-3.6152,-3.6074,-3.5937,-3.5918,-3.5801,-3.5703,-3.5469,-3.5449,-3.541,-3.5351,-3.5371,-3.5215,-3.5117,-3.5293,-3.541,-3.5449,-3.5605,-2.815,-2.815,-2.815,-2.815,-2.815,-2.815,-2.815,-2.815,-2.815,-2.815,-2.815,-2.815,-2.815,-2.815,-2.819,-2.8217,-2.8177,-2.827,-2.8453,-2.8764,-2.8919,-2.9719,-3.1091,-3.1241,-3.2052,-3.3349,-3.2546,-3.2858,-3.4489,-3.5137,-3.4651,-3.5315,-3.5477,-3.5799,-3.7419,-3.7737,-3.7737,-3.7737,-3.7737,-3.7737,-3.7737,-3.7737,-3.8706,-4.0666,-4.0509,-4.0509,-4.0666,-4.0257,-4.024,-4.0374,-4.0098,-3.9687,-3.9258,-3.8848,-3.8457,-3.7969,-3.7578,-3.7168,-3.6836,-3.6699,-3.6562,-3.6289,-3.6523,-3.6699,-3.6738,-3.6953,-3.7012,-3.6758,-3.6992,-3.707,-3.6855,-3.6973,-3.6973,-3.6699,-3.6211,-3.6035,-3.6074,-3.6113,-3.6289,-3.6504,-3.6367,-3.623,-3.6601,-3.6387,-3.625,-3.6211,-3.623,-3.6269,-3.6269,-3.6367,-3.6367,-3.6504,-3.668,-3.6777,-3.6875,-3.6894,-3.6836,-3.6738,-3.6504,-3.6328,-3.6113,-3.6035,-3.6016,-3.5937,-3.5898,-3.5937,-3.5918,-3.5781,-3.5762,-3.5703,-3.5781,-3.5996,-3.5976,-3.5898,-3.5996,-2.815,-2.815,-2.815,-2.815,-2.815,-2.815,-2.815,-2.815,-2.815,-2.819,-2.8163,-2.815,-2.8177,-2.8177,-2.839,-2.8484,-2.8524,-2.8684,-2.8804,-2.8804,-2.8804,-2.8695,-2.9033,-2.9132,-2.9467,-3.0122,-3.0939,-3.1722,-3.2381,-3.3708,-3.4506,-3.4668,-3.4343,-3.483,-3.546,-3.5494,-3.5477,-3.546,-3.5477,-3.5494,-3.5494,-3.5477,-3.6602,-3.839,-3.7419,-3.7419,-3.839,-3.7259,-3.7891,-4.024,-4.043,-4.0156,-3.9766,-3.957,-3.9199,-3.8555,-3.8281,-3.7891,-3.7305,-3.6988,-3.693,-3.6992,-3.6891,-3.7129,-3.7129,-3.7226,-3.7246,-3.7148,-3.7266,-3.7285,-3.7187,-3.7246,-3.7226,-3.7129,-3.6797,-3.6641,-3.6836,-3.6973,-3.7031,-3.709,-3.7012,-3.7012,-3.7051,-3.7012,-3.6894,-3.6894,-3.6875,-3.6875,-3.6797,-3.6816,-3.6875,-3.6992,-3.7148,-3.7187,-3.7226,-3.7246,-3.7226,-3.7168,-3.6953,-3.6699,-3.6387,-3.6074,-3.6055,-3.5996,-3.5976,-3.5976,-3.5996,-3.5937,-3.6016,-3.6035,-3.6035,-3.6035,-3.6035,-3.5996,-3.623,-2.8404,-2.8511,-2.839,-2.8337,-2.8337,-2.8337,-2.8337,-2.8364,-2.847,-2.8524,-2.8511,-2.8511,-2.8524,-2.8551,-2.8711,-2.8778,-2.8818,-2.8965,-2.9032,-2.9032,-2.9018,-2.8831,-2.8564,-2.843,-2.8337,-2.8507,-2.9649,-3.0069,-3.0317,-3.1541,-3.2039,-3.1753,-3.1902,-3.2443,-3.3423,-3.3407,-3.3651,-3.3613,-3.3628,-3.3628,-3.3628,-3.347,-3.4719,-3.5987,-3.5416,-3.546,-3.6281,-3.5298,-3.616,-3.8725,-3.9485,-3.9624,-4.0063,-4.0156,-3.9824,-3.916,-3.8188,-3.7161,-3.6469,-3.5736,-3.5388,-3.5886,-3.6085,-3.6808,-3.7313,-3.7695,-3.7812,-3.7598,-3.7715,-3.7734,-3.7598,-3.7559,-3.7656,-3.7773,-3.7461,-3.7246,-3.7305,-3.7266,-3.7383,-3.7461,-3.7422,-3.7383,-3.75,-3.7422,-3.7324,-3.7285,-3.7207,-3.7226,-3.7226,-3.7324,-3.7402,-3.7519,-3.7617,-3.7656,-3.7793,-3.7851,-3.7695,-3.7617,-3.7402,-3.7129,-3.6719,-3.6309,-3.6172,-3.6133,-3.6074,-3.6035,-3.6035,-3.6035,-3.6035,-3.6035,-3.6035,-3.6133,-3.6211,-3.6289,-3.6504,-2.8804,-2.9018,-2.8764,-2.8657,-2.8644,-2.8657,-2.8644,-2.8698,-2.8885,-2.8991,-2.8978,-2.9018,-2.8951,-2.9045,-2.9032,-2.9085,-2.9098,-2.9259,-2.9259,-2.9299,-2.9285,-2.9219,-2.9112,-2.8778,-2.8657,-2.8631,-2.8631,-2.8654,-2.8887,-2.8866,-2.8641,-2.9029,-2.8791,-2.9536,-3.1227,-3.144,-3.1601,-3.1919,-3.1934,-3.1934,-3.1889,-3.1712,-3.2571,-3.4258,-3.4311,-3.3692,-3.3839,-3.3692,-3.4797,-3.7082,-3.7401,-3.8171,-3.9489,-3.9778,-3.9395,-3.8709,-3.6929,-3.5807,-3.5078,-3.3546,-3.2808,-3.4151,-3.4605,-3.5559,-3.7061,-3.7709,-3.7982,-3.8164,-3.8398,-3.8281,-3.8066,-3.7988,-3.8125,-3.8301,-3.8125,-3.7832,-3.7539,-3.7422,-3.7578,-3.791,-3.7637,-3.7676,-3.7754,-3.7695,-3.7461,-3.7773,-3.7715,-3.7734,-3.7734,-3.7754,-3.7851,-3.7969,-3.8066,-3.8144,-3.832,-3.8476,-3.8262,-3.8066,-3.7832,-3.7539,-3.7129,-3.6758,-3.6465,-3.6289,-3.6172,-3.6074,-3.6035,-3.6035,-3.6094,-3.623,-3.6367,-3.6504,-3.6621,-3.6699,-3.6855,-2.8991,-2.9032,-2.8978,-2.8938,-2.8951,-2.8951,-2.8951,-2.8978,-2.9032,-2.9138,-2.9058,-2.9058,-2.9072,-2.9085,-2.9325,-2.9392,-2.9499,-2.9806,-3.0074,-3.0074,-3.0074,-2.9927,-2.9659,-2.9205,-2.8965,-2.8911,-2.8711,-2.8698,-2.8778,-2.8698,-2.8698,-2.8818,-2.8764,-2.9031,-2.959,-2.9949,-2.9631,-2.9699,-2.9727,-2.9927,-2.9927,-3.0004,-3.0667,-3.2251,-3.2266,-3.1271,-2.9941,-2.9621,-3.0592,-3.253,-3.431,-3.5409,-3.6143,-3.6286,-3.6112,-3.5659,-3.5032,-3.4323,-3.3709,-3.3215,-3.3027,-3.3309,-3.3617,-3.4624,-3.6612,-3.6545,-3.7371,-3.8259,-3.873,-3.8467,-3.8516,-3.8457,-3.8496,-3.8574,-3.8516,-3.8398,-3.832,-3.8262,-3.8301,-3.834,-3.832,-3.832,-3.8398,-3.832,-3.8223,-3.8281,-3.8262,-3.8281,-3.8242,-3.8184,-3.8223,-3.8301,-3.832,-3.8379,-3.8437,-3.8574,-3.8476,-3.834,-3.8164,-3.8008,-3.7598,-3.7148,-3.6836,-3.6523,-3.623,-3.6152,-3.6133,-3.6328,-3.6465,-3.6601,-3.6758,-3.6934,-3.707,-3.7129,-3.7285,-2.9325,-2.9432,-2.9312,-2.9325,-2.9432,-2.9446,-2.9526,-2.9673,-2.982,-2.978,-2.9673,-2.9659,-2.9659,-2.9673,-2.982,-2.9953,-3.0087,-3.0247,-3.0354,-3.0301,-3.0221,-3.006,-2.994,-2.9619,-2.9392,-2.9259,-2.9112,-2.9072,-2.9018,-2.9032,-2.9045,-2.9032,-2.9058,-2.9112,-2.9232,-2.9245,-2.9339,-2.9446,-2.9459,-2.9459,-2.9446,-2.9299,-2.9447,-3.0353,-3.0283,-2.9506,-2.8717,-2.8534,-2.8933,-2.9983,-3.1076,-3.271,-3.4327,-3.4668,-3.4536,-3.4243,-3.3049,-3.2616,-3.2267,-3.1312,-3.087,-3.1856,-3.2015,-3.3106,-3.4501,-3.4951,-3.5805,-3.7292,-3.7934,-3.7951,-3.9031,-3.8945,-3.8906,-3.8867,-3.8867,-3.8789,-3.8633,-3.8574,-3.8574,-3.8574,-3.8535,-3.8535,-3.8574,-3.8574,-3.8555,-3.8418,-3.8418,-3.8437,-3.8457,-3.8418,-3.8457,-3.8496,-3.8535,-3.8555,-3.8555,-3.8574,-3.8574,-3.8516,-3.8437,-3.8359,-3.8164,-3.7676,-3.7187,-3.6836,-3.6484,-3.6328,-3.6328,-3.6562,-3.6816,-3.6973,-3.7129,-3.7363,-3.7519,-3.7578,-3.7793,-2.9766,-2.9967,-2.9766,-2.9806,-2.998,-3.0034,-3.014,-3.0354,-3.0662,-3.0528,-3.0461,-3.0434,-3.0341,-3.0408,-3.0381,-3.0581,-3.0715,-3.0635,-3.0595,-3.0568,-3.0408,-3.0261,-3.014,-3.006,-2.9953,-2.9686,-2.9486,-2.9339,-2.9312,-2.9352,-2.9339,-2.9219,-2.9192,-2.9366,-2.9513,-2.9553,-2.9633,-2.9793,-2.99,-2.994,-2.9927,-2.974,-2.9662,-2.9326,-2.9325,-2.9204,-2.8711,-2.8644,-2.8564,-2.8297,-2.8243,-3.0346,-3.2608,-3.3692,-3.3676,-3.3497,-3.1481,-3.0721,-3.0334,-2.9029,-2.8562,-2.9939,-2.9954,-3.1083,-3.2523,-3.3253,-3.4133,-3.5349,-3.6225,-3.6615,-3.8576,-3.7972,-3.7934,-3.8065,-3.8215,-3.8212,-3.7963,-3.7996,-3.8201,-3.8574,-3.8574,-3.8574,-3.8574,-3.8574,-3.8574,-3.8594,-3.8594,-3.8613,-3.8633,-3.8691,-3.875,-3.8769,-3.8809,-3.8652,-3.8613,-3.8574,-3.8574,-3.8574,-3.8574,-3.8555,-3.8476,-3.8008,-3.748,-3.709,-3.6797,-3.666,-3.6699,-3.6992,-3.7207,-3.7344,-3.7578,-3.7851,-3.7969,-3.8008,-3.8242,-3.0247,-3.0301,-3.0501,-3.0474,-3.0341,-3.0541,-3.0541,-3.0421,-3.0728,-3.0768,-3.0728,-3.0715,-3.0715,-3.0728,-3.0715,-3.0889,-3.1076,-3.1022,-3.1009,-3.1009,-3.0889,-3.0768,-3.0568,-3.0528,-3.0528,-3.0381,-2.998,-2.9659,-2.9673,-2.9593,-2.9593,-2.9713,-2.9753,-2.9806,-2.982,-2.9847,-2.9913,-3.0047,-3.0194,-3.0274,-3.0261,-3.0167,-2.9927,-2.9486,-2.9259,-2.9085,-2.9005,-2.8965,-2.8938,-2.8871,-2.8657,-2.905,-2.9803,-2.9958,-2.9816,-2.9759,-2.9383,-2.8994,-2.8813,-2.8492,-2.8144,-2.8492,-2.8758,-2.9575,-3.0974,-3.1462,-3.2295,-3.3624,-3.425,-3.4396,-3.4362,-3.5107,-3.4606,-3.4589,-3.4882,-3.4831,-3.4917,-3.5769,-3.7107,-3.7648,-3.8105,-3.8633,-3.8711,-3.8769,-3.8809,-3.8848,-3.8867,-3.8867,-3.8867,-3.8984,-3.9121,-3.9121,-3.9121,-3.8867,-3.8652,-3.8613,-3.8574,-3.8574,-3.8574,-3.8574,-3.8437,-3.8144,-3.7773,-3.7539,-3.7285,-3.7109,-3.7226,-3.7422,-3.7617,-3.7773,-3.8066,-3.834,-3.8418,-3.8457,-3.8535,-3.0581,-3.0595,-3.0742,-3.0808,-3.0835,-3.0942,-3.1036,-3.1062,-3.1183,-3.1156,-3.1049,-3.1022,-3.1009,-3.1022,-3.1022,-3.1183,-3.1356,-3.1276,-3.1236,-3.1209,-3.1076,-3.0942,-3.0822,-3.0808,-3.0795,-3.0688,-3.0354,-3.0114,-3.0114,-2.9847,-2.982,-2.99,-3.006,-3.0154,-3.0194,-3.0301,-3.0341,-3.0394,-3.0501,-3.0581,-3.0555,-3.0474,-3.0167,-2.9953,-2.9646,-2.9432,-2.9285,-2.9272,-2.9192,-2.9045,-2.8911,-2.8845,-2.8751,-2.8564,-2.831,-2.8203,-2.815,-2.815,-2.815,-2.815,-2.8292,-2.8136,-2.815,-2.8642,-2.9425,-2.9798,-3.051,-3.2042,-3.3611,-3.3783,-3.4299,-3.364,-3.3717,-3.37,-3.3525,-3.3444,-3.3644,-3.4396,-3.526,-3.637,-3.7803,-3.8663,-3.9004,-3.9043,-3.9101,-3.9121,-3.9141,-3.8993,-3.8993,-3.9355,-3.9551,-3.9512,-3.9473,-3.9219,-3.8926,-3.875,-3.8691,-3.8672,-3.8594,-3.8594,-3.8555,-3.834,-3.8281,-3.8184,-3.793,-3.7617,-3.7598,-3.7754,-3.7988,-3.8203,-3.8379,-3.8574,-3.8789,-3.8906,-3.8984,-3.0875,-3.0889,-3.0942,-3.1076,-3.1223,-3.1289,-3.1396,-3.157,-3.1623,-3.1517,-3.133,-3.1316,-3.1316,-3.1316,-3.1343,-3.1436,-3.165,-3.141,-3.1343,-3.1303,-3.1156,-3.0996,-3.0982,-3.0969,-3.1022,-3.1062,-3.0862,-3.0728,-3.0461,-3.0234,-3.0127,-3.0207,-3.0381,-3.0448,-3.0488,-3.0608,-3.0768,-3.0808,-3.0875,-3.0875,-3.0822,-3.0662,-3.0488,-3.0448,-3.0221,-2.9993,-2.9847,-2.9726,-2.9606,-2.9406,-2.9232,-2.9125,-2.9085,-2.8858,-2.8591,-2.8364,-2.823,-2.815,-2.815,-2.815,-2.815,-2.815,-2.815,-2.8318,-2.8305,-2.8615,-2.9091,-3.07,-3.169,-3.2529,-3.2523,-3.2755,-3.2644,-3.2451,-3.2436,-3.2696,-3.2232,-3.249,-3.2986,-3.4756,-3.7131,-3.7681,-3.7196,-3.8009,-3.7897,-3.7915,-3.7764,-3.8593,-3.8651,-3.9693,-3.998,-3.9941,-3.9824,-3.959,-3.9297,-3.8984,-3.8906,-3.8867,-3.873,-3.8633,-3.8652,-3.8613,-3.8467,-3.8321,-3.8418,-3.8144,-3.8105,-3.7961,-3.834,-3.8535,-3.8633,-3.8867,-3.9199,-3.9355,-3.9414,-3.1183,-3.1196,-3.145,-3.1436,-3.1289,-3.1503,-3.1476,-3.1343,-3.157,-3.165,-3.1583,-3.161,-3.1597,-3.1583,-3.1597,-3.1623,-3.1637,-3.1623,-3.157,-3.1543,-3.1503,-3.1463,-3.153,-3.157,-3.1463,-3.141,-3.1249,-3.1022,-3.0795,-3.0688,-3.0648,-3.0648,-3.0662,-3.0742,-3.0755,-3.0875,-3.0782,-3.0849,-3.1062,-3.1169,-3.1156,-3.1116,-3.0942,-3.0795,-3.0662,-3.0581,-3.0448,-3.0301,-3.0167,-3.0114,-2.9686,-2.9472,-2.9392,-2.9152,-2.9005,-2.8791,-2.8497,-2.815,-2.8177,-2.815,-2.815,-2.815,-2.815,-2.815,-2.815,-2.815,-2.8305,-2.8473,-2.9063,-2.9383,-2.9759,-2.9244,-2.9063,-2.9355,-2.9812,-2.9494,-2.9424,-3.0706,-3.1212,-3.1732,-3.3918,-3.4133,-3.4009,-3.5349,-3.6379,-3.6533,-3.6705,-3.7411,-3.7982,-3.8704,-3.9009,-3.8798,-3.8457,-3.8232,-3.7856,-3.784,-3.7821,-3.8212,-3.8078,-3.7925,-3.7557,-3.7334,-3.8188,-3.8002,-3.8015,-3.7811,-3.7312,-3.7497,-3.8329,-3.8759,-3.8619,-3.9077,-3.9726,-3.9654,-3.905,-3.1476,-3.149,-3.1623,-3.1597,-3.1503,-3.1623,-3.1597,-3.1517,-3.161,-3.1677,-3.1677,-3.1677,-3.1677,-3.1677,-3.1677,-3.1677,-3.1677,-3.1677,-3.1677,-3.1677,-3.1677,-3.1677,-3.165,-3.1664,-3.1677,-3.1637,-3.1543,-3.1463,-3.1236,-3.0955,-3.0795,-3.0835,-3.0969,-3.1036,-3.1102,-3.1209,-3.1276,-3.1343,-3.141,-3.1476,-3.1436,-3.1316,-3.1169,-3.1036,-3.0889,-3.0835,-3.0782,-3.0702,-3.0608,-3.0568,-3.0301,-3.014,-2.9967,-2.9713,-2.9486,-2.9232,-2.8738,-2.8444,-2.839,-2.8243,-2.8163,-2.815,-2.815,-2.815,-2.815,-2.815,-2.815,-2.8305,-2.8136,-2.815,-2.815,-2.815,-2.815,-2.815,-2.815,-2.815,-2.8305,-2.8628,-2.955,-3.0079,-3.0397,-3.0959,-3.1726,-3.3307,-3.4484,-3.4559,-3.5134,-3.5921,-3.6149,-3.6129,-3.6517,-3.6676,-3.6465,-3.6062,-3.5696,-3.5469,-3.5295,-3.5515,-3.5498,-3.5392,-3.5428,-3.5599,-3.6442,-3.6156,-3.5392,-3.5493,-3.6031,-3.7277,-3.8422,-3.8517,-3.8481,-3.8443,-3.8229,-3.6875,-3.6322,-3.1677,-3.1677,-3.1677,-3.1677,-3.1677,-3.1677,-3.1664,-3.1664,-3.1664,-3.1677,-3.1677,-3.1677,-3.1677,-3.1677,-3.1677,-3.1677,-3.1677,-3.1677,-3.1677,-3.1677,-3.1677,-3.1677,-3.1677,-3.1677,-3.1677,-3.1677,-3.165,-3.161,-3.153,-3.1356,-3.1169,-3.1036,-3.137,-3.145,-3.153,-3.1717,-3.1864,-3.1744,-3.1757,-3.173,-3.1637,-3.145,-3.137,-3.1276,-3.1142,-3.1009,-3.1009,-3.0915,-3.0902,-3.0889,-3.0768,-3.0581,-3.0421,-3.014,-2.9927,-2.9659,-2.9192,-2.8885,-2.8711,-2.8484,-2.8217,-2.815,-2.815,-2.815,-2.815,-2.815,-2.815,-2.815,-2.815,-2.815,-2.815,-2.815,-2.815,-2.815,-2.815,-2.815,-2.8305,-2.8473,-2.8628,-2.8964,-2.9118,-2.8796,-2.9827,-3.1497,-3.2406,-3.2739,-3.3305,-3.4294,-3.4489,-3.431,-3.478,-3.5214,-3.513,-3.4928,-3.4651,-3.415,-3.3668,-3.322,-3.3204,-3.352,-3.3992,-3.4082,-3.445,-3.3892,-3.322,-3.3992,-3.5003,-3.6741,-3.8195,-3.7294,-3.6421,-3.6461,-3.6009,-3.4651,-3.4255,-3.1677,-3.1677,-3.1677,-3.1677,-3.1677,-3.1677,-3.1677,-3.1677,-3.1677,-3.1677,-3.1677,-3.1677,-3.1677,-3.1677,-3.1704,-3.1717,-3.169,-3.1677,-3.1704,-3.1704,-3.1677,-3.1677,-3.1677,-3.1677,-3.1677,-3.1677,-3.1717,-3.173,-3.1744,-3.1904,-3.1744,-3.169,-3.1851,-3.1984,-3.2078,-3.2198,-3.2225,-3.2118,-3.2078,-3.1957,-3.181,-3.1677,-3.1637,-3.1637,-3.161,-3.161,-3.1597,-3.1343,-3.1196,-3.1183,-3.1036,-3.0875,-3.0742,-3.0541,-3.0354,-3.006,-2.9659,-2.9366,-2.9165,-2.8644,-2.823,-2.815,-2.815,-2.815,-2.815,-2.815,-2.815,-2.815,-2.815,-2.815,-2.815,-2.815,-2.815,-2.815,-2.815,-2.815,-2.815,-2.8136,-2.8305,-2.8305,-2.815,-2.815,-2.8136,-2.9941,-3.026,-3.0612,-3.1735,-3.271,-3.3038,-3.3186,-3.3676,-3.3985,-3.4148,-3.4245,-3.4229,-3.3581,-3.2227,-3.1957,-3.191,-3.2569,-3.3242,-3.3162,-3.2314,-3.2537,-3.2165,-3.3114,-3.3578,-3.3991,-3.4292,-3.4359,-3.4299,-3.4255,-3.3871,-3.298,-3.3043,-3.1677,-3.1677,-3.1677,-3.1677,-3.1677,-3.1677,-3.1677,-3.1677,-3.1677,-3.1677,-3.1677,-3.1677,-3.1677,-3.1717,-3.1877,-3.1931,-3.1931,-3.1931,-3.1931,-3.1864,-3.1784,-3.169,-3.1677,-3.1677,-3.1677,-3.1717,-3.1824,-3.1931,-3.1984,-3.2238,-3.2305,-3.2278,-3.2345,-3.2345,-3.2438,-3.2519,-3.2478,-3.2425,-3.2372,-3.2291,-3.2225,-3.2011,-3.1931,-3.1931,-3.1717,-3.169,-3.1637,-3.1557,-3.1503,-3.1463,-3.1356,-3.1223,-3.1076,-3.0915,-3.0702,-3.0421,-2.9993,-2.974,-2.9446,-2.8858,-2.8377,-2.8163,-2.815,-2.8163,-2.8217,-2.8163,-2.815,-2.815,-2.815,-2.815,-2.815,-2.815,-2.815,-2.815,-2.815,-2.815,-2.815,-2.815,-2.815,-2.815,-2.815,-2.815,-2.815,-2.8305,-2.8473,-2.8615,-2.9774,-3.091,-3.1241,-3.1572,-3.1722,-3.1887,-3.1887,-3.1572,-3.1542,-3.1137,-3.0554,-3.0645,-3.0736,-3.1078,-3.1435,-3.0389,-2.9878,-3.0403,-3.0704,-3.0839,-3.0645,-3.0287,-3.0929,-3.2561,-3.2461,-3.1899,-3.1512,-3.1241,-3.1407,-3.1677,-3.1677,-3.1677,-3.1677,-3.1677,-3.1677,-3.1677,-3.1677,-3.1677,-3.1677,-3.1677,-3.1744,-3.1797,-3.1877,-3.2091,-3.2225,-3.2198,-3.2144,-3.2104,-3.1984,-3.1824,-3.1704,-3.1704,-3.1757,-3.1851,-3.1864,-3.2064,-3.2238,-3.2251,-3.2532,-3.2625,-3.2679,-3.2759,-3.2772,-3.2692,-3.2759,-3.2759,-3.2692,-3.2666,-3.2599,-3.2519,-3.2345,-3.2238,-3.2185,-3.1971,-3.1837,-3.1797,-3.1717,-3.1637,-3.1637,-3.161,-3.1543,-3.1396,-3.1223,-3.1009,-3.0675,-3.0341,-3.0047,-2.9673,-2.9125,-2.8671,-2.8524,-2.847,-2.8457,-2.8404,-2.8337,-2.8323,-2.8297,-2.823,-2.815,-2.815,-2.815,-2.815,-2.815,-2.815,-2.815,-2.815,-2.815,-2.815,-2.815,-2.815,-2.815,-2.815,-2.815,-2.815,-2.815,-2.8796,-2.9453,-2.9453,-2.9453,-2.9286,-2.9286,-2.9118,-2.8796,-2.8473,-2.8895,-2.9508,-2.9355,-2.9299,-2.9021,-2.8909,-2.815,-2.815,-2.9063,-2.9049,-2.846,-2.8587,-2.9147,-3.0325,-3.1857,-3.1061,-3.0064,-2.9745,-2.9621,-2.9118,-3.1677,-3.1677,-3.1677,-3.1677,-3.1677,-3.1677,-3.1677,-3.1677,-3.1677,-3.169,-3.1744,-3.1931,-3.2064,-3.2144,-3.2372,-3.2478,-3.2492,-3.2305,-3.2185,-3.2118,-3.1971,-3.177,-3.181,-3.1931,-3.2104,-3.2171,-3.2372,-3.2532,-3.2545,-3.2826,-3.2946,-3.3026,-3.312,-3.3173,-3.3013,-3.324,-3.3227,-3.3013,-3.2973,-3.2839,-3.2692,-3.2599,-3.2545,-3.2465,-3.2185,-3.2011,-3.1971,-3.177,-3.169,-3.1677,-3.1677,-3.1637,-3.1597,-3.1383,-3.1223,-3.1102,-3.0875,-3.0608,-3.0287,-2.9499,-2.9085,-2.8911,-2.8818,-2.8858,-2.8898,-2.8778,-2.8551,-2.8497,-2.835,-2.8203,-2.8163,-2.815,-2.815,-2.815,-2.815,-2.815,-2.815,-2.815,-2.815,-2.815,-2.815,-2.815,-2.815,-2.815,-2.815,-2.815,-2.815,-2.815,-2.815,-2.815,-2.815,-2.815,-2.815,-2.815,-2.815,-2.815,-2.8292,-2.815,-2.815,-2.815,-2.815,-2.815,-2.815,-2.815,-2.815,-2.815,-2.815,-2.8292,-2.9453,-3.0274,-2.9453,-2.8628,-2.8305,-2.815,-2.815,-3.1677,-3.1677,-3.1677,-3.1677,-3.1677,-3.1677,-3.1677,-3.1677,-3.169,-3.177,-3.1904,-3.1904,-3.2078,-3.2318,-3.2519,-3.2679,-3.2786,-3.2786,-3.2639,-3.2385,-3.2251,-3.2118,-3.2104,-3.2225,-3.2385,-3.2478,-3.2666,-3.2826,-3.2839,-3.3093,-3.3227,-3.3307,-3.3334,-3.3347,-3.3293,-3.3387,-3.3334,-3.328,-3.3267,-3.3213,-3.3093,-3.2933,-3.2826,-3.2799,-3.2385,-3.2144,-3.2104,-3.1851,-3.169,-3.1677,-3.1677,-3.1677,-3.1677,-3.1503,-3.1423,-3.1289,-3.1076,-3.0849,-3.0434,-2.9847,-2.9432,-2.9219,-2.9098,-2.9098,-2.9018,-2.8965,-2.8818,-2.8657,-2.8524,-2.835,-2.8203,-2.815,-2.815,-2.815,-2.815,-2.815,-2.815,-2.815,-2.815,-2.815,-2.815,-2.815,-2.815,-2.815,-2.815,-2.815,-2.815,-2.815,-2.815,-2.815,-2.815,-2.815,-2.815,-2.815,-2.815,-2.815,-2.815,-2.815,-2.815,-2.815,-2.815,-2.815,-2.815,-2.815,-2.815,-2.815,-2.815,-2.815,-2.815,-2.8305,-2.815,-2.815,-2.815,-2.815,-2.815,-3.1677,-3.1677,-3.1677,-3.1677,-3.1677,-3.1677,-3.1677,-3.1677,-3.1677,-3.1784,-3.1917,-3.1944,-3.2171,-3.2519,-3.2772,-3.2906,-3.3106,-3.3,-3.2933,-3.2679,-3.2559,-3.2412,-3.2385,-3.2532,-3.2666,-3.2772,-3.2959,-3.3133,-3.3133,-3.3307,-3.3374,-3.3387,-3.3414,-3.34,-3.3387,-3.34,-3.34,-3.3374,-3.336,-3.3374,-3.3307,-3.3227,-3.3133,-3.2973,-3.2652,-3.2265,-3.2158,-3.1944,-3.1677,-3.1677,-3.1677,-3.1677,-3.1677,-3.1637,-3.157,-3.1423,-3.1223,-3.0982,-3.0581,-3.0247,-2.9833,-2.9459,-2.9352,-2.9339,-2.9299,-2.9272,-2.9138,-2.8965,-2.8764,-2.8537,-2.8337,-2.8283,-2.819,-2.819,-2.8177,-2.8177,-2.8163,-2.8163,-2.815,-2.815,-2.815,-2.815,-2.815,-2.815,-2.815,-2.815,-2.815,-2.815,-2.815,-2.815,-2.815,-2.815,-2.815,-2.815,-2.815,-2.815,-2.815,-2.815,-2.815,-2.815,-2.815,-2.815,-2.815,-2.815,-2.815,-2.815,-2.815,-2.815,-2.815,-2.815,-2.815,-2.815,-2.815,-2.815,-2.815,-3.1677,-3.1677,-3.1677,-3.1704,-3.169,-3.169,-3.1677,-3.1677,-3.169,-3.1717,-3.1757,-3.2318,-3.2559,-3.2706,-3.3133,-3.332,-3.332,-3.312,-3.3013,-3.2919,-3.2786,-3.2639,-3.2679,-3.2839,-3.2959,-3.308,-3.3213,-3.332,-3.3387,-3.34,-3.34,-3.3414,-3.3414,-3.3414,-3.3414,-3.3414,-3.3414,-3.3414,-3.3414,-3.3414,-3.3374,-3.3374,-3.3293,-3.3106,-3.2772,-3.2478,-3.2265,-3.1971,-3.1744,-3.1677,-3.1677,-3.1677,-3.1677,-3.1677,-3.1664,-3.1583,-3.1383,-3.1062,-3.0755,-3.0461,-3.0167,-2.9806,-2.9806,-2.9873,-2.9793,-2.9593,-2.9432,-2.9245,-2.9032,-2.8791,-2.8577,-2.8417,-2.827,-2.8257,-2.823,-2.8217,-2.8203,-2.819,-2.815,-2.815,-2.815,-2.815,-2.815,-2.815,-2.815,-2.815,-2.815,-2.815,-2.815,-2.815,-2.815,-2.815,-2.815,-2.815,-2.815,-2.815,-2.815,-2.815,-2.815,-2.815,-2.815,-2.815,-2.815,-2.815,-2.815,-2.815,-2.815,-2.815,-2.815,-2.815,-2.815,-2.815,-2.815,-2.815,-2.815,-3.1984,-3.1984,-3.1984,-3.1984,-3.1944,-3.1757,-3.1677,-3.169,-3.1877,-3.2078,-3.2305,-3.2465,-3.2746,-3.316,-3.3133,-3.3253,-3.332,-3.3307,-3.3146,-3.3066,-3.3053,-3.2986,-3.3013,-3.312,-3.324,-3.3293,-3.336,-3.3414,-3.34,-3.3414,-3.3414,-3.3414,-3.3414,-3.3414,-3.3414,-3.3414,-3.3414,-3.3414,-3.3414,-3.3414,-3.3414,-3.3414,-3.332,-3.3066,-3.2772,-3.2492,-3.2198,-3.1904,-3.169,-3.1677,-3.1677,-3.1677,-3.1677,-3.1677,-3.1664,-3.1637,-3.1383,-3.1089,-3.0808,-3.0528,-3.0261,-3.0047,-2.994,-2.9913,-2.9887,-2.9833,-2.9686,-2.9486,-2.9299,-2.9072,-2.8858,-2.8684,-2.8551,-2.8497,-2.8444,-2.8377,-2.835,-2.8217,-2.819,-2.815,-2.815,-2.815,-2.815,-2.815,-2.815,-2.815,-2.815,-2.8163,-2.815,-2.815,-2.815,-2.815,-2.815,-2.815,-2.815,-2.815,-2.815,-2.815,-2.815,-2.815,-2.815,-2.815,-2.815,-2.815,-2.815,-2.815,-2.815,-2.815,-2.815,-2.815,-2.815,-2.815,-2.815,-2.815,-2.815,-3.1931,-3.1931,-3.1931,-3.1931,-3.1904,-3.1744,-3.1677,-3.173,-3.1971,-3.2211,-3.2398,-3.2625,-3.2906,-3.316,-3.3187,-3.3267,-3.34,-3.3387,-3.3293,-3.328,-3.332,-3.3267,-3.3267,-3.3307,-3.336,-3.3414,-3.3414,-3.3414,-3.3414,-3.3414,-3.3414,-3.3414,-3.3414,-3.3414,-3.3414,-3.3414,-3.3414,-3.3414,-3.3414,-3.3414,-3.3414,-3.34,-3.3227,-3.2986,-3.2692,-3.2425,-3.2131,-3.1837,-3.1717,-3.1677,-3.1677,-3.1677,-3.1677,-3.1677,-3.1677,-3.1637,-3.1543,-3.1276,-3.1022,-3.0715,-3.0474,-3.0247,-3.006,-3.0007,-3.0007,-2.998,-2.9833,-2.9673,-2.9526,-2.9366,-2.9165,-2.8978,-2.8885,-2.8791,-2.8698,-2.8604,-2.8457,-2.8297,-2.8217,-2.8163,-2.815,-2.815,-2.815,-2.815,-2.8163,-2.819,-2.823,-2.827,-2.8217,-2.815,-2.815,-2.815,-2.815,-2.815,-2.815,-2.815,-2.815,-2.815,-2.815,-2.815,-2.815,-2.815,-2.815,-2.815,-2.815,-2.815,-2.815,-2.815,-2.815,-2.815,-2.815,-2.815,-2.815,-2.815,-2.815,-3.1717,-3.173,-3.1704,-3.1717,-3.1677,-3.1704,-3.173,-3.1744,-3.2078,-3.2171,-3.2291,-3.2772,-3.304,-3.3173,-3.3267,-3.3347,-3.3414,-3.34,-3.34,-3.34,-3.3387,-3.336,-3.3374,-3.3414,-3.3414,-3.3414,-3.3414,-3.3414,-3.3414,-3.3414,-3.3414,-3.3414,-3.3414,-3.3414,-3.3414,-3.3414,-3.3414,-3.3414,-3.3414,-3.3414,-3.3414,-3.3374,-3.328,-3.3,-3.2732,-3.2465,-3.2185,-3.1931,-3.173,-3.1744,-3.177,-3.1797,-3.1744,-3.1677,-3.1677,-3.1664,-3.1623,-3.1436,-3.1196,-3.0942,-3.0822,-3.0581,-3.0314,-3.0274,-3.0274,-3.006,-2.9887,-2.982,-2.9686,-2.9526,-2.9339,-2.9312,-2.9245,-2.9112,-2.8991,-2.8858,-2.8698,-2.8457,-2.819,-2.815,-2.815,-2.8163,-2.8297,-2.8323,-2.8417,-2.835,-2.8404,-2.8484,-2.8444,-2.8337,-2.823,-2.8217,-2.815,-2.815,-2.815,-2.815,-2.815,-2.815,-2.8163,-2.815,-2.815,-2.815,-2.815,-2.815,-2.815,-2.815,-2.815,-2.815,-2.815,-2.815,-2.815,-2.815,-2.815,-2.8163,-2.815,-3.1998,-3.1998,-3.1998,-3.1877,-3.1717,-3.1904,-3.1998,-3.2051,-3.2559,-3.2625,-3.2572,-3.3,-3.3293,-3.3293,-3.3347,-3.3414,-3.3414,-3.3414,-3.3414,-3.3414,-3.3414,-3.3414,-3.3414,-3.3414,-3.3414,-3.3414,-3.3414,-3.3414,-3.3414,-3.3414,-3.3414,-3.3414,-3.3414,-3.3414,-3.3414,-3.3414,-3.3414,-3.3414,-3.3414,-3.3414,-3.3414,-3.3374,-3.328,-3.3053,-3.2826,-3.2692,-3.2478,-3.2358,-3.2318,-3.2345,-3.2345,-3.2225,-3.2024,-3.1797,-3.169,-3.1677,-3.1664,-3.1503,-3.133,-3.1156,-3.1036,-3.0875,-3.0662,-3.0662,-3.0515,-3.0154,-2.9953,-2.9927,-2.9847,-2.97,-2.9606,-2.9619,-2.9593,-2.9432,-2.9272,-2.9112,-2.8951,-2.8591,-2.823,-2.819,-2.819,-2.8283,-2.8444,-2.8537,-2.8631,-2.8724,-2.8831,-2.8898,-2.8858,-2.8764,-2.8497,-2.8417,-2.8203,-2.8163,-2.8177,-2.8163,-2.8177,-2.8203,-2.823,-2.819,-2.8163,-2.8203,-2.8243,-2.8177,-2.815,-2.815,-2.815,-2.8163,-2.8163,-2.8203,-2.827,-2.8337,-2.8243,-2.8217,-2.8177,-3.1984,-3.2118,-3.2238,-3.2211,-3.2118,-3.2238,-3.2305,-3.2385,-3.2786,-3.2893,-3.2812,-3.3187,-3.3414,-3.3414,-3.3414,-3.3414,-3.3414,-3.3414,-3.3414,-3.3414,-3.3414,-3.3414,-3.3414,-3.3414,-3.3414,-3.3414,-3.3414,-3.3414,-3.3414,-3.3414,-3.3414,-3.3414,-3.3414,-3.3414,-3.3414,-3.3414,-3.3414,-3.3414,-3.3414,-3.3414,-3.3414,-3.3387,-3.3267,-3.3066,-3.2946,-3.2826,-3.2652,-3.2545,-3.2545,-3.2478,-3.2385,-3.2265,-3.2038,-3.1824,-3.169,-3.1677,-3.165,-3.1597,-3.1436,-3.1303,-3.1236,-3.1129,-3.0862,-3.0795,-3.0915,-3.0595,-3.0421,-3.0368,-3.0194,-3.0034,-2.9953,-2.994,-2.982,-2.9686,-2.9472,-2.9272,-2.9085,-2.8831,-2.8657,-2.8657,-2.8657,-2.8684,-2.8791,-2.8791,-2.8885,-2.8938,-2.9072,-2.9125,-2.9125,-2.9192,-2.8925,-2.8698,-2.8524,-2.8377,-2.839,-2.8323,-2.8217,-2.8257,-2.8337,-2.8377,-2.8417,-2.8377,-2.835,-2.8297,-2.8217,-2.815,-2.815,-2.827,-2.8337,-2.8417,-2.8484,-2.8564,-2.8444,-2.8337,-2.831,-3.1851,-3.2131,-3.2372,-3.2505,-3.2559,-3.2585,-3.2599,-3.2652,-3.2906,-3.304,-3.3066,-3.3293,-3.34,-3.3414,-3.3414,-3.3414,-3.3414,-3.3414,-3.3414,-3.3414,-3.3414,-3.3414,-3.3414,-3.3414,-3.3414,-3.3414,-3.3414,-3.3414,-3.3414,-3.3414,-3.3414,-3.3414,-3.3414,-3.3414,-3.3414,-3.3414,-3.3414,-3.3414,-3.3414,-3.3414,-3.3414,-3.3414,-3.3267,-3.312,-3.3013,-3.2893,-3.2732,-3.2666,-3.2666,-3.2545,-3.2452,-3.2291,-3.2104,-3.1891,-3.173,-3.1677,-3.1677,-3.165,-3.1597,-3.145,-3.149,-3.1436,-3.1089,-3.1009,-3.1156,-3.1102,-3.0915,-3.0782,-3.0595,-3.0381,-3.0287,-3.0167,-3.0034,-2.9847,-2.9619,-2.9432,-2.9245,-2.9058,-2.9032,-2.9018,-2.9018,-2.9032,-2.9085,-2.9098,-2.9138,-2.9192,-2.9232,-2.9245,-2.9312,-2.9432,-2.9379,-2.9165,-2.8991,-2.8858,-2.8698,-2.8577,-2.8457,-2.8551,-2.8657,-2.8657,-2.8657,-2.8657,-2.8577,-2.843,-2.835,-2.839,-2.843,-2.8551,-2.8617,-2.8657,-2.8711,-2.8778,-2.8724,-2.8631,-2.8537,-3.1837,-3.2104,-3.2171,-3.2318,-3.2559,-3.2786,-3.2893,-3.2946,-3.3187,-3.3334,-3.332,-3.3347,-3.3414,-3.3414,-3.3414,-3.3414,-3.3414,-3.3414,-3.3414,-3.3414,-3.3414,-3.3414,-3.3414,-3.3414,-3.3414,-3.3414,-3.3414,-3.3414,-3.3414,-3.3414,-3.3414,-3.3414,-3.3414,-3.3414,-3.3414,-3.3414,-3.3414,-3.3414,-3.3414,-3.3414,-3.3414,-3.3414,-3.34,-3.3347,-3.3334,-3.3293,-3.3253,-3.324,-3.3253,-3.3106,-3.2746,-3.2505,-3.2251,-3.1971,-3.173,-3.1677,-3.1677,-3.1677,-3.161,-3.157,-3.1623,-3.1623,-3.1383,-3.141,-3.149,-3.1503,-3.137,-3.1303,-3.1076,-3.0675,-3.0515,-3.0354,-3.0207,-2.9927,-2.9673,-2.9566,-2.9432,-2.9259,-2.9138,-2.9138,-2.9138,-2.9245,-2.9392,-2.9432,-2.9526,-2.9593,-2.9713,-2.9726,-2.9726,-2.9766,-2.982,-2.9646,-2.9459,-2.9219,-2.9018,-2.8911,-2.8831,-2.8911,-2.8978,-2.9005,-2.9005,-2.8965,-2.8858,-2.8698,-2.8751,-2.8818,-2.8871,-2.8831,-2.8911,-2.8951,-2.8965,-2.8978,-2.8965,-2.8925,-2.8845]}]]